[[{"header":{"parameterUnit":"m.s-1","parameterCategory":1,"la1":30.6,"la2":28.766,"lo1":-90.7593,"lo2":-88.6598,"dy":0.0162,"dx":0.0183,"nx":116,"ny":114,"refTime":"2023-09-07T18:00:00:Z","depth":0,"parameterNumber":2,"parameterNumberName":"U-component_of_WINDS"},"data":[0.0,0.0,0.0,0.0,0.0,0.0,0.0,0.0,0.0,0.0,0.0,0.0,0.0,0.0,0.0,0.0,0.0,0.0,0.0,0.0,0.0,0.0,0.0,0.0,0.0,0.0,0.0,0.0,0.0,0.0,0.0,0.0,0.0,0.0,0.0,0.0,0.0,0.0,0.0,0.0,0.0,0.0,0.0,0.0,0.0,0.0,0.0,0.0,0.0,0.0,0.0,0.0,0.0,0.0,0.0,0.0,0.0,0.0,0.0,0.0,0.0,0.0,0.0,0.0,0.0,0.0,0.0,0.0,0.0,0.0,0.0,0.0,0.0,0.0,0.0,0.0,0.0,0.0,0.0,0.0,0.0,0.0,0.0,0.0,0.0,0.0,0.0,0.0,0.0,0.0,0.0,0.0,0.0,0.0,0.0,0.0,0.0,0.0,0.0,0.0,0.0,0.0,0.0,0.0,0.0,0.0,0.0,0.0,0.0,0.0,0.0,0.0,0.0,0.0,0.0,0.0,0.0,0.0,0.0,0.0,0.0,0.0,0.0,0.0,0.0,0.0,0.0,0.0,0.0,0.0,0.0,0.0,0.0,0.0,0.0,0.0,0.0,0.0,0.0,0.0,0.0,0.0,0.0,0.0,0.0,0.0,0.0,0.0,0.0,0.0,0.0,0.0,0.0,0.0,0.0,0.0,0.0,0.0,0.0,0.0,0.0,0.0,0.0,0.0,0.0,0.0,0.0,0.0,0.0,0.0,0.0,0.0,0.0,0.0,0.0,0.0,0.0,0.0,0.0,0.0,0.0,0.0,0.0,0.0,0.0,0.0,0.0,0.0,0.0,0.0,0.0,0.0,0.0,0.0,0.0,0.0,0.0,0.0,0.0,0.0,0.0,0.0,0.0,0.0,0.0,0.0,0.0,0.0,0.0,0.0,0.0,0.0,0.0,0.0,0.0,0.0,0.0,0.0,0.0,0.0,0.0,0.0,0.0,0.0,0.0,0.0,0.0,0.0,0.0,0.0,0.0,0.0,0.0,0.0,0.0,0.0,0.0,0.0,0.0,0.0,0.0,0.0,0.0,0.0,0.0,0.0,0.0,0.0,0.0,0.0,0.0,0.0,0.0,0.0,0.0,0.0,0.0,0.0,0.0,0.0,0.0,0.0,0.0,0.0,0.0,0.0,0.0,0.0,0.0,0.0,0.0,0.0,0.0,0.0,0.0,0.0,0.0,0.0,0.0,0.0,0.0,0.0,0.0,0.0,0.0,0.0,0.0,0.0,0.0,0.0,0.0,0.0,0.0,0.0,0.0,0.0,0.0,0.0,0.0,0.0,0.0,0.0,0.0,0.0,0.0,0.0,0.0,0.0,0.0,0.0,0.0,0.0,0.0,0.0,0.0,0.0,0.0,0.0,0.0,0.0,0.0,0.0,0.0,0.0,0.0,0.0,0.0,0.0,0.0,0.0,0.0,0.0,0.0,0.0,0.0,0.0,0.0,0.0,0.0,0.0,0.0,0.0,0.0,0.0,0.0,0.0,0.0,0.0,0.0,0.0,0.0,0.0,0.0,0.0,0.0,0.0,0.0,0.0,0.0,0.0,0.0,0.0,0.0,0.0,0.0,0.0,0.0,0.0,0.0,0.0,0.0,0.0,0.0,0.0,0.0,0.0,0.0,0.0,0.0,0.0,0.0,0.0,0.0,0.0,0.0,0.0,0.0,0.0,0.0,0.0,0.0,0.0,0.0,0.0,0.0,0.0,0.0,0.0,0.0,0.0,0.0,0.0,0.0,0.0,0.0,0.0,0.0,0.0,0.0,0.0,0.0,0.0,0.0,0.0,0.0,0.0,0.0,0.0,0.0,0.0,0.0,0.0,0.0,0.0,0.0,0.0,0.0,0.0,0.0,0.0,0.0,0.0,0.0,0.0,0.0,0.0,0.0,0.0,0.0,0.0,0.0,0.0,0.0,0.0,0.0,0.0,0.0,0.0,0.0,0.0,0.0,0.0,0.0,0.0,0.0,0.0,0.0,0.0,0.0,0.0,0.0,0.0,0.0,0.0,0.0,0.0,0.0,0.0,0.0,0.0,0.0,0.0,0.0,0.0,0.0,0.0,0.0,0.0,0.0,0.0,0.0,0.0,0.0,0.0,0.0,0.0,0.0,0.0,0.0,0.0,0.0,0.0,0.0,0.0,0.0,0.0,0.0,0.0,0.0,0.0,0.0,0.0,0.0,0.0,0.0,0.0,0.0,0.0,0.0,0.0,0.0,0.0,0.0,0.0,0.0,0.0,0.0,0.0,0.0,0.0,0.0,0.0,0.0,0.0,0.0,0.0,0.0,0.0,0.0,0.0,0.0,0.0,0.0,0.0,0.0,0.0,0.0,0.0,0.0,0.0,0.0,0.0,0.0,0.0,0.0,0.0,0.0,0.0,0.0,0.0,0.0,0.0,0.0,0.0,0.0,0.0,0.0,0.0,0.0,0.0,0.0,0.0,0.0,0.0,0.0,0.0,0.0,0.0,0.0,0.0,0.0,0.0,0.0,0.0,0.0,0.0,0.0,0.0,0.0,0.0,0.0,0.0,0.0,0.0,0.0,0.0,0.0,0.0,0.0,0.0,0.0,0.0,0.0,0.0,0.0,0.0,0.0,0.0,0.0,0.0,0.0,0.0,0.0,0.0,0.0,0.0,0.0,0.0,0.0,0.0,0.0,0.0,0.0,0.0,0.0,0.0,0.0,0.0,0.0,0.0,0.0,0.0,0.0,0.0,0.0,0.0,0.0,0.0,0.0,0.0,0.0,0.0,0.0,0.0,0.0,0.0,0.0,0.0,0.0,0.0,0.0,0.0,0.0,0.0,0.0,0.0,0.0,0.0,0.0,0.0,0.0,0.0,0.0,0.0,0.0,0.0,0.0,0.0,0.0,0.0,0.0,0.0,0.0,0.0,0.0,0.0,0.0,0.0,0.0,0.0,0.0,0.0,0.0,0.0,0.0,0.0,0.0,0.0,0.0,0.0,0.0,0.0,0.0,0.0,0.0,0.0,0.0,0.0,0.0,0.0,0.0,0.0,0.0,0.0,0.0,0.0,0.0,0.0,0.0,0.0,0.0,0.0,0.0,0.0,0.0,0.0,0.0,0.0,0.0,0.0,0.0,0.0,0.0,0.0,0.0,0.0,0.0,0.0,0.0,0.0,0.0,0.0,0.0,0.0,0.0,0.0,0.0,0.0,0.0,0.0,0.0,0.0,0.0,0.0,0.0,0.0,0.0,0.0,0.0,0.0,0.0,0.0,0.0,0.0,0.0,0.0,0.0,0.0,0.0,0.0,0.0,0.0,0.0,0.0,0.0,0.0,0.0,0.0,0.0,0.0,0.0,0.0,0.0,0.0,0.0,0.0,0.0,0.0,0.0,0.0,0.0,0.0,0.0,0.0,0.0,0.0,0.0,0.0,0.0,0.0,0.0,0.0,0.0,0.0,0.0,0.0,0.0,0.0,0.0,0.0,0.0,0.0,0.0,0.0,0.0,0.0,0.0,0.0,0.0,0.0,0.0,0.0,0.0,0.0,0.0,0.0,0.0,0.0,0.0,0.0,0.0,0.0,0.0,0.0,0.0,0.0,0.0,0.0,0.0,0.0,0.0,0.0,0.0,0.0,0.0,0.0,0.0,0.0,0.0,0.0,0.0,0.0,0.0,0.0,0.0,0.0,0.0,0.0,0.0,0.0,0.0,0.0,0.0,0.0,0.0,0.0,0.0,0.0,0.0,0.0,0.0,0.0,0.0,0.0,0.0,0.0,0.0,0.0,0.0,0.0,0.0,0.0,0.0,0.0,0.0,0.0,0.0,0.0,0.0,0.0,0.0,0.0,0.0,0.0,0.0,0.0,0.0,0.0,0.0,0.0,0.0,0.0,0.0,0.0,0.0,0.0,0.0,0.0,0.0,0.0,0.0,0.0,0.0,0.0,0.0,0.0,0.0,0.0,0.0,0.0,0.0,0.0,0.0,0.0,0.0,0.0,0.0,0.0,0.0,0.0,0.0,0.0,0.0,0.0,0.0,0.0,0.0,0.0,0.0,0.0,0.0,0.0,0.0,0.0,0.0,0.0,0.0,0.0,0.0,0.0,0.0,0.0,0.0,0.0,0.0,0.0,0.0,0.0,0.0,0.0,0.0,0.0,0.0,0.0,0.0,0.0,0.0,0.0,0.0,0.0,0.0,0.0,0.0,0.0,0.0,0.0,0.0,0.0,0.0,0.0,0.0,0.0,0.0,0.0,0.0,0.0,0.0,0.0,0.0,0.0,0.0,0.0,0.0,0.0,0.0,0.0,0.0,0.0,0.0,0.0,0.0,0.0,0.0,0.0,0.0,0.0,0.0,0.0,0.0,0.0,0.0,0.0,0.0,0.0,0.0,0.0,0.0,0.0,0.0,0.0,0.0,0.0,0.0,0.0,0.0,0.0,0.0,0.0,0.0,0.0,0.0,0.0,0.0,0.0,0.0,0.0,0.0,0.0,0.0,0.0,0.0,0.0,0.0,0.0,0.0,0.0,0.0,0.0,0.0,0.0,0.0,0.0,0.0,0.0,0.0,0.0,0.0,0.0,0.0,0.0,0.0,0.0,0.0,0.0,0.0,0.0,0.0,0.0,0.0,0.0,0.0,0.0,0.0,0.0,0.0,0.0,0.0,0.0,0.0,0.0,0.0,0.0,0.0,0.0,0.0,0.0,0.0,0.0,0.0,0.0,0.0,0.0,0.0,0.0,0.0,0.0,0.0,0.0,0.0,0.0,0.0,0.0,0.0,0.0,0.0,0.0,0.0,0.0,0.0,0.0,0.0,0.0,0.0,0.0,0.0,0.0,0.0,0.0,0.0,0.0,0.0,0.0,0.0,0.0,0.0,0.0,0.0,0.0,0.0,0.0,0.0,0.0,0.0,0.0,0.0,0.0,0.0,0.0,0.0,0.0,0.0,0.0,0.0,0.0,0.0,0.0,0.0,0.0,0.0,0.0,0.0,0.0,0.0,0.0,0.0,0.0,0.0,0.0,0.0,0.0,0.0,0.0,0.0,0.0,0.0,0.0,0.0,0.0,0.0,0.0,0.0,0.0,0.0,0.0,0.0,0.0,0.0,0.0,0.0,0.0,0.0,0.0,0.0,0.0,0.0,0.0,0.0,0.0,0.0,0.0,0.0,0.0,0.0,0.0,0.0,0.0,0.0,0.0,0.0,0.0,0.0,0.0,0.0,0.0,0.0,0.0,0.0,0.0,0.0,0.0,0.0,0.0,0.0,0.0,0.0,0.0,0.0,0.0,0.0,0.0,0.0,0.0,0.0,0.0,0.0,0.0,0.0,0.0,0.0,0.0,0.0,0.0,0.0,0.0,0.0,0.0,0.0,0.0,0.0,0.0,0.0,0.0,0.0,0.0,0.0,0.0,0.0,0.0,0.0,0.0,0.0,0.0,0.0,0.0,0.0,0.0,0.0,0.0,0.0,0.0,0.0,0.0,0.0,0.0,0.0,0.0,0.0,0.0,0.0,0.0,0.0,0.0,0.0,0.0,0.0,0.0,0.0,0.0,0.0,0.0,0.0,0.0,0.0,0.0,0.0,0.0,0.0,0.0,0.0,0.0,0.0,0.0,0.0,0.0,0.0,0.0,0.0,0.0,0.0,0.0,0.0,0.0,0.0,0.0,0.0,0.0,0.0,0.0,0.0,0.0,0.0,0.0,0.0,0.0,0.0,0.0,0.0,0.0,0.0,0.0,0.0,0.0,0.0,0.0,0.0,0.0,0.0,0.0,0.0,0.0,0.0,0.0,0.0,0.0,0.0,0.0,0.0,0.0,0.0,0.0,0.0,0.0,0.0,0.0,0.0,0.0,0.0,0.0,0.0,0.0,0.0,0.0,0.0,0.0,0.0,0.0,0.0,0.0,0.0,0.0,0.0,0.0,0.0,0.0,0.0,0.0,0.0,0.0,0.0,0.0,0.0,0.0,0.0,0.0,0.0,0.0,0.0,0.0,0.0,0.0,0.0,0.0,0.0,0.0,0.0,0.0,0.0,0.0,0.0,0.0,0.0,0.0,0.0,0.0,0.0,0.0,0.0,0.0,0.0,0.0,2.347,2.134,0.0,0.0,0.0,0.0,0.0,0.0,0.0,0.0,0.0,0.0,0.0,0.0,0.0,0.0,0.0,0.0,0.0,0.0,0.0,0.0,0.0,0.0,0.0,0.0,0.0,0.0,0.0,0.0,0.0,0.0,0.0,0.0,0.0,0.0,0.0,0.0,0.0,0.0,0.0,0.0,0.0,0.0,0.0,0.0,0.0,0.0,0.0,0.0,0.0,0.0,0.0,0.0,0.0,0.0,0.0,0.0,0.0,0.0,0.0,0.0,0.0,0.0,0.0,0.0,0.0,0.0,0.0,0.0,0.0,0.0,0.0,0.0,0.0,0.0,0.0,0.0,0.0,0.0,0.0,0.0,0.0,0.0,0.0,0.0,0.0,0.0,0.0,0.0,0.0,0.0,0.0,0.0,0.0,0.0,0.0,0.0,0.0,0.0,0.0,0.0,0.0,0.0,0.0,0.0,0.0,0.0,0.0,0.0,0.0,0.0,0.0,0.0,0.0,0.0,2.6242,2.4739,0.0,0.0,0.0,0.0,0.0,0.0,0.0,0.0,0.0,0.0,0.0,0.0,0.0,0.0,0.0,0.0,0.0,0.0,0.0,0.0,0.0,0.0,0.0,0.0,0.0,0.0,0.0,0.0,0.0,0.0,0.0,0.0,0.0,0.0,0.0,0.0,0.0,0.0,0.0,0.0,0.0,0.0,0.0,0.0,0.0,0.0,0.0,0.0,0.0,0.0,0.0,0.0,0.0,0.0,0.0,0.0,0.0,0.0,0.0,0.0,0.0,0.0,0.0,0.0,0.0,0.0,0.0,0.0,0.0,0.0,0.0,0.0,0.0,0.0,0.0,0.0,0.0,0.0,0.0,0.0,0.0,0.0,0.0,0.0,0.0,0.0,0.0,0.0,0.0,0.0,0.0,0.0,0.0,0.0,0.0,0.0,0.0,0.0,0.0,0.0,0.0,0.0,0.0,0.0,0.0,0.0,0.0,0.0,2.7132,2.7959,2.879,2.7816,2.8561,3.0544,2.9515,2.8925,2.8582,2.7661,0.0,0.0,0.0,0.0,0.0,0.0,0.0,0.0,0.0,0.0,0.0,0.0,0.0,0.0,0.0,0.0,0.0,0.0,0.0,0.0,0.0,0.0,1.1215,1.1038,1.1215,0.0,0.0,0.0,0.0,0.0,0.0,0.0,0.0,0.0,0.0,0.0,0.0,0.0,2.2973,2.3675,2.386,2.3642,2.3692,0.0,0.0,0.0,0.0,0.0,0.0,0.0,0.0,0.0,0.0,0.0,0.0,0.0,0.0,0.0,0.0,0.0,0.0,0.0,0.0,0.0,0.0,0.0,0.0,0.0,0.0,0.0,0.0,0.0,0.0,0.0,0.0,0.0,0.0,0.0,0.0,0.0,0.0,0.0,0.0,0.0,0.0,0.0,1.878,1.9911,0.0,0.0,0.0,0.0,0.0,0.0,0.0,0.0,0.0,0.0,0.0,0.0,0.0,2.2209,2.3257,2.6368,2.8336,2.921,3.2311,3.3791,3.3765,3.3672,3.3807,3.4036,3.2464,0.0,3.0918,3.019,0.0,0.0,0.0,0.0,0.0,0.0,0.0,0.0,0.0,0.0,0.0,0.0,0.0,0.0,0.0,0.0,0.0,0.0,0.0,0.0,0.0,0.0,1.2161,1.2334,1.3122,0.0,0.0,0.0,0.0,0.0,0.0,0.0,0.0,0.0,0.0,0.0,2.0934,2.3576,2.6369,2.7414,2.8127,2.8459,2.8749,2.683,2.3446,2.3399,0.0,0.0,0.0,0.0,0.0,0.0,0.0,0.0,0.0,0.0,0.0,0.0,0.0,0.0,0.0,0.0,0.0,0.0,0.0,0.0,0.0,0.0,0.0,0.0,0.0,0.0,0.0,0.0,0.0,0.0,0.0,0.0,0.0,0.0,0.0,0.0,0.0,0.0,0.0,1.9938,2.0911,2.173,2.1432,2.0527,0.0,0.0,0.0,0.0,0.0,0.0,0.0,0.0,0.0,2.4212,2.5155,2.6203,2.7363,2.9779,3.1473,3.246,3.4169,3.4925,3.4831,3.4925,3.5013,3.5111,3.4362,3.3957,3.3704,3.2195,3.1242,3.0509,0.0,0.0,0.0,0.0,2.6491,2.7523,0.0,0.0,0.0,0.0,0.0,0.0,0.0,0.0,0.0,0.0,0.0,0.0,1.199,1.2885,1.3673,1.4024,1.4998,1.5324,1.4742,0.0,0.0,0.0,0.0,0.0,0.0,0.0,0.0,2.1399,2.3481,2.6078,2.9157,3.0459,3.1206,3.1507,3.1948,2.9944,2.6212,2.6011,2.4646,0.0,0.0,0.0,0.0,0.0,0.0,0.0,0.0,0.0,0.0,0.0,0.0,0.0,0.0,0.0,0.0,0.0,0.0,0.0,0.0,0.0,0.0,0.0,0.0,0.0,0.0,0.0,0.0,0.0,0.0,0.0,0.0,0.0,0.0,0.0,0.0,0.0,0.0,2.1292,2.259,2.3154,2.3341,2.2647,0.0,0.0,0.0,0.0,0.0,0.0,2.3299,2.3981,2.5015,2.6505,2.8221,2.9764,3.1017,3.2318,3.3537,3.4645,3.4945,3.5018,3.4927,3.5102,3.5281,3.5422,3.5438,3.5546,3.5557,3.3969,3.2863,3.2138,3.1478,3.018,2.8681,2.8727,2.9259,2.997,0.0,0.0,0.0,0.0,0.0,0.0,0.0,0.0,0.0,0.0,0.0,1.4282,1.4078,1.5079,1.5757,1.5784,1.5946,1.5591,1.4488,0.0,0.0,0.0,0.0,0.0,0.0,0.0,0.0,2.3835,2.5901,2.7981,2.9968,3.1052,3.1711,3.1967,3.2249,3.1135,2.8977,2.8439,2.7022,2.4909,0.0,0.0,0.0,0.0,0.0,0.0,0.0,0.0,0.0,0.0,0.0,0.0,0.0,0.0,0.0,0.0,0.0,0.0,0.0,0.0,0.0,0.0,0.0,0.0,0.0,0.0,0.0,0.0,0.0,0.0,0.0,0.0,0.0,0.0,0.0,0.0,0.0,0.0,0.0,2.3736,2.5458,0.0,0.0,0.0,0.0,2.1272,2.1303,2.2174,2.3957,2.5338,2.694,2.8763,3.0152,3.1501,3.2757,3.305,3.3684,3.4687,3.5091,3.5176,3.5001,3.5273,3.5426,3.5496,3.5556,3.5618,3.5681,3.5509,3.5348,3.494,3.2513,3.1912,3.2162,2.9984,3.0739,3.2916,0.0,0.0,0.0,0.0,0.0,0.0,0.0,0.0,0.0,1.16,1.2346,1.3058,1.3628,1.5291,1.665,1.7464,1.8254,1.8587,1.8221,0.0,0.0,0.0,0.0,0.0,0.0,0.0,2.1437,2.2508,2.5399,2.7338,2.8431,3.0286,3.1435,3.1966,3.2179,3.193,3.1367,3.1157,2.9709,2.7531,2.6615,2.439,0.0,0.0,0.0,0.0,0.0,0.0,0.0,0.0,0.0,0.0,0.0,0.0,0.0,0.0,0.0,0.0,0.0,0.0,0.0,0.0,0.0,0.0,0.0,0.0,0.0,0.0,0.0,0.0,0.0,0.0,0.0,0.0,0.0,0.0,0.0,0.0,0.0,2.4957,2.6302,0.0,2.5698,2.4839,2.4219,2.4022,2.5042,2.6444,2.8075,2.9004,3.0326,3.2227,3.3013,3.3661,3.4293,3.5099,3.5431,3.5289,3.5817,3.5758,3.5207,3.5422,3.5547,3.5572,3.5586,3.5591,3.5577,3.563,3.5659,3.5543,3.4516,3.4352,3.4578,3.3662,3.3992,3.4917,0.0,0.0,0.0,0.0,0.0,0.0,0.0,0.0,0.0,1.1695,1.2481,1.3375,1.4414,1.6428,1.8021,1.895,1.9879,2.0013,1.8974,0.0,0.0,0.0,0.0,0.0,0.0,2.0682,2.1919,2.2596,2.5381,2.6957,2.7418,2.9549,3.0755,3.115,3.1255,3.1444,3.1679,3.1545,3.09,2.9919,2.8937,2.6469,2.3119,0.0,0.0,0.0,0.0,0.0,0.0,0.0,0.0,0.0,0.0,0.0,0.0,0.0,0.0,0.0,0.0,0.0,0.0,0.0,0.0,0.0,0.0,0.0,0.0,0.0,0.0,0.0,0.0,0.0,0.0,0.0,0.0,0.0,0.0,2.2962,2.528,2.5283,2.6867,2.7755,2.7247,2.6683,2.6444,2.6721,2.8151,2.945,3.0482,3.168,3.2949,3.4199,3.4936,3.5432,3.5676,3.6491,3.6639,3.6156,3.669,3.6664,3.6144,3.6376,3.6026,3.5288,3.6165,3.6026,3.5302,3.626,3.6681,3.6644,3.5918,3.5718,3.5819,3.5733,3.5795,3.5927,0.0,0.0,0.0,0.0,0.0,0.0,0.0,0.0,0.0,1.301,1.4224,1.5417,1.6511,1.8516,1.9863,2.0181,2.0625,1.9567,1.6477,1.6017,0.0,0.0,0.0,0.0,2.1555,2.1458,2.2327,2.4302,2.6141,2.709,2.7127,2.9001,2.9751,2.9589,2.9589,2.9723,2.9889,2.9606,3.0508,3.1865,2.9248,2.7329,2.5695,0.0,0.0,0.0,0.0,0.0,0.0,0.0,0.0,0.0,0.0,0.0,0.0,0.0,0.0,0.0,0.0,0.0,0.0,0.0,0.0,0.0,0.0,0.0,0.0,0.0,0.0,0.0,0.0,0.0,0.0,0.0,0.0,0.0,2.0086,2.3694,2.6,2.4797,2.7351,2.892,2.8151,2.887,2.9368,2.9245,3.0214,3.0855,3.0838,3.3059,3.4353,3.4425,3.5717,3.6523,3.6708,3.7019,3.7194,3.7241,3.7639,3.7811,3.7814,3.8067,3.6875,3.4751,3.7295,3.7038,3.5002,3.7475,3.8485,3.8313,3.663,3.5961,3.5981,3.5962,3.6013,3.6069,0.0,0.0,0.0,0.0,0.0,0.0,0.0,0.0,1.0007,1.0414,1.1768,1.3288,1.48,1.7167,1.9035,1.9965,2.0562,2.0099,1.8133,0.0,0.0,0.0,0.0,0.0,2.161,2.2524,2.3378,2.4162,2.5545,2.6462,2.6902,2.8196,2.9056,2.9455,2.9369,2.9489,2.9791,2.9369,2.9416,2.9739,2.9759,2.8973,2.7693,0.0,0.0,0.0,0.0,0.0,0.0,0.0,0.0,0.0,0.0,0.0,0.0,0.0,0.0,0.0,0.0,0.0,0.0,0.0,0.0,0.0,0.0,0.0,0.0,0.0,0.0,0.0,0.0,0.0,0.0,0.0,2.4414,2.6353,2.4828,2.6303,2.7623,2.781,2.9316,3.03,3.011,2.9679,2.9678,3.0317,3.1024,3.1618,3.2017,3.2104,3.2475,3.318,3.4031,3.4611,3.4899,3.7483,3.8522,3.7992,3.8403,3.8304,3.7819,3.7978,3.7675,3.7083,3.7854,3.7808,3.723,3.7967,3.8283,3.8237,3.7757,3.7628,3.7707,3.7591,3.7676,3.7457,0.0,0.0,0.0,0.0,0.0,0.0,0.0,0.0,0.9622,0.9937,1.1502,1.3033,1.432,1.7117,1.9035,1.9547,2.0356,1.9759,1.7354,0.0,0.0,0.0,0.0,2.1015,2.2458,2.3193,2.3739,2.412,2.5259,2.5885,2.6041,2.7091,2.7694,2.7837,2.796,2.8152,2.844,2.8082,2.8277,2.8851,2.8952,2.8454,2.7656,2.7437,2.6392,2.5034,2.4883,2.4883,2.466,2.2907,0.0,0.0,0.0,0.0,0.0,0.0,0.0,0.0,0.0,0.0,0.0,0.0,0.0,0.0,0.0,0.0,0.0,0.0,0.0,0.0,0.0,0.0,0.0,0.0,2.6324,2.8747,2.8508,2.903,2.9468,2.9523,3.0283,3.0994,3.1531,3.1393,3.1603,3.2441,3.3301,3.3952,3.4276,3.3974,3.3778,3.3746,3.4818,3.5206,3.4866,3.7972,3.935,3.9009,3.9357,3.9312,3.8884,3.9037,3.8516,3.7552,3.8666,3.8556,3.7684,3.8833,3.9301,3.9265,0.0,0.0,0.0,0.0,3.8335,3.8171,0.0,0.0,0.0,0.0,0.0,0.0,0.0,0.0,1.0034,1.0821,1.2411,1.3763,1.4533,1.7614,1.942,1.892,1.9782,1.8956,0.0,0.0,0.0,2.0368,2.1035,2.202,2.358,2.3538,2.3711,2.412,2.5098,2.5356,2.4974,2.5902,2.6089,2.5701,2.6165,2.6484,2.6691,2.6514,2.7367,2.8652,2.7476,2.6961,2.684,2.6564,2.6099,2.5582,2.5498,2.5562,2.5604,2.5115,0.0,0.0,0.0,0.0,0.0,0.0,0.0,0.0,0.0,0.0,0.0,0.0,0.0,0.0,0.0,0.0,0.0,0.0,0.0,0.0,0.0,0.0,0.0,0.0,2.7781,2.969,3.1261,3.1602,3.1332,3.0392,3.0628,3.1307,3.2315,3.3174,3.3932,3.4694,3.5842,3.6566,3.6805,3.6934,0.0,0.0,0.0,3.7063,3.5854,3.8534,3.993,4.0036,4.0269,4.0372,4.0372,4.0515,3.9339,3.7334,3.9637,3.9367,3.7514,3.9851,4.0834,4.0742,3.9189,3.8578,3.8548,3.8258,3.8369,3.8618,0.0,0.0,0.0,0.0,0.0,0.0,0.0,0.0,1.0107,1.1435,1.2267,1.3111,1.4095,1.6648,1.8226,1.8198,1.8349,1.7922,0.0,0.0,1.7141,2.0055,2.095,2.2046,2.348,2.3407,2.3668,2.4261,2.4467,2.4795,2.524,2.5329,2.5436,2.5572,2.6265,2.685,2.7341,2.7361,2.7613,2.7961,2.7281,2.7883,2.9181,2.8721,2.8561,2.8746,2.9384,2.9677,2.9486,2.776,2.7623,2.7784,2.5956,2.4802,0.0,0.0,0.0,0.0,0.0,0.0,0.0,0.0,0.0,0.0,0.0,0.0,0.0,0.0,0.0,0.0,0.0,0.0,0.0,2.871,3.056,3.2166,3.309,3.296,3.2444,3.1438,3.1382,3.1593,3.1985,3.2266,3.2792,3.3706,3.4641,3.565,3.6798,3.5818,3.5294,3.5442,3.6708,3.6984,3.6121,3.947,4.0825,4.0176,4.0272,0.0,4.0253,4.0392,4.0169,3.9742,4.0449,4.0455,4.001,4.0634,4.0868,4.0798,4.0455,4.0322,4.0063,3.7945,3.852,3.9943,0.0,0.0,0.0,0.0,0.0,0.0,0.0,0.0,1.0759,1.1057,1.2079,1.2993,1.3575,1.534,1.6579,1.6855,1.6774,0.0,0.0,1.8049,1.9093,2.1574,2.2125,2.2655,2.3392,2.3319,2.3625,2.4302,2.4219,2.4549,2.5139,2.5005,2.4989,2.5029,2.5943,2.6604,2.7081,2.7421,2.7924,2.8412,2.7201,2.7575,2.882,2.8632,2.8581,2.8767,2.9748,3.0162,3.0007,2.8764,2.8803,2.9101,2.7646,2.664,2.5677,0.0,0.0,0.0,0.0,0.0,0.0,0.0,0.0,0.0,0.0,0.0,0.0,0.0,0.0,2.6339,2.6318,0.0,2.8564,2.977,3.0595,3.151,3.2598,3.3033,3.3034,3.2422,3.2599,3.3055,3.3771,3.4688,3.5643,3.655,3.7543,3.8423,3.9173,3.8322,3.7598,3.7162,3.8544,3.8764,3.7659,4.0635,4.1973,4.1608,4.1113,4.0958,4.1042,4.06,4.0438,4.0515,4.0648,4.07,4.0706,4.0848,4.0868,4.0837,4.0812,4.0769,4.0532,3.9232,3.9607,4.0558,0.0,0.0,0.0,0.0,0.0,0.0,0.0,0.0,0.0,1.1092,1.214,1.2931,1.3082,1.4135,1.4866,0.0,0.0,0.0,0.0,1.9698,2.1114,2.3187,2.3275,2.3275,2.3275,2.3231,2.3494,2.4135,2.4078,2.4343,2.4846,2.4822,2.4701,2.4529,2.5554,2.6286,2.6711,2.7304,2.8178,2.9049,2.7412,2.7113,2.7632,2.7591,2.7536,2.7655,2.8698,2.9111,2.9128,2.8892,2.9055,2.9214,2.8472,2.7876,2.7053,2.4601,2.4179,0.0,0.0,0.0,0.0,0.0,0.0,0.0,0.0,2.5972,2.6442,2.6151,2.7217,2.8165,2.7956,2.8349,2.9127,3.0492,3.0315,3.0491,3.1982,3.2718,3.3143,3.3184,3.374,3.4643,3.5847,3.7239,3.8427,3.9327,4.0257,4.094,4.1266,4.0974,4.0373,3.9464,4.0929,4.1108,3.9736,4.1915,4.3025,4.2996,4.2181,4.1831,4.1861,4.1043,4.0654,4.0588,4.0602,4.0655,4.075,4.0837,4.0897,4.0897,4.0823,4.0732,4.0635,4.0617,4.0655,4.0751,0.0,0.0,0.0,0.0,0.0,0.0,0.0,0.0,0.0,1.3172,1.2842,1.2543,1.2731,1.335,0.0,0.0,0.0,0.0,1.758,2.0036,2.2025,2.326,2.3172,2.3098,2.3127,2.2962,2.3082,2.3493,2.3839,2.4151,2.4385,2.4661,2.4701,2.4529,2.5363,2.6241,2.7068,2.752,2.8257,2.9037,2.8113,2.7498,2.7015,2.6257,2.6186,2.6671,2.7515,2.7838,2.794,2.8336,2.8505,2.8362,2.7259,2.7232,2.7224,2.5255,2.5033,2.4837,2.1996,2.0655,2.0426,2.1903,2.3887,2.5405,0.0,2.8331,3.0784,2.8912,3.0332,3.1642,3.0644,3.0684,3.121,3.2316,3.1857,3.191,3.3371,3.2827,3.2564,3.3424,3.446,3.5431,3.6427,3.6694,3.7228,3.8295,3.8489,3.9122,4.0458,4.0421,4.079,4.1688,4.2787,4.2913,4.2044,4.3245,4.358,4.2996,4.2902,4.2508,4.1899,4.1769,4.1306,4.0602,4.0655,4.0761,4.0867,4.0837,4.0848,4.0897,4.0823,4.0788,4.0764,4.0646,4.0569,4.0559,0.0,0.0,0.0,0.0,0.0,0.0,0.0,0.0,0.0,0.0,0.0,1.243,1.2531,0.0,0.0,0.0,0.0,0.0,1.6736,1.9132,2.1274,2.2995,2.2992,2.2917,2.2931,2.2781,2.3023,2.3638,2.3797,2.4135,2.4605,2.4645,2.4605,2.4529,2.5195,2.5926,2.6782,2.7032,2.762,2.8303,2.7001,2.6389,2.6146,2.5149,2.4954,2.5211,2.5013,2.5032,0.0,0.0,2.5422,2.566,2.5629,2.5162,2.4622,2.4672,2.3902,2.2884,2.2298,2.2839,2.375,2.4318,2.6357,2.8184,2.8096,2.9712,3.1063,3.0236,3.1387,3.2395,3.197,3.1435,3.1453,3.2772,3.1688,3.1167,3.2617,3.3545,3.4406,3.5224,3.5591,3.5575,3.5175,3.6859,3.7911,3.7744,3.9127,4.0296,4.0998,4.1796,4.2442,4.2967,4.3984,4.4402,4.4081,4.4486,4.4632,4.4438,4.3939,4.3615,4.3446,4.2421,4.1531,4.0784,4.0796,4.0826,4.0837,4.0818,4.0826,4.0834,4.0812,4.08,4.0788,4.0687,4.0668,4.0681,0.0,0.0,0.0,0.0,0.0,0.0,0.0,0.0,0.0,0.0,0.0,0.0,0.0,0.0,0.0,0.0,0.0,0.0,0.0,1.8389,2.0694,2.2815,2.2812,2.2781,2.2841,2.2752,2.3038,2.3696,2.3882,2.4219,2.4605,2.4589,2.4549,2.4472,2.4868,2.5456,2.6238,2.6361,2.6862,2.7435,2.6052,2.5559,2.5512,2.438,2.3876,2.3643,2.2902,2.2761,0.0,2.2041,2.2501,2.3342,2.3188,2.2978,2.2912,2.3415,2.2237,2.1049,2.2613,2.401,2.5319,2.6334,2.8151,2.9781,3.0285,3.0931,3.1314,3.1128,3.1969,3.2647,3.2224,3.1514,3.1355,3.2424,3.1429,3.0939,3.2301,3.3846,3.5007,3.55,3.5245,3.437,3.2665,3.6348,3.8697,3.8394,4.0092,4.1163,4.1221,4.2156,4.2818,4.3137,4.4197,4.4767,4.4829,4.5099,4.5319,4.5475,4.4861,4.4556,4.4537,4.2819,4.1634,4.0907,4.0898,4.0867,4.0807,4.0807,4.0815,4.0823,4.0812,4.0804,4.0823,4.0752,4.0745,4.0773,0.0,0.0,0.0,0.0,0.0,0.0,0.0,0.0,0.0,0.0,0.0,0.0,0.0,0.0,0.0,0.0,0.0,0.0,0.0,1.8158,2.079,2.2801,2.2768,2.2768,2.2888,2.3008,2.3201,2.3406,2.4135,2.4359,2.412,2.4451,2.4508,2.4302,2.4333,2.4802,2.5548,2.5648,2.6096,2.6673,2.5839,2.549,2.5342,2.4124,2.2968,2.2034,2.1817,0.0,2.1431,1.9421,2.0438,2.2112,1.9717,2.1136,2.329,2.1545,2.0424,2.0316,2.2889,2.256,2.2408,2.6383,2.7826,2.8698,3.0476,3.2059,3.2835,3.1792,3.2409,3.274,3.1326,3.1196,3.1317,3.1368,3.1562,3.2137,3.3301,3.3295,3.3087,3.2933,3.261,3.1373,2.8739,3.4522,3.9075,4.0672,4.0805,4.0689,4.044,4.0412,4.0914,4.2013,4.3099,4.3653,4.3653,4.4753,4.536,4.5495,4.5456,4.5153,4.4557,4.2925,4.1723,4.0907,4.0898,4.0867,4.0807,4.0807,4.0837,4.0897,4.0837,4.0839,4.0898,4.0823,4.0752,4.072,0.0,0.0,0.0,0.0,0.0,0.0,0.0,0.0,0.0,0.0,0.0,0.0,0.0,0.0,0.0,0.0,0.0,0.0,0.0,1.5611,1.8106,2.0903,2.2061,2.2783,2.3157,2.3127,2.3377,2.3994,2.4276,2.4441,2.4564,2.4589,2.4564,2.4441,2.4614,2.4925,2.5322,2.5457,2.5719,2.5934,2.4968,2.4583,2.4346,2.2002,2.1079,2.0632,0.0,0.0,1.8265,1.709,1.7469,1.8437,1.8456,1.8918,1.9227,1.8106,1.9549,2.1428,2.1151,2.2872,2.5062,2.6359,2.8359,3.0228,3.0892,3.1881,3.2614,3.2404,3.1179,3.0048,2.958,2.8339,2.7774,2.9022,2.8836,2.9609,3.2693,3.1446,3.16,3.517,3.3517,3.3203,3.5975,3.6363,3.6309,3.6138,3.8588,4.0107,4.0122,4.0271,4.0894,4.2027,4.3013,4.3923,4.4712,4.5061,4.5277,4.536,4.5549,4.4963,4.3724,4.3275,4.2267,4.0907,4.0898,4.0867,4.0807,4.0804,4.0815,4.0837,4.0807,4.0839,4.0878,4.0818,4.0804,4.0851,0.0,0.0,0.0,0.0,0.0,0.0,0.0,0.0,0.0,0.0,0.0,0.0,0.0,0.0,0.0,0.0,0.0,0.9805,0.0,0.0,1.5702,1.8622,1.9703,2.0558,2.1277,2.1787,2.247,2.3249,2.4135,2.463,2.4726,2.4605,2.4482,2.4333,2.4655,2.4839,2.4974,2.5185,2.5301,2.5243,2.3685,2.2995,2.2606,1.9962,1.8804,0.0,0.0,0.0,1.5034,1.4492,1.5225,1.6369,1.6498,1.6649,1.6956,1.7971,1.9749,2.1439,2.1811,2.4164,2.6631,2.7278,2.9253,3.1043,3.1153,3.1759,3.2309,3.2315,3.0874,2.9328,2.839,2.7105,2.6572,2.7776,2.7811,2.8972,3.2745,3.1927,3.2003,3.4988,3.3364,3.3194,3.6204,3.5627,3.4938,3.4585,3.7229,3.8682,3.8343,3.8479,3.9469,4.1436,4.2461,4.3531,4.4674,4.5061,4.5275,4.5297,4.5584,4.5012,4.3697,4.3563,4.2228,4.0042,4.0645,4.0343,3.9508,4.0416,4.0796,4.0839,4.0839,4.0869,4.0926,4.0859,4.0867,4.0945,0.0,0.0,0.0,0.0,0.0,0.0,0.0,0.0,0.0,0.0,0.0,0.0,0.0,0.0,0.0,0.0,0.0,0.0,0.0,0.0,0.0,1.598,1.5981,1.6442,1.7498,1.9147,2.0366,2.1171,2.3506,2.45,2.4215,2.4135,2.3948,2.372,2.407,2.4206,2.4188,2.4532,2.4579,2.4241,2.1898,2.0807,2.0279,1.7881,0.0,0.0,0.0,1.3397,1.2046,1.1859,1.3808,1.6016,1.4295,1.4855,1.6894,2.0758,2.0916,2.0655,2.4545,2.6107,2.7097,2.9006,3.0242,3.1014,3.1226,3.1672,3.1976,3.152,3.1163,3.007,2.7441,2.7014,2.714,2.7291,2.8091,2.9907,3.3279,3.4103,3.3877,3.2564,3.2162,3.1509,3.0225,3.2821,3.5006,3.5992,3.6918,3.6909,3.5605,3.5502,3.7005,4.03,4.1511,4.2591,4.3596,4.4712,4.5297,4.5297,4.5584,4.5237,4.4388,4.3773,4.1713,3.8672,4.0228,3.9481,3.7395,3.9809,4.0839,4.0907,4.0907,4.0935,4.0996,4.0935,4.0946,4.0994,0.0,0.0,0.0,0.0,0.0,0.0,0.0,0.0,0.0,0.0,0.0,0.0,0.0,0.0,0.0,0.0,0.0,0.0,0.0,0.0,0.0,0.0,0.0,0.0,0.0,0.0,0.0,1.7762,1.8369,1.8842,1.9167,1.8625,1.8806,1.952,1.9482,1.9625,1.9896,2.0305,2.0067,1.9343,0.0,1.7683,1.6985,0.0,0.0,0.0,0.0,1.176,1.1578,1.1585,1.3689,1.6603,1.819,1.951,2.0476,2.0382,2.2194,2.4178,2.421,2.634,2.877,2.9464,3.0151,3.0649,3.0803,3.1391,3.1417,2.9691,2.7333,2.4858,2.2586,2.1023,2.0849,2.319,2.4394,2.6256,2.9697,2.9994,3.048,3.2179,3.2189,3.2967,3.5205,3.5751,3.5728,3.5318,3.7831,3.9227,3.8881,3.8376,3.8813,4.0493,4.1555,4.2591,4.3596,4.4712,4.5297,4.5297,4.5584,4.5237,4.4388,4.3773,4.2675,4.1228,4.0995,4.051,3.9946,4.0546,4.084,4.0896,4.0897,4.0952,4.0999,4.0981,4.1015,4.1063,0.0,0.0,0.0,0.0,0.0,0.0,0.0,0.0,0.0,0.0,0.0,0.0,0.0,0.0,0.0,0.0,0.0,0.0,0.0,0.0,0.0,0.0,0.0,0.0,0.0,0.0,0.0,0.0,0.0,0.0,1.682,1.6363,1.6451,1.6954,1.7029,1.7145,1.7225,1.7587,0.0,0.0,0.0,0.0,0.0,0.0,0.0,0.0,0.0,1.0929,1.1635,1.3397,1.5067,1.7034,2.0641,2.1884,2.2191,2.3208,2.4533,2.5733,2.5915,2.7636,2.9412,2.9563,3.0076,3.019,2.909,2.9319,2.9018,2.6262,2.4261,2.2264,1.9754,1.8761,1.9131,2.1573,2.3291,2.5358,2.8353,2.9163,3.0131,3.188,3.1716,3.2774,3.6096,3.5687,3.5406,3.5919,3.7044,3.7787,3.8015,3.7682,3.8431,4.0539,4.1158,4.2134,4.3596,4.4224,4.4791,4.5297,4.5513,4.5332,4.4814,4.3853,4.2516,4.0964,4.0927,4.0276,3.9326,4.0403,4.0878,4.0904,4.0924,4.0964,4.1006,4.0998,4.1045,4.1091,0.0,0.0,0.0,0.0,0.0,0.0,0.0,0.0,0.0,0.0,0.0,0.0,0.0,0.0,0.0,0.0,0.0,0.0,0.0,0.0,0.0,0.0,0.0,0.0,0.0,0.0,0.0,0.0,0.0,0.0,0.0,0.0,0.0,0.0,0.0,0.0,0.0,0.0,0.0,0.0,0.0,0.0,0.0,0.0,0.0,0.0,0.0,1.0624,1.1904,1.5908,1.7086,1.764,2.2266,2.3263,2.3436,2.6886,2.7026,2.6451,2.8152,2.9071,2.9518,2.9518,2.9966,2.9742,2.7336,2.6949,2.6093,2.2694,2.184,2.0894,1.8379,1.8648,1.9783,2.1427,2.3585,2.5646,2.7331,2.9534,3.104,3.1139,3.0972,3.1969,3.4958,3.3933,3.4225,3.6997,3.566,3.5042,3.5821,3.595,3.741,4.0502,4.0576,4.1473,4.3355,4.3535,4.4106,4.5084,4.5362,4.5495,4.5399,4.395,4.2066,3.9975,4.0606,3.9636,3.78,3.9985,4.0906,4.0921,4.0988,4.1,4.1018,4.1007,4.1042,4.1082,0.0,0.0,0.0,0.0,0.0,0.0,0.0,0.0,0.0,0.0,0.8295,0.8171,0.0,0.0,0.0,0.0,0.0,0.0,0.0,0.0,0.0,0.0,0.0,0.0,0.0,0.8713,0.8644,0.8611,0.9205,0.0,0.0,0.0,0.0,0.0,0.0,0.0,0.0,0.0,0.0,0.0,0.0,0.0,0.0,0.0,0.0,0.0,0.971,1.0624,1.1942,0.0,1.8067,1.9501,2.3837,2.6089,2.7008,2.6471,2.7334,2.832,2.7413,2.8326,2.9518,2.9518,2.9614,2.9521,2.892,2.7593,2.56,2.2544,2.0052,1.8295,1.7888,1.8135,1.911,2.1269,2.3425,2.4211,2.2425,2.7029,3.0031,2.841,3.0185,3.2515,3.5116,3.2389,3.232,3.6776,3.5955,3.6168,3.8275,3.8442,3.9127,4.0558,4.0485,4.1041,4.2272,4.3156,4.3715,4.3912,4.4997,4.5566,4.5591,4.4026,4.3121,4.2722,4.1401,4.0626,4.0352,4.0674,4.0869,4.0979,4.1003,4.1033,4.1074,4.1082,4.109,4.1094,0.0,0.0,0.0,0.0,0.0,0.0,0.0,1.0478,0.9448,0.8456,0.8035,0.7792,0.7792,0.8198,0.8547,0.0,0.0,0.0,0.0,0.0,0.0,0.0,0.0,0.0,0.0,0.8704,0.8349,0.7545,0.0,0.824,0.8085,0.7946,0.8169,0.8651,0.8326,0.8259,0.8413,0.0,0.0,0.7893,0.7989,0.7804,0.0,0.0,0.0,0.0,0.0,1.0427,1.137,1.4816,1.6551,1.8243,2.3836,2.6801,2.785,2.5971,2.7118,2.8589,2.6757,2.7778,2.9412,2.9412,2.9412,2.8682,2.6036,2.4894,2.3049,1.8324,1.6534,1.5594,1.5001,1.5328,1.6749,1.9947,2.2265,2.367,2.3647,2.7045,2.9406,2.9083,3.0419,3.1637,3.2404,3.0904,3.1108,3.4073,3.3818,3.5139,3.8802,3.9036,3.9277,3.9751,3.9649,4.0365,4.2046,4.2517,4.3355,4.4478,4.5109,4.517,4.4728,4.3667,4.296,4.2491,4.1311,4.0091,3.9023,4.0315,4.0138,3.9169,4.0513,4.1066,4.1101,4.1094,4.108,4.1037,0.0,0.0,0.0,0.0,0.0,0.0,0.0,1.0511,0.9611,0.8632,0.8287,0.7926,0.7348,0.7872,0.8254,0.0,0.0,0.0,0.0,0.0,0.0,0.0,0.0,0.0,0.0,0.0,0.0,0.7668,0.8281,0.0,0.0,0.0,0.0,0.0,0.7679,0.7589,0.7545,0.753,0.7514,0.0,0.0,0.7485,0.0,0.0,0.0,0.0,0.0,1.0029,1.0842,1.3451,1.4886,1.6573,2.2312,2.5259,2.6382,2.5361,2.6576,2.7994,2.6875,2.7917,2.935,2.9305,2.9305,2.8176,2.3792,2.2577,2.0821,1.5278,1.4021,1.3743,1.3226,1.3671,1.5424,1.9421,2.1098,2.2815,2.5462,2.7016,2.844,2.9892,3.0542,3.075,3.0387,3.0068,3.0589,3.2326,3.2985,3.498,3.8783,3.8979,3.8979,3.8979,3.8881,3.9657,4.1391,4.18,4.2875,4.4595,4.4913,4.4687,4.3959,4.3188,4.2425,4.172,4.1074,3.9372,3.7219,3.9829,3.9451,3.7453,4.009,4.1097,4.1093,4.1062,4.1022,4.0971,0.0,0.0,0.0,0.0,0.0,0.0,0.0,1.0451,0.9538,0.9805,0.9449,0.8689,0.7444,0.7043,0.6842,0.0,0.0,0.0,0.0,0.0,0.0,0.0,0.0,0.0,0.0,0.0,0.0,0.8222,0.8,0.0,0.0,0.0,0.0,0.0,0.0,0.7466,0.7665,0.7422,0.0,0.0,0.0,0.0,0.0,0.0,0.0,0.0,0.0,0.938,1.091,1.3035,1.4653,1.6173,1.8568,2.028,2.1898,2.4572,2.573,2.6502,2.8453,2.9207,2.9473,2.935,2.9305,2.864,2.6192,2.3642,2.0895,1.7749,1.5086,1.3876,1.5832,1.6297,1.7684,2.1676,2.0836,2.0772,2.3882,2.5129,2.6435,2.844,2.9782,3.0979,3.2071,3.0732,3.1228,3.463,3.6898,3.8387,3.8873,3.8968,3.8979,3.891,3.891,3.8966,3.9113,4.1025,4.2089,4.2335,4.3605,4.4231,4.4205,4.264,4.1943,4.1925,4.1141,3.9384,3.7284,3.9843,3.9441,3.7464,4.0083,4.1101,4.1093,4.0968,4.0948,4.0957,0.0,0.0,0.0,0.0,0.0,0.0,1.0663,1.0279,0.9584,0.8766,0.9002,0.8749,0.7501,0.7429,0.724,0.6611,0.0,0.0,0.0,0.0,0.0,0.0,0.0,0.0,0.0,0.0,0.9301,0.9144,0.8603,0.0,0.0,0.0,0.0,0.0,0.0,0.7513,0.7575,0.7545,0.0,0.0,0.0,0.0,0.0,0.0,0.0,0.0,0.0,0.0,0.965,1.1421,1.2313,1.2984,1.4754,1.5842,1.6979,1.9904,2.3188,2.5733,2.5252,2.715,2.9229,2.9167,2.9167,2.8281,2.4942,2.287,2.0501,1.6521,1.4181,1.3006,1.3565,1.3506,1.441,1.7515,1.7606,1.8718,2.2813,2.3997,2.5554,2.8504,2.9889,3.0366,2.9763,2.9661,3.06,3.2866,3.5036,3.6711,3.771,3.8279,3.8707,3.895,3.8676,3.8988,3.9937,4.1353,4.2404,4.3104,4.4317,4.4365,4.3386,4.2799,4.2002,4.1084,4.0829,3.8442,3.5016,3.9131,3.8507,3.5321,3.939,4.1025,4.1074,4.0902,4.0835,4.0704,0.0,0.0,0.0,0.0,0.0,1.0228,1.0451,1.0224,0.973,0.8883,0.896,0.8831,0.8075,0.8122,0.7947,0.7333,0.6962,0.0,0.0,0.0,0.0,0.0,0.0,0.0,0.0,0.0,1.0221,1.0111,0.9456,0.9142,0.0,0.0,0.874,0.8423,0.0,0.0,0.0,0.0,0.0,0.0,0.0,0.0,0.0,0.0,0.0,0.0,0.0,0.0,0.0,0.0,0.0,1.0609,1.2009,0.0,0.0,1.6924,2.1126,2.4552,2.3592,2.6108,2.8998,2.9029,2.8602,2.7273,2.3792,2.1676,1.9264,1.5177,1.3289,1.2169,1.1645,1.1362,1.2096,1.4856,1.5683,1.7435,2.1666,2.2718,2.4292,2.7699,2.8849,2.9261,2.8929,3.0024,3.1144,3.2083,3.3786,3.5273,3.641,3.7268,3.7995,3.8446,3.8358,3.8927,4.0176,4.1443,4.2491,4.3308,4.4162,4.356,4.1722,4.2042,4.1168,3.9475,4.0333,3.8246,3.4611,3.9021,3.8338,3.4923,3.9266,4.0996,4.1019,4.0821,4.0692,4.0488,0.0,0.0,0.0,0.0,0.0,0.0,1.1159,1.0322,0.9965,1.0954,0.9804,0.9016,0.9341,0.8969,0.8744,0.8867,0.7668,0.0,0.0,0.0,0.0,0.0,0.0,0.0,0.0,0.0,1.1146,1.1101,1.0486,1.0148,1.0064,0.9275,0.9354,1.0117,0.0,0.0,0.0,0.0,0.0,0.0,0.0,0.0,0.0,0.0,0.0,0.0,0.0,0.0,0.0,0.0,0.0,0.0,0.0,0.0,0.0,0.0,2.0058,2.2615,2.4848,2.7098,2.8842,2.8873,2.741,2.5431,2.346,2.0226,1.6945,1.4514,1.278,1.1615,1.1273,1.121,1.2241,1.5464,1.6047,1.7186,2.0288,2.1071,2.241,2.5383,2.6085,2.7645,3.0934,3.2591,3.3459,3.3495,3.455,3.52,3.5218,3.6055,3.6723,3.7204,3.7922,3.8517,3.8997,4.1057,4.2115,4.2115,4.2481,4.1399,3.9166,3.9887,3.9019,3.7082,3.96,3.9284,3.718,3.9881,3.9447,3.734,4.0038,4.101,4.0883,4.0675,4.0546,4.0342,0.0,0.0,0.0,0.0,0.0,0.0,0.0,0.8772,0.855,0.9305,0.8899,0.8646,0.8898,0.8312,0.8244,0.9175,0.8175,0.0,0.0,0.0,0.0,0.0,0.0,0.0,0.0,0.0,1.1508,1.1991,1.12,1.0841,1.0859,1.0537,1.0236,0.9919,0.9517,0.9357,0.0,0.0,0.0,0.0,0.0,0.0,0.906,0.0,0.0,0.0,0.0,0.0,0.0,0.0,0.0,0.0,0.0,0.0,0.0,1.4172,1.6891,1.9587,2.032,2.2399,2.4415,2.4552,2.3733,2.229,1.995,1.8022,1.5953,1.3307,1.2013,1.127,1.0977,1.0825,1.1571,1.414,1.4687,1.6189,2.0218,2.1202,2.2681,2.5821,2.7881,2.9459,3.0486,3.0678,3.1481,3.3371,3.2807,3.2875,3.3987,3.535,3.6415,3.7174,3.7953,3.8591,3.9045,4.0435,4.1161,4.123,4.2158,4.0731,3.7343,3.9945,3.924,3.6112,3.9219,3.9148,3.7061,3.9767,3.9375,3.7355,3.9956,4.0949,4.0891,4.0731,4.0188,3.9391,0.0,0.0,0.0,0.0,0.0,0.0,0.0,0.8094,0.8044,0.8601,0.8263,0.8246,0.8933,0.8372,0.8442,0.9648,0.8921,0.0,0.0,0.0,0.0,0.0,0.0,0.0,0.0,1.1593,1.1999,1.2439,1.1866,1.1629,1.1668,1.1308,1.0975,1.0693,1.038,1.0166,0.0,0.0,0.0,0.0,0.0,0.0,0.9758,0.0,0.0,0.0,0.0,0.0,0.0,0.0,0.0,0.0,0.0,0.0,0.0,0.0,1.4167,1.6215,1.7395,1.9541,2.1501,2.1641,2.0528,1.8977,1.744,1.5528,1.3688,1.2139,1.1933,1.1793,1.0955,1.1413,1.2097,1.2702,1.4342,1.6214,1.816,1.9842,2.1848,2.443,2.7295,2.9382,3.0219,3.0072,3.0715,3.272,3.1917,3.1917,3.3209,3.4817,3.6094,3.6902,3.7762,3.8499,3.9101,4.0192,4.076,4.0804,4.1661,4.0272,3.702,3.9755,3.9186,3.6233,3.9185,3.9637,0.0,4.0154,3.9945,3.8692,4.0273,4.0859,4.0805,4.0645,3.9928,3.8893,0.0,0.0,0.0,0.0,0.0,0.0,0.0,0.807,0.8164,0.8673,0.7871,0.7782,0.9198,0.8825,0.8936,1.0029,0.0,0.0,0.0,0.0,0.0,0.0,0.0,0.0,0.0,1.2144,1.2554,1.2514,1.2439,1.2439,1.2479,1.1679,1.1629,1.2179,1.1433,1.1026,0.0,0.0,0.0,0.0,0.0,0.0,0.0,0.0,0.0,0.0,0.0,0.0,0.0,0.0,0.0,0.0,0.0,0.0,0.0,0.0,0.0,0.0,0.0,1.8,1.9554,1.9508,1.7531,1.5521,1.5448,1.2835,0.0,1.1162,1.2413,1.2917,1.1308,1.2892,1.3739,1.1577,1.492,1.7101,1.5049,1.7743,2.0394,2.1678,2.4958,2.7861,2.9792,3.0417,3.1025,3.1785,3.18,3.211,3.2869,3.4447,3.5679,3.6449,3.7359,3.8227,3.9073,4.0136,4.0553,4.0372,4.087,3.9718,3.7226,3.9166,3.884,3.6929,3.9345,4.0516,4.0715,4.0909,4.0914,4.0817,4.0883,4.0785,4.0577,4.0456,3.97,3.8618,0.0,0.0,0.0,0.0,0.0,0.0,0.0,0.0,0.0,0.0,0.7267,0.6971,0.7869,0.7047,0.6976,0.0,0.0,0.0,0.0,0.0,0.0,0.0,0.0,0.0,0.0,1.236,1.2514,1.2514,1.2479,1.2479,1.2514,1.2341,1.2238,1.2195,1.201,1.1831,0.0,0.0,0.0,0.0,0.0,0.0,0.0,0.0,0.0,0.0,1.118,1.118,0.0,0.0,0.0,0.0,0.0,0.0,0.0,0.0,1.1154,1.1915,1.2531,0.0,1.4255,1.3841,1.2858,1.1823,0.0,0.0,0.0,0.0,0.0,0.0,0.0,1.5182,1.6127,1.3838,1.6502,1.8461,1.7332,1.9956,2.1521,2.024,2.4802,2.7753,2.6922,2.9214,3.1115,3.1985,3.1912,3.2221,3.3,3.3972,3.4969,3.6004,3.6912,3.7911,3.9007,3.9155,3.8125,3.6016,3.8885,3.6996,3.1127,3.7383,3.8258,3.5071,3.8787,4.0545,4.0778,4.0877,4.0526,3.9976,4.0633,4.0388,3.9694,4.0266,3.9088,3.7154,0.0,0.0,0.0,0.0,0.0,0.0,0.0,0.0,0.0,0.0,0.0,0.0,0.0,0.0,0.0,0.0,0.0,0.0,0.0,0.0,0.0,0.0,0.0,0.0,1.2246,1.2443,1.2518,1.2459,1.2479,1.2514,1.2514,1.2459,1.2379,1.2257,1.2159,1.2018,0.0,0.0,0.0,0.0,1.1826,0.0,0.0,0.0,0.0,0.0,1.1703,1.1725,0.0,1.0966,1.0733,1.0608,0.0,0.0,0.0,0.0,1.025,1.02,1.0098,1.1043,1.2153,1.2674,1.1468,1.0208,1.0363,0.0,0.0,0.0,0.0,0.0,0.0,1.4765,1.5297,1.4197,1.5684,1.7375,1.8609,2.0242,2.1124,2.057,2.3541,2.5819,2.6399,2.909,3.1185,3.2056,3.202,3.2331,3.3112,3.3698,3.4442,3.5401,3.5989,3.707,3.8718,3.8313,3.6887,3.4514,3.7404,3.6046,3.1217,3.6623,3.7888,3.5902,3.7031,3.8529,4.0091,3.8624,3.8833,4.0114,4.0181,4.0034,3.9791,3.978,3.8436,3.6451,0.0,0.0,0.0,0.0,0.0,0.0,0.0,0.0,0.0,0.0,0.0,0.0,0.0,0.0,0.0,0.0,0.0,0.0,0.0,0.0,0.0,0.0,0.0,1.1876,1.2169,1.2427,1.2503,1.2399,1.2459,1.2495,1.2459,1.2383,1.2307,1.2282,1.2096,1.197,0.0,0.0,1.1747,1.1703,1.1659,0.0,0.0,0.0,0.0,0.0,0.0,0.0,0.0,1.1126,1.0842,1.0687,1.0529,0.0,0.0,0.0,0.0,0.0,0.8565,0.9831,1.1565,1.3178,1.1344,0.9582,1.1104,0.0,0.0,0.0,0.0,0.0,1.3572,1.4212,1.4393,1.3865,1.4439,1.6145,1.9528,2.0272,2.0776,2.1609,2.2714,2.4435,2.694,2.945,3.1255,3.2091,3.2108,3.2457,3.3204,3.3442,3.3881,3.4641,3.4887,3.59,3.7789,3.7404,3.6165,3.4164,3.63,3.5913,3.342,3.6306,3.7649,3.7548,3.5732,3.6617,3.9141,3.6587,3.7438,4.0255,3.9762,3.9714,3.9877,3.9119,3.7747,3.591,0.0,0.0,0.0,0.0,0.0,0.0,0.0,0.0,0.0,0.0,0.0,0.0,0.0,0.0,0.0,0.0,0.0,0.0,0.0,0.0,0.0,0.0,1.119,1.1666,1.2107,1.221,1.2307,1.2399,1.2459,1.2439,1.2343,1.2483,1.2427,1.2205,1.206,1.197,1.1891,1.1826,1.1747,1.1681,1.1445,0.0,0.0,0.0,0.0,0.0,0.0,0.0,0.0,1.1621,1.1192,1.0578,0.9836,0.0,0.0,0.0,0.0,0.0,0.8765,0.9429,1.0349,1.1309,0.9866,0.866,1.0361,0.847,0.0,0.0,0.0,0.0,1.4673,1.8041,1.911,1.4468,1.6146,1.8815,2.1065,2.2809,2.3311,2.189,2.5763,2.8159,2.7201,2.9501,3.141,3.2301,3.2267,3.2528,3.3331,3.2791,3.2756,3.3509,3.3898,3.4455,3.5175,3.5853,3.4932,3.2518,3.5754,3.5325,3.1809,3.5889,3.7467,3.7025,3.8233,3.8685,3.8641,3.949,3.9325,3.8624,3.9784,3.9336,3.8061,3.8428,3.7156,3.4594,0.0,0.0,0.0,0.0,0.0,0.0,0.0,0.0,0.0,0.0,0.0,0.0,0.0,0.0,0.0,0.0,0.0,0.0,0.0,0.0,0.0,1.1001,1.1227,1.1505,1.1876,1.1997,1.2081,1.2179,1.2262,1.2287,1.2287,1.2347,1.2307,1.2179,1.2054,1.1912,1.1805,1.1747,1.1703,1.1615,0.0,0.0,0.0,0.0,0.0,0.0,0.0,0.0,0.0,0.0,1.1031,1.0629,0.9849,0.0,0.0,0.0,0.0,0.0,0.7477,0.8064,0.9446,1.2499,1.1255,1.0218,1.3734,1.0949,0.907,0.0,0.0,1.1445,1.466,1.6314,1.7051,1.6588,1.9916,2.246,2.2285,2.3348,2.4026,2.3631,2.6379,2.8176,2.7883,3.0227,3.1985,3.2371,3.2354,3.2477,3.2844,3.2126,3.2122,3.3048,3.2952,3.3057,3.3414,3.4512,3.4086,3.2182,3.4505,3.4088,3.1362,3.4786,3.6213,3.599,3.6095,3.6733,3.765,3.7003,3.7535,3.8779,3.9027,3.867,3.786,3.6416,3.4046,3.1122,0.0,0.0,0.0,0.0,0.0,0.0,0.0,0.0,0.0,0.0,0.0,0.0,0.0,0.0,0.0,0.0,0.0,0.0,0.0,0.0,1.0859,1.1227,1.1279,1.1452,1.1725,1.179,1.1891,1.1991,1.2081,1.2169,1.2343,1.2266,1.2221,1.2195,1.2091,1.1912,1.1747,1.1703,1.1681,1.1593,0.0,0.0,0.0,0.0,0.0,0.0,0.0,0.0,0.0,0.0,0.0,0.0,0.0,0.0,0.0,0.7618,0.6989,0.6443,0.6463,0.7004,0.8637,1.3089,0.0,1.1286,1.6741,1.3023,0.9974,1.5489,1.2722,1.0613,1.4904,1.4881,1.5383,1.9033,2.2901,2.5091,2.4163,2.4512,2.5213,2.6101,2.7246,2.8278,2.8982,3.1078,3.2318,3.2193,3.2141,3.2071,3.1962,3.122,3.1186,3.2018,3.1921,3.1965,3.2166,3.3586,3.3657,3.2443,3.3713,3.3552,3.2197,3.4203,3.5209,3.5341,3.4497,3.523,3.6913,3.5347,3.6475,3.9119,3.8388,3.7897,3.7246,3.4549,3.1588,2.8782,0.0,0.0,0.0,0.0,0.0,0.0,0.0,0.0,0.0,0.0,0.0,0.0,0.0,0.0,0.0,0.0,0.0,0.0,0.0,0.0,1.1094,1.076,1.1164,1.1519,1.1783,1.1681,1.1747,1.1991,1.2081,1.2226,1.2479,1.2343,1.2266,1.2205,1.2117,1.2012,1.1869,1.1747,1.1703,1.1659,1.1407,0.0,0.0,0.0,0.0,0.0,0.0,0.0,0.0,0.0,0.0,0.0,0.0,0.0,0.8062,0.742,0.6753,0.6325,0.6828,0.7094,0.7917,1.0772,0.9863,1.001,1.6721,1.2527,0.0,1.4841,1.4818,1.4337,1.6263,1.7073,1.8399,2.1299,2.3207,2.5176,2.7652,2.8044,2.8354,2.9093,3.004,3.0646,3.0715,3.1742,3.214,3.1515,3.1396,3.1129,3.0561,2.9781,2.9402,2.9455,3.0747,3.1452,3.1477,3.3356,3.3869,3.3056,3.4148,3.4756,3.4932,3.5037,3.5302,3.5712,3.6502,3.6811,3.6935,3.8297,3.8895,3.889,3.851,3.7104,3.5074,3.3609,3.1693,2.9814,0.0,0.0,0.0,0.0,0.0,0.0,0.0,0.0,0.0,0.0,0.0,0.0,0.0,0.0,0.0,0.0,0.0,0.0,0.0,0.0,1.101,1.1296,1.1384,1.1421,1.1497,1.1407,1.146,1.1681,1.1876,1.206,1.2257,1.2117,1.2081,1.2138,1.2033,1.1891,1.1783,1.1783,1.1637,1.1429,1.1155,1.121,0.0,0.0,0.0,0.0,0.0,0.0,0.0,0.0,1.0204,0.9629,0.8865,0.8067,0.7354,0.6854,0.6579,0.65,0.6748,0.6996,0.8276,1.2806,1.0935,0.0,0.0,1.3668,1.1458,1.6979,1.5431,1.358,1.5274,1.8751,2.1725,2.268,2.4669,2.6493,2.756,2.8109,2.8506,2.8782,2.9625,3.0351,3.0837,3.0919,3.1034,3.1308,3.0917,3.0592,3.0353,2.9603,2.9819,3.1129,3.0691,3.1072,3.2446,3.3235,3.3499,3.3293,3.4199,3.4851,3.5197,3.5341,3.5512,3.5745,3.6742,3.705,3.6956,3.8171,3.8757,3.879,3.7666,3.6151,3.4383,3.2845,3.1142,2.9445,0.0,0.0,0.0,0.0,0.0,0.0,0.0,0.0,0.0,0.0,0.0,0.0,0.0,0.0,0.0,0.0,0.0,0.0,0.8849,0.9962,1.0855,1.1318,1.1407,1.1399,1.1307,1.1307,1.1339,1.1437,1.1762,1.197,1.2112,1.1991,1.1991,1.2133,1.197,1.1848,1.1747,1.1681,1.1505,1.1293,1.1015,1.1048,0.0,0.0,0.0,0.0,0.0,0.0,0.0,0.0,0.9865,0.927,0.8741,0.7863,0.6993,0.6722,0.6651,0.6681,0.6871,0.7021,0.83,1.3153,0.0,0.0,1.6069,1.4362,1.2888,1.7984,1.7256,1.5971,1.6885,2.0376,2.3147,2.3143,2.4955,2.6556,2.723,2.773,2.804,2.804,2.8812,2.957,3.0141,3.0064,3.0173,3.06,3.0203,2.9875,2.9686,2.9483,2.9916,3.1038,3.0666,3.1133,3.2567,3.3088,3.3521,3.3904,3.4528,3.4992,3.5302,3.5519,3.5659,3.5795,3.648,3.6947,3.7278,3.7901,3.8161,3.7997,3.6592,3.5196,3.3827,3.2439,3.094,2.9383,0.0,0.0,0.0,0.0,0.0,0.0,0.0,0.0,0.0,0.0,0.0,0.0,0.0,0.0,0.0,0.0,0.0,0.0,0.8973,1.0058,1.0664,1.0592,1.1164,1.1421,1.1307,1.1421,1.1421,1.1307,1.1696,1.197,1.2091,1.2033,1.207,1.219,1.2006,1.1921,1.1869,1.1482,1.131,1.1287,1.1001,1.1015,1.1215,0.0,0.0,0.0,0.0,0.0,0.0,0.0,0.9592,0.9049,0.8764,0.795,0.7107,0.7198,0.6983,0.6799,0.7301,0.7227,0.7765,1.0931,0.0,0.0,1.6308,1.4318,1.2497,1.7325,2.0702,2.2566,2.1823,2.1925,2.2279,2.2731,2.366,2.5017,2.7012,2.7299,2.7299,2.7299,2.7999,2.8531,2.8679,2.9452,2.9748,2.9231,2.9189,2.8927,2.8336,2.924,2.9286,2.8245,3.0538,3.1689,3.1523,3.2893,3.4055,3.4978,3.5193,3.5353,3.5507,3.5562,3.571,3.5908,3.5903,3.6654,3.7893,3.7894,3.7334,3.6394,3.5403,3.4315,3.3187,3.2216,3.1114,2.9829,0.0,0.0,0.0,0.0,0.0,0.0,0.0,0.0,0.0,0.0,0.0,0.0,0.0,0.0,0.0,0.0,0.0,0.0,0.8601,0.9393,0.9982,1.0245,1.0831,1.1132,1.1085,1.1132,1.1192,1.1239,1.1384,1.1541,1.1681,1.1659,1.1768,1.2052,1.3463,1.3249,1.1916,1.3065,1.2696,1.1265,1.0736,1.0691,1.0897,0.0,0.0,0.0,0.0,0.0,0.0,0.0,0.0,0.0,0.8139,0.7328,0.6849,0.8808,0.8083,0.7096,0.9213,0.8558,0.809,1.1476,1.1299,1.1122,0.0,1.4255,0.0,1.8362,2.0495,2.1213,1.9735,2.2439,2.4444,2.2961,2.4577,2.6299,2.7198,2.7299,2.7299,2.7299,2.7535,2.7976,2.8644,2.846,2.8483,2.8951,2.8458,2.818,2.8273,2.846,2.8874,2.9587,2.9521,3.0215,3.1771,3.225,3.2769,3.3325,3.4141,3.4879,3.5591,3.5742,3.5841,3.5893,3.5795,3.6261,3.707,3.7178,3.688,3.633,3.5445,3.3958,3.2272,3.2089,3.0616,2.8493,0.0,0.0,0.0,0.0,0.0,0.0,0.0,0.0,0.0,0.0,0.0,0.0,0.0,0.0,0.0,0.0,0.0,0.0,0.0,0.8993,0.9484,0.9716,1.053,1.1015,1.1155,1.1132,1.1108,1.1108,1.1239,1.1362,1.1468,1.1512,1.1681,1.1951,1.3142,1.2998,1.1858,1.2711,1.2374,1.1227,1.047,1.036,1.0643,0.0,0.0,0.0,0.0,0.0,0.0,0.0,0.0,0.0,0.7694,0.0,0.7939,0.8718,0.8703,0.8826,1.0672,1.0215,1.0195,1.4169,1.3654,1.2584,1.4195,1.5204,1.6707,2.0073,2.1793,2.2282,2.0951,2.3506,2.5382,2.3918,2.5363,2.6842,2.725,2.7299,2.7299,2.7299,2.7362,2.7598,2.8129,2.7823,2.7809,2.8343,2.7952,2.8017,2.8693,2.8655,2.9053,3.0058,2.9533,3.012,3.1923,3.2088,3.2519,3.3236,3.389,3.4558,3.5216,3.5338,3.5596,3.5932,3.6021,3.6242,3.653,3.6362,3.6149,3.5871,3.4851,3.3502,3.2145,3.2201,3.0335,2.759,0.0,0.0,0.0,0.0,0.0,0.0,0.0,0.0,0.0,0.0,0.0,0.0,0.0,0.0,0.0,0.0,0.0,0.0,0.0,0.0,0.9112,0.9112,1.0196,1.0991,1.1353,1.1307,1.1215,1.1038,1.1192,1.1293,1.1378,1.149,1.1659,1.1869,1.1962,1.1925,1.1762,1.1348,1.1183,1.1119,1.0108,0.9932,1.0213,0.9894,0.0,0.0,0.0,0.0,0.0,0.0,0.0,0.0,0.7294,0.8358,0.9429,0.7722,0.9101,1.1302,1.1888,1.2072,1.3153,1.7517,1.6082,1.4068,1.59,1.7024,1.8625,2.1952,2.3683,2.4522,2.4084,2.4799,2.5379,2.5246,2.6068,2.6842,2.725,2.7282,2.7299,2.733,2.7345,2.7407,2.7407,2.7513,2.7587,2.7587,2.763,2.8135,2.9237,2.9339,2.9485,2.9842,3.012,3.0764,3.1877,3.2146,3.2839,3.3974,3.4052,3.4244,3.4471,3.4561,3.51,3.5971,3.6331,3.6389,3.6162,3.546,3.5194,3.5136,3.3925,3.3049,3.2477,3.2327,3.0053,2.6932,0.0,0.0,0.0,0.0,0.0,0.0,0.0,0.0,0.0,0.0,0.0,0.0,0.0,0.0,0.0,0.0,0.0,0.0,0.0,0.0,0.8502,0.8502,0.9536,1.0443,1.1155,1.1085,1.1155,1.1307,1.1085,1.1015,1.1085,1.1132,1.1347,1.1821,1.3475,1.3295,1.1851,1.2839,1.2159,1.037,0.9454,0.88,0.8418,0.8645,0.8537,0.0,0.0,0.0,0.0,0.0,0.0,0.0,0.6385,0.6317,0.6865,0.902,1.0349,1.1626,1.3916,1.371,1.3168,1.4453,1.4239,1.4692,1.848,1.9632,2.0454,2.2373,2.228,2.2343,2.3919,2.4543,2.4917,2.5313,2.6184,2.694,2.7313,2.7313,2.733,2.7393,2.7376,2.7407,2.7465,2.7452,2.7438,2.7438,2.7407,2.7759,2.8568,2.822,2.8443,2.9411,2.919,2.9683,3.0973,3.1295,3.1672,3.2083,3.2991,3.346,3.3602,3.4296,3.4935,3.5519,3.5629,3.5666,3.5611,3.4657,3.453,3.4762,3.347,3.2532,3.1864,3.158,2.9136,2.5903,0.0,0.0,0.0,0.0,0.0,0.0,0.0,0.0,0.0,0.0,0.0,0.0,0.0,0.0,0.0,0.0,0.0,0.0,0.0,0.0,0.0,0.8711,0.9534,1.0121,1.0383,1.0643,1.0849,1.1062,1.0897,1.0849,1.0944,1.1038,1.1233,1.1556,1.2754,1.2698,1.1719,1.2119,1.1543,1.0263,0.9305,0.8688,0.838,0.8387,0.8273,0.8117,0.837,0.0,0.0,0.0,0.0,0.0,0.0,0.0,0.7606,0.8317,0.9723,1.1423,1.3165,1.3968,1.4694,1.6204,1.6729,1.7273,1.8879,2.0506,2.1831,2.2295,2.2518,2.2999,2.4416,2.4891,2.523,2.5749,2.6588,2.7123,2.6961,2.6879,2.6757,2.6469,2.673,2.6909,2.6909,2.7213,2.7407,2.7407,2.7526,2.7918,2.8711,2.8167,2.8434,2.9683,2.9022,2.9411,3.0977,3.1168,3.1369,3.1665,3.269,3.339,3.3816,3.4703,3.5203,3.5359,3.5252,3.5228,3.5195,3.4529,3.4345,3.4437,3.339,3.2446,3.1679,3.1334,2.8913,2.5802,0.0,0.0,0.0,0.0,0.0,0.0,0.0,0.0,0.0,0.0,0.0,0.0,0.0,0.0,0.0,0.0,0.0,0.0,0.0,0.0,0.0,0.9073,0.9623,0.983,0.9728,1.021,1.0597,1.0801,1.0681,1.0917,1.143,1.165,1.1742,1.1799,1.1969,1.1886,1.1534,1.0831,1.0425,1.0182,0.9257,0.879,0.8646,0.8344,0.8219,0.8192,0.8192,0.8083,0.7821,0.7014,0.0,0.0,0.0,0.0,0.8728,0.7068,0.8725,1.1173,1.1681,1.3725,1.6353,1.8961,1.9565,1.9341,1.8633,2.059,2.2445,2.23,2.342,2.4525,2.4896,2.5392,2.5843,2.6276,2.6964,2.721,2.6562,2.6306,2.6037,2.548,2.5897,2.6208,2.6167,2.6718,2.7039,2.7039,2.7315,2.7819,2.8543,2.8191,2.8482,2.9619,2.9085,2.95,3.11,3.113,3.1367,3.1826,3.2576,3.3414,3.4333,3.5024,3.529,3.5252,3.5098,3.4936,3.4754,3.4533,3.4323,3.4024,3.3345,3.2501,3.1564,3.0955,2.8724,2.5908,0.0,0.0,0.0,0.0,0.0,0.0,0.0,0.0,0.0,0.0,0.0,0.0,0.0,0.0,0.0,0.0,0.0,0.0,0.6178,0.0,0.0,0.8755,0.8958,0.9413,1.0197,1.0323,1.0681,1.1215,1.0629,1.144,1.3516,1.3769,1.3824,1.3754,1.4112,1.3247,1.1468,1.0907,1.0166,0.9339,0.8961,0.8237,0.7361,0.7491,0.7467,0.7361,0.7361,0.7337,0.7227,0.6717,0.651,0.0,0.0,0.0,0.6486,0.6833,0.902,1.1432,1.1796,1.38,1.6293,1.841,1.7693,1.7106,1.9482,2.0509,2.1448,2.306,2.4196,2.4813,2.454,2.5364,2.6202,2.6446,2.6683,2.6775,2.6669,2.6016,2.5515,2.5473,2.5507,2.555,2.5587,2.5655,2.567,2.567,2.5762,2.6012,2.6489,2.7036,2.7364,2.7438,2.869,2.9689,3.0337,3.0452,3.0984,3.1884,3.1836,3.2711,3.4392,3.4051,3.4295,3.5052,3.5125,3.4672,3.3876,3.4123,3.3852,3.3208,3.2718,3.2104,3.1349,2.9577,2.7604,2.562,0.0,0.0,0.0,0.0,0.0,0.0,0.0,0.0,0.0,0.0,0.0,0.0,0.0,0.0,0.0,0.1818,0.2291,0.347,0.5711,0.7041,0.7948,0.84,0.8811,0.9128,0.9398,0.9725,1.0135,1.0678,1.0545,1.2102,1.5263,1.5891,1.5372,1.3938,1.5445,1.428,1.1281,1.2141,1.1255,0.9305,0.9191,0.8692,0.8006,0.7964,0.7921,0.7816,0.745,0.7315,0.7237,0.6682,0.6444,0.6305,0.5928,0.0,0.0,0.0,0.784,0.9817,1.3124,1.382,1.4728,1.9401,1.8223,1.6696,1.9705,2.0561,2.118,2.285,2.4362,2.5556,2.6052,2.6283,2.6637,2.7225,2.7073,2.6703,2.6207,2.5454,2.4825,2.4491,2.466,2.4848,2.4882,2.5227,2.5517,2.5691,2.5888,2.6038,2.6098,2.6688,2.6958,2.6784,2.7606,2.8512,2.9529,2.9597,3.0401,3.194,3.1363,3.1896,3.3383,3.3182,3.379,3.4977,3.4715,3.4386,3.4032,3.3989,3.3515,3.2718,3.2281,3.1721,3.097,2.8856,2.7235,2.5903,0.0,0.0,0.0,0.0,0.0,0.0,0.0,0.0,0.0,0.0,0.0,0.0,0.0,0.0,0.0,0.0,0.1394,0.2494,0.5005,0.6426,0.7337,0.7802,0.8507,0.8822,0.8662,0.9143,0.9647,1.0122,1.0422,1.2306,1.5661,1.6872,1.6384,1.4578,1.6405,1.5484,1.2613,1.3474,1.2508,1.0401,1.0416,0.987,0.8997,0.8764,0.8682,0.8597,0.7822,0.754,0.7457,0.6876,0.6606,0.6462,0.6179,0.626,0.0,0.0,0.0,0.8551,1.3538,1.3436,1.3292,1.9144,1.7949,1.6047,1.878,1.9861,2.0702,2.2156,2.4418,2.6358,2.7192,2.6968,2.6975,2.7872,2.7263,2.6436,2.5798,2.4889,2.4123,2.3634,2.3922,2.4211,2.4266,2.4768,2.5187,2.5443,2.5716,2.5803,2.5698,2.6321,2.6523,2.6209,2.7031,2.788,2.8741,2.9224,3.02,3.1696,3.0885,3.1125,3.2279,3.2184,3.2937,3.4302,3.4298,3.4288,3.4268,3.3914,3.3356,3.264,3.2105,3.1611,3.0955,2.8434,2.7076,2.6138,0.0,0.0,0.0,0.0,0.0,0.0,0.0,0.0,0.0,0.0,0.0,0.0,-0.1461,-0.1377,-0.042,0.2096,0.2321,0.2807,0.3918,0.5711,0.6745,0.6773,0.7779,0.0,0.8512,0.8899,0.9372,0.9906,1.0247,1.1588,1.3873,1.5764,1.6655,1.6681,1.7093,1.7088,1.6661,1.4583,1.3487,1.3095,1.3155,1.1891,0.9907,0.9566,0.9485,0.9395,0.8345,0.7973,0.7878,0.7343,0.712,0.7069,0.7112,0.7173,0.7276,0.0,0.0,0.0,1.1867,1.2305,1.2605,1.6025,1.5298,1.418,1.6016,1.7839,1.9584,2.1008,2.4437,2.7148,2.6977,2.6916,2.7147,2.7974,2.6774,2.5745,2.5709,2.4444,2.3529,2.3517,2.3529,2.3643,2.3889,2.3946,2.4069,2.4266,2.4358,2.4462,2.4586,2.5512,2.5744,2.5095,2.7668,2.8743,2.8053,2.9815,3.0761,3.0857,3.0231,3.0428,3.135,3.0847,3.1246,3.2447,3.4128,3.464,3.4285,3.3782,3.3502,3.3255,3.2483,3.2044,3.1477,2.832,2.6814,2.6002,0.0,0.0,0.0,0.0,0.0,0.0,0.0,0.0,0.0,0.0,0.0,0.0,0.0,-0.2321,-0.1194,0.0925,0.2503,0.3677,0.4442,0.512,0.586,0.6655,0.7068,0.7656,0.8484,0.8473,0.8903,0.9764,0.997,1.1349,1.3793,1.4649,1.5741,1.7061,1.9793,1.8833,1.5244,1.7229,1.557,1.1884,1.4699,1.3621,1.0439,1.1618,1.2053,1.1712,0.9218,0.9143,0.9942,0.7888,0.7034,0.6868,0.6969,0.7061,0.7185,0.753,0.7724,0.8467,1.1371,1.1266,1.1298,1.5352,1.4455,1.3313,1.6136,1.8182,1.9584,1.9973,2.3569,2.6435,2.5638,2.6659,2.7695,2.7922,2.6685,2.5691,2.5709,2.4426,2.3539,2.3611,2.3585,2.3656,2.3935,2.3959,2.4099,2.4435,2.3512,2.3457,2.4633,2.4149,2.4145,2.4853,2.6606,2.7973,2.8885,3.015,3.0774,3.0732,3.0344,3.0228,3.0399,3.0656,3.0962,3.1374,3.2702,3.3143,3.2831,3.2651,3.2313,3.1805,3.1405,3.1233,3.0852,2.8257,2.72,2.6661,0.0,0.0,0.0,0.0,0.0,0.0,0.0,0.0,0.0,0.0,0.0,0.0,0.0,0.0,-0.1335,0.0726,0.272,0.4032,0.4441,0.4736,0.5254,0.6089,0.6606,0.7268,0.8125,0.8181,0.864,0.9579,0.9805,1.0887,1.2706,1.37,1.4741,1.5986,1.9435,1.9142,1.6254,1.9104,1.7824,1.4066,1.6319,1.5222,1.2348,1.3259,1.3408,1.2901,1.1414,1.131,1.1684,1.0285,0.9115,0.8252,0.8364,0.7917,0.7407,0.7768,0.7911,0.8409,1.0428,1.0174,1.0154,1.35,1.2909,1.2219,1.4842,1.7437,1.9202,1.8977,2.2753,2.5788,2.4811,2.5893,2.7068,2.7508,2.6331,2.5376,2.5326,2.4064,2.328,2.3638,2.3629,2.3743,2.4058,2.4098,2.4281,2.4728,2.3776,2.3714,2.4936,2.4033,2.4075,2.539,2.6516,2.7848,2.9428,3.0058,3.0474,3.07,3.0336,3.0081,2.9901,3.0265,3.0404,3.0451,3.1557,3.2102,3.2207,3.1801,3.1401,3.1041,3.0396,3.0182,3.0046,2.7828,2.6916,2.6351,0.0,0.0,0.0,0.0,0.0,0.0,0.0,0.0,0.0,-0.2526,0.0,0.0,0.0,0.0,0.0,0.176,0.3081,0.3801,0.3813,0.4605,0.5053,0.4988,0.6365,0.7207,0.7394,0.8021,0.8662,0.9301,0.9753,1.0158,1.0563,1.2926,1.3798,1.3519,1.5726,1.7906,1.9943,1.9966,1.9933,1.9691,1.8133,1.6704,1.5459,1.4398,1.3413,1.2812,1.4874,1.4404,1.3011,1.4495,1.3327,1.1293,1.129,0.9784,0.8013,0.8135,0.8211,0.8364,0.0,0.0,0.0,1.0258,1.0554,1.0867,1.1902,1.534,1.8232,1.7954,2.2007,2.5354,2.4537,2.4635,2.5279,2.6675,2.5665,2.4647,2.4587,2.341,2.2812,2.354,2.3607,2.3792,2.4283,2.4336,2.4548,2.5057,2.5053,2.5128,2.5354,2.5236,2.562,2.6641,2.7569,2.8509,2.9489,2.9509,2.9899,3.0696,3.016,2.9897,2.9886,2.9627,2.9532,2.9655,3.0776,3.1764,3.2526,3.1358,3.1051,3.1147,2.95,2.9049,2.9108,2.7055,2.5884,2.5202,0.0,0.0,0.0,0.0,0.0,0.0,-0.4183,-0.3332,-0.2659,0.0,0.0,0.0,-0.2178,-0.1281,0.053,0.3518,0.3658,0.3799,0.4344,0.4524,0.4679,0.4908,0.5315,0.609,0.7238,0.7404,0.805,0.9232,0.9492,1.0021,1.0718,1.1446,1.1718,1.1711,1.3635,1.4889,1.573,1.8846,1.7684,1.431,1.9914,1.816,1.273,1.7312,1.6799,1.377,1.5182,1.544,1.5082,1.4527,1.2917,1.0866,0.9238,0.839,0.7922,0.7574,0.7428,0.7335,0.7187,0.0,0.0,0.0,0.0,0.0,1.0656,1.3523,1.6046,1.5924,1.9741,2.2888,2.2158,2.4073,2.5505,2.4807,2.4298,2.3988,2.3939,2.3671,2.3581,2.3999,2.404,2.4192,2.461,2.4708,2.4869,2.5157,2.4088,2.3707,2.4351,2.4396,2.4846,2.5803,2.6698,2.7911,2.9488,2.9502,2.99,3.0685,3.017,2.9897,2.9886,2.952,2.9455,2.9621,2.9793,2.9987,3.0245,3.0284,2.9988,2.9266,2.7696,2.7801,2.8592,2.6397,2.5568,2.5415,0.0,0.0,0.0,0.0,0.0,-0.4732,-0.3801,-0.2957,-0.2273,0.0,0.0,0.0,-0.1982,-0.0657,0.0984,0.2788,0.3493,0.4022,0.444,0.4752,0.5042,0.5212,0.5363,0.5998,0.718,0.7316,0.8011,0.9286,0.92,0.9662,1.0594,1.0519,1.0581,1.0783,1.1936,1.2512,1.28,1.6101,1.6579,1.5506,1.9346,1.8852,1.6177,1.9211,1.8762,1.6673,1.7846,1.7821,1.7188,1.6691,1.4656,1.2092,1.0655,0.9304,0.8377,0.9014,0.8343,0.7324,0.7092,0.6929,0.7023,0.785,0.0,0.0,1.0372,1.3293,1.5885,1.6041,1.9617,2.2317,2.1012,2.2202,2.3066,2.2155,2.199,2.241,2.365,2.3628,2.3694,2.4137,2.4282,2.4452,2.4804,2.4898,2.5049,2.5271,2.41,2.3604,2.4066,2.4462,2.4942,2.5479,2.6396,2.7547,2.894,2.8964,2.9483,3.0537,3.0094,2.9836,2.9691,2.9507,2.9372,2.93,2.932,2.897,2.8415,2.8883,2.8694,2.7935,2.6751,2.6693,2.7144,2.5764,2.5079,2.4754,0.0,0.0,-0.6601,-0.5772,-0.4711,-0.3885,-0.3551,-0.2589,-0.1828,0.0,-0.1496,-0.1324,-0.1084,0.0047,0.086,0.0998,0.2756,0.3986,0.4286,0.5043,0.5567,0.5734,0.6029,0.6523,0.7238,0.7598,0.8322,0.9396,0.8996,0.9322,1.0272,1.0108,1.0221,1.0559,0.0,0.0,1.1034,1.2682,1.5832,1.9598,1.7751,1.9046,2.1994,2.058,1.9869,1.9763,2.1263,2.0457,1.8769,1.9308,1.7241,1.4299,1.3494,1.1246,0.9245,1.0941,0.976,0.7907,0.7865,0.726,0.6987,0.8245,0.8633,0.0,1.0402,1.3482,1.6203,1.6816,1.9864,2.1908,2.0117,1.9527,1.9266,1.9119,1.9242,2.0321,2.3106,2.3381,2.3425,2.3832,2.4281,2.4689,2.493,2.5015,2.5137,2.5395,2.458,2.4115,2.4219,2.488,2.5284,2.5375,2.6344,2.7285,2.8197,2.821,2.8913,3.029,3.0027,2.972,2.94,2.953,2.935,2.9005,2.9219,2.8481,2.7217,2.7419,2.7333,2.6975,2.6176,2.5742,2.5453,2.509,2.4337,2.3636,0.0,0.0,-0.5911,-0.5254,-0.4452,-0.3694,-0.2988,-0.1913,-0.1183,-0.1136,-0.0981,-0.0524,0.0385,-0.0117,0.0238,0.2156,0.1617,0.2087,0.4234,0.4182,0.4641,0.5882,0.5944,0.6493,0.7656,0.7608,0.8178,0.9475,0.9434,0.9686,1.0235,1.0605,1.0821,1.0889,0.0,1.08,1.1153,1.1183,1.2995,1.6055,1.8952,1.9491,1.9,2.2797,2.1217,1.7371,2.0557,1.9885,1.7415,1.7102,1.6803,1.5785,1.1629,1.0607,1.0535,0.8483,0.7969,0.7973,0.7604,0.734,0.7231,0.7567,0.8216,0.0,0.8956,1.0171,1.1764,1.3633,1.4662,1.5477,1.6277,1.7074,1.7374,1.6704,1.729,1.8437,2.0129,2.2654,2.3679,2.1985,2.374,2.5124,2.529,2.535,2.542,2.5479,2.4083,2.3558,2.4325,2.3864,2.3895,2.4589,2.5484,2.6673,2.8197,2.82,2.8915,3.029,3.0027,2.972,2.94,2.9436,2.945,2.942,2.892,2.8306,2.761,2.6857,2.6587,2.6481,2.5066,2.5149,2.5892,2.3852,2.3301,2.3577,-0.6078,-0.6749,-0.6193,-0.5502,-0.4381,-0.342,-0.3019,-0.1775,-0.0892,-0.0892,-0.0668,-0.0294,0.0235,-0.0228,-0.0138,0.1063,0.0886,0.1259,0.2613,0.3429,0.427,0.5215,0.5632,0.6366,0.7482,0.7694,0.828,0.9239,0.9463,0.0,0.0,0.0,1.0675,1.1222,1.0613,1.0827,1.1534,1.0532,1.1875,1.4949,1.7926,1.939,2.0182,2.3599,2.2925,2.027,2.1416,2.0064,1.7501,1.6225,1.6132,1.6173,1.394,1.2148,1.0697,0.9926,0.8775,0.778,0.7951,0.7692,0.7453,0.7933,0.8396,0.0,0.0,1.0431,1.1932,1.3104,1.424,1.4945,1.4672,1.5066,1.5304,1.4877,1.5236,1.5797,1.6466,2.0245,2.3012,2.3122,2.4418,2.5177,2.4819,2.483,2.4694,2.4336,2.393,2.3908,2.4362,2.3981,2.4157,2.5022,2.5469,2.6247,2.7395,2.792,2.8577,2.9298,2.9669,2.9626,2.9205,2.9259,2.9246,2.911,2.8338,2.7769,2.7303,2.6534,2.6136,2.5946,2.5009,2.498,2.53,2.3949,2.3492,2.3518,-0.4783,-0.6463,-0.6492,-0.5632,-0.4163,-0.3061,-0.2935,-0.1642,-0.0646,-0.058,-0.0313,-0.0158,-0.0164,-0.016,-0.0205,-0.0282,0.0415,0.0917,0.1095,0.2578,0.383,0.4618,0.5206,0.6074,0.7266,0.7846,0.8425,0.9016,0.9454,0.0,0.0,0.0,1.0478,1.1416,1.0733,1.1222,1.2482,1.0986,1.2392,1.572,1.7339,1.9248,2.134,2.3603,2.3767,2.2733,2.1727,2.0127,1.8204,1.618,1.575,1.5976,1.5948,1.3375,1.0627,1.1655,1.0033,0.8059,0.8716,0.8414,0.807,0.8798,0.8978,0.9149,0.0,0.0,0.0,1.2844,1.4323,1.5076,1.3357,1.3087,1.3094,1.3008,1.3142,1.3417,1.3849,1.7516,2.0851,2.2748,2.3561,2.3705,2.3055,2.3448,2.3696,2.3597,2.4079,2.4466,2.4629,2.4488,2.4805,2.5679,2.5701,2.6013,2.6644,2.7522,2.8083,2.8346,2.9153,2.9341,2.8987,2.9134,2.9022,2.8665,2.7921,2.7333,2.6834,2.5986,2.5563,2.5412,2.5328,2.5005,2.4593,2.4247,2.3826,2.3339,-0.1169,-0.4369,-0.5864,-0.4529,-0.3447,-0.2545,-0.1967,-0.0909,-0.0067,0.0224,0.0359,0.038,0.0326,0.0318,0.0262,0.0135,0.022,0.0611,0.1395,0.1504,0.263,0.5095,0.4793,0.5514,0.7598,0.8122,0.859,0.9088,0.9907,1.0409,0.0,0.0,1.0991,1.1242,1.1241,1.2541,1.4592,1.3512,1.5263,1.8884,2.0217,1.9575,1.831,2.2927,2.202,1.8392,1.8846,1.9084,1.8907,1.6943,1.6144,1.5526,1.2873,1.1685,1.1089,1.025,0.9916,0.9808,0.9909,0.9816,0.9742,0.9897,0.999,1.0047,1.0071,0.0,1.0566,1.0565,0.0,1.0897,1.0634,0.0,0.0,1.0447,1.1166,1.2511,1.4713,1.5571,1.5799,1.5328,1.7327,1.872,1.8609,2.0706,2.2967,2.5155,2.4742,2.4702,2.5427,2.4784,2.48,2.5664,2.5697,2.6074,2.6859,2.6987,2.7525,2.8474,2.8534,2.8689,2.8913,2.9099,2.9022,2.8696,2.8212,2.762,2.6813,2.4761,2.4288,2.4948,2.5453,2.5245,2.4584,2.378,2.3271,2.2836,-0.2917,-0.5135,-0.552,-0.4067,-0.3069,-0.2233,-0.1511,-0.0509,0.0247,0.0427,0.027,0.0215,0.0388,0.008,-0.0027,0.0185,0.0062,0.0123,0.0476,0.0901,0.2091,0.4216,0.4363,0.5305,0.7259,0.7655,0.8014,0.8419,0.9484,1.0121,0.0,0.0,1.1062,1.1475,1.1182,1.2692,1.5334,1.3552,1.4821,1.795,1.6998,1.6292,1.6384,2.1956,2.1977,1.8906,1.7783,1.849,1.9512,1.6725,1.657,1.6964,1.3613,1.1789,1.0812,1.0503,0.9212,0.8192,0.95,0.9594,0.9397,0.9775,0.9651,0.952,0.9795,0.9247,0.8841,0.9346,0.0,0.0,0.0,0.0,0.0,0.0,1.0479,1.1098,1.209,1.2292,1.3685,1.7291,1.7796,1.8238,1.925,1.9019,1.9859,2.2441,2.2809,2.3036,2.3371,2.4509,2.533,2.5698,2.5657,2.576,2.5971,2.6818,2.7362,2.7583,2.8372,2.8828,2.8938,2.9007,2.8858,2.8528,2.7933,2.7333,2.6686,2.448,2.4045,2.4778,2.4297,2.4168,2.4105,2.3556,2.3223,2.2714,-0.4579,0.0,-0.5325,-0.3965,-0.2903,-0.1912,-0.0982,-0.0161,0.0384,0.0504,0.0216,0.0102,0.0409,0.0,-0.0142,0.0232,0.0202,0.0101,-0.0067,0.0482,0.1814,0.4009,0.3973,0.4957,0.7249,0.7411,0.7579,0.779,0.9174,0.997,0.0,0.0,0.0,1.1498,1.0996,1.2586,1.5543,1.3747,1.5086,1.8239,1.6317,1.59,1.678,2.04,2.1339,2.0429,1.8256,1.8866,2.0097,1.6564,1.638,1.7035,1.3811,1.1544,1.0207,1.0807,0.9284,0.7752,0.9445,0.9578,0.9275,0.9491,0.9237,0.8993,0.9126,0.8703,0.8405,0.8793,0.9242,0.0,0.0,0.0,1.0194,1.0092,0.0,1.082,1.0741,1.0794,1.2538,1.7072,1.7333,1.7631,1.8874,1.7977,1.8082,1.9941,2.1145,2.1852,2.2017,2.4303,2.559,2.5539,2.5527,2.5441,2.5258,2.629,2.6721,2.6581,2.7769,2.8434,2.8595,2.8825,2.8657,2.8123,2.7644,2.7093,2.6361,2.438,2.3974,2.4425,2.2927,2.2603,2.2967,2.3198,2.2969,2.2285,-0.4492,-0.5788,-0.5291,-0.4255,-0.2927,-0.1545,-0.0155,0.0152,0.0305,0.0555,0.0361,0.0292,0.0561,0.0349,0.0254,0.0461,0.0841,0.0841,0.0303,0.0201,0.1682,0.5174,0.363,0.4363,0.8,0.7816,0.7644,0.7521,0.9323,1.0228,0.0,0.0,0.0,0.0,1.0791,1.2416,1.5286,1.4886,1.7405,2.1615,2.1417,2.1038,2.0351,1.8069,1.9311,2.2034,2.0531,2.055,2.0685,1.6872,1.5251,1.4403,1.2015,1.0247,0.9319,1.0766,1.0711,1.0203,1.0338,1.036,1.014,0.9322,0.9096,0.8853,0.797,0.8942,0.9779,0.8977,1.01,1.0975,1.0166,1.0017,0.9962,0.9829,1.1336,0.0,0.0,1.2437,1.2037,1.07,1.3451,1.547,1.5467,1.7674,1.9106,1.9048,2.075,2.2027,2.2543,2.4378,2.5321,2.5129,2.5239,2.5277,2.5188,2.5056,2.5245,2.5753,2.6385,2.6994,2.7569,2.8561,2.8335,2.7257,2.7695,2.721,2.5988,2.4292,2.3748,2.3703,2.1673,2.0801,2.091,2.2494,2.2384,2.14,0.3339,-0.2,-0.5341,-0.3651,-0.2762,-0.1757,-0.0201,-0.0094,-0.0049,0.0416,0.0078,0.0,0.0487,0.0332,0.0365,0.0778,0.2287,0.2484,0.0823,0.3198,0.493,0.5555,0.6019,0.6987,0.8537,0.8248,0.7901,0.7491,0.847,0.9317,0.0,0.0,0.0,0.0,1.1493,1.3027,1.5613,1.5606,1.7397,2.0176,1.8936,1.7899,1.7189,1.8115,1.8934,1.9704,2.0052,1.9481,1.8316,1.6686,1.5027,1.3307,1.1454,1.0007,0.927,1.0709,0.9854,0.912,1.2204,1.2826,1.3114,1.5303,1.3989,1.2148,1.218,0.9082,0.6688,0.8391,0.8048,0.8148,1.0447,0.9959,0.9396,0.9971,1.0293,1.0331,0.0,1.0205,1.0678,1.1206,1.2579,1.3934,1.5122,1.4474,1.4448,1.5601,1.6279,1.6728,1.6904,2.0756,2.2914,2.285,2.4451,2.5307,2.5329,2.5872,2.597,2.5646,2.6648,2.7257,2.7504,2.7992,2.8019,2.7697,2.7826,2.6747,2.4857,2.3966,2.3469,2.3153,2.1448,2.1318,2.2137,2.2125,2.169,2.1135,0.4415,-0.1737,-0.5943,-0.3823,-0.2904,-0.2,-0.0692,0.0049,0.0445,0.0447,0.1095,0.1567,0.1601,0.2066,0.2612,0.3159,0.4134,0.4282,0.3316,0.4718,0.6098,0.716,0.7336,0.8032,0.9378,0.8677,0.8305,0.8303,0.8646,0.9363,0.0,0.0,0.0,0.0,1.1656,1.2561,1.4257,1.5169,1.6573,1.8127,1.743,1.7086,1.7015,1.782,1.8293,1.8682,1.9511,1.8722,1.7108,1.6102,1.4507,1.2663,1.0951,1.0699,1.1243,1.2158,1.2122,1.2463,1.5433,1.6061,1.6367,1.8465,1.7179,1.4767,1.2347,0.9244,0.7183,0.8303,0.7314,0.7615,1.2071,1.049,0.8826,0.9797,0.9387,0.8902,0.0,0.9763,1.0759,1.1556,1.2923,1.4002,1.4481,1.3925,1.3506,1.3441,1.4037,1.4362,1.4313,1.8943,2.1552,2.1482,2.3927,2.534,2.5576,2.6101,2.6042,2.5393,2.6352,2.6757,2.6616,2.7347,2.7496,2.727,2.7545,2.6524,2.4633,2.4204,2.3449,2.2433,2.1534,2.1118,2.1089,2.1479,2.125,2.0677,-0.0579,-0.4536,-0.6894,-0.4714,-0.3321,-0.2259,-0.1538,0.0541,0.1665,0.0645,0.3235,0.4798,0.3794,0.5354,0.6613,0.7062,0.6174,0.6085,0.7276,0.4942,0.5408,0.9673,0.7635,0.7695,1.0475,0.917,0.8924,0.982,0.9718,1.0257,0.0,0.0,0.0,0.0,1.1308,1.117,1.1512,1.3839,1.5237,1.5983,1.7141,1.8507,1.957,1.702,1.7297,1.9042,1.8986,1.8179,1.6905,1.5052,1.3671,1.2394,1.0653,1.2354,1.4983,1.5019,1.7061,1.9335,1.9505,1.9506,1.9298,1.8558,1.8299,1.6292,0.8886,0.9364,1.0792,0.865,0.7853,0.9163,1.4537,1.1381,0.826,0.9267,0.8602,0.8271,0.9151,1.0954,1.1988,1.1439,1.4092,1.5277,1.3465,1.5771,1.5987,1.2655,1.3978,1.4921,1.4895,1.8819,2.1081,2.1121,2.3469,2.5108,2.591,2.5564,2.5282,2.5014,2.5538,2.5452,2.4957,2.6556,2.6836,2.6135,2.6891,2.6457,2.519,2.484,2.3541,2.1651,2.1673,2.0094,1.8035,2.0557,2.0858,1.9966,0.3783,-0.1446,-0.5606,-0.5059,-0.3651,-0.2389,-0.1862,0.0712,0.2139,0.0827,0.3818,0.5807,0.5153,0.6312,0.6778,0.5861,0.7187,0.7308,0.5471,0.7629,0.9069,0.9238,1.0165,1.073,1.0805,1.086,1.0698,1.0241,0.9539,0.9608,1.044,0.0,0.0,0.0,1.1706,1.2093,1.238,1.532,1.6693,1.6807,1.5428,1.5499,1.6324,1.5747,1.6625,1.8083,1.7255,1.5648,1.3741,1.2647,1.2522,1.2772,1.268,1.4865,1.7554,1.8011,1.6742,1.5729,1.813,1.6846,1.5348,1.7492,1.6207,1.3881,1.1893,0.9133,0.7291,0.8308,0.7356,0.7439,1.1124,0.9175,0.736,0.8355,0.7114,0.6704,0.8656,0.9043,0.9632,1.0956,1.2175,1.3,1.3127,1.3787,1.3662,1.2421,1.257,1.3361,1.4828,1.5808,1.79,2.1283,2.0174,2.1597,2.5929,2.3803,2.3456,2.4993,2.521,2.5179,2.5011,2.5686,2.5893,2.5729,2.6036,2.4819,2.2635,2.3554,2.2701,2.0851,2.0665,1.9591,1.8144,1.8961,1.9486,1.9639,0.5451,-0.036,-0.5019,-0.4776,-0.2747,-0.1056,-0.0737,0.1503,0.3193,0.3355,0.6621,0.8635,0.7701,0.924,1.0047,0.927,0.931,0.9186,0.8739,0.9209,0.9894,1.0762,1.1491,1.153,1.0777,1.1524,1.1542,1.0797,0.9937,0.9953,1.0731,0.0,0.0,0.0,1.0672,1.0803,1.0659,1.3236,1.4779,1.5511,1.486,1.446,0.0,1.6228,1.6369,1.5598,1.5443,1.4263,1.3073,1.5022,1.4504,1.3444,1.5687,1.8423,2.0552,1.9277,1.7727,1.6677,1.776,1.5943,1.4399,1.7098,1.6434,1.4317,1.1334,0.8952,0.7524,0.8086,0.6711,0.6764,1.1233,0.883,0.6164,0.6162,0.5732,0.5983,0.7524,0.8782,0.9802,1.0514,1.1803,1.2637,1.2581,1.309,1.3172,1.2515,1.2477,1.2805,1.3594,1.5567,1.7265,1.8496,1.952,2.0841,2.253,2.1245,2.1552,2.344,2.3442,2.3753,2.4346,2.4704,2.4732,2.456,2.4253,2.3334,2.2122,2.1838,2.1188,2.0318,1.9078,1.8622,1.8538,1.7541,1.773,1.8433,0.4655,-0.0788,-0.4684,-0.38,-0.1388,0.078,0.1756,0.336,0.5037,0.6678,1.0162,1.1979,1.0655,1.2739,1.4147,1.3963,1.167,1.1196,1.3499,1.0133,0.9529,1.2887,1.1938,1.1143,1.0762,1.1604,1.1819,1.1383,1.0473,1.0469,0.0,0.0,0.0,0.0,0.9095,0.8936,0.851,0.978,1.136,1.3123,1.4322,1.397,1.3173,1.7317,1.659,1.3598,1.5168,1.4648,1.3908,1.8398,1.7238,1.4585,1.8437,2.0983,2.1933,1.8691,1.7911,1.7782,1.6333,1.4348,1.3173,1.4896,1.5394,1.3914,0.7988,0.7704,0.8417,0.7405,0.5839,0.6443,1.2248,0.9144,0.5275,0.3987,0.4865,0.5916,0.6528,0.9311,1.1009,1.022,1.2135,0.0,1.1911,1.3025,1.3496,1.2781,1.3016,1.3007,1.2574,1.6349,1.7547,1.5413,1.9804,2.1087,1.8787,1.8971,2.0021,2.1936,2.1475,2.2018,2.3484,2.3789,2.3598,2.3054,2.2112,2.1956,2.2193,2.0056,1.9391,1.9541,1.745,1.7491,1.8501,1.6273,1.6021,1.6782,0.0175,-0.2845,-0.3575,-0.1626,-0.1071,0.0972,0.648,0.8234,0.8514,0.7418,1.0932,1.3205,1.2292,1.3602,1.4038,1.2825,1.2252,1.1932,1.188,1.0936,1.1044,1.2541,1.1912,1.1535,1.158,1.1739,1.1831,1.1707,1.0034,0.9282,0.9431,0.8276,0.7692,0.7662,0.8828,1.0088,1.1174,0.9501,0.9864,1.1534,1.1117,1.0889,1.1338,1.6358,1.7797,1.7696,2.1745,1.9649,1.4875,1.4335,1.5249,1.6751,1.7521,1.668,1.5271,1.4508,1.1368,0.8032,0.7611,0.5219,0.2862,0.3244,0.3238,0.2879,0.1667,0.1857,0.2648,0.4186,0.4436,0.5282,0.8171,0.7564,0.6383,0.5471,0.5838,0.6603,0.7585,0.9186,1.0237,1.0184,1.1598,1.2221,1.1388,1.2211,1.2766,1.279,1.3039,1.385,1.5388,1.4446,1.5366,1.864,1.7509,1.8608,2.227,1.9651,2.0501,2.4836,2.2228,2.1761,2.3258,2.3423,2.296,2.1993,2.1086,2.0411,1.9987,1.9,1.8144,1.7409,1.6764,1.6519,1.6396,1.5566,1.5329,1.5554,0.3667,0.0268,-0.1092,0.0625,0.3071,0.612,1.0014,1.3388,1.4681,1.2498,1.2962,1.4306,1.6392,1.5365,1.469,1.5278,1.3495,1.2421,1.2574,1.1577,1.147,1.2521,1.3732,1.4361,1.4351,1.4434,1.5435,1.7409,1.3084,1.1812,1.336,1.1234,0.999,0.9616,1.1546,1.2592,1.2956,1.3245,1.4044,1.5172,1.6163,1.5863,1.5422,2.0553,2.0633,1.8183,1.9692,1.8448,1.6272,1.76,1.7753,1.7191,1.6041,1.4743,1.296,0.9554,0.6162,0.3342,0.2628,0.0428,-0.1265,0.0064,0.0384,0.0378,0.0497,0.0742,0.1234,0.235,0.3444,0.4646,0.6242,0.6332,0.6313,0.6481,0.615,0.655,0.8502,0.937,1.0013,1.0612,1.2461,1.3078,1.1403,1.2287,1.2855,1.2565,1.2829,1.3412,1.4381,1.4623,1.5384,1.68,1.7225,1.8051,1.9353,1.8319,1.9367,2.2435,2.0994,2.1149,2.2641,2.2359,2.1852,2.1091,1.943,1.8911,1.9077,1.7978,1.6903,1.5995,1.6042,1.6005,1.5816,1.5235,1.5118,1.5176,0.9197,0.5173,0.2932,0.4877,0.8716,1.2083,1.3825,1.7574,1.953,1.7708,1.591,1.6291,2.0076,1.7717,1.6459,1.7909,1.5656,1.4074,1.3801,1.3341,1.3252,1.3657,1.6429,1.7925,1.7861,1.812,1.9697,2.2636,1.7293,1.5672,1.7501,1.4698,1.294,1.2194,1.4779,1.5439,1.4758,1.6953,1.815,1.8644,1.9841,1.9175,1.7886,2.1768,2.0344,1.6216,1.5849,1.605,1.6876,1.9336,1.8248,1.5449,1.3242,1.1567,0.9295,0.3669,0.095,-0.0393,-0.1453,-0.2887,-0.3561,-0.1496,-0.0977,-0.0903,-0.0631,-0.044,-0.0125,0.043,0.2384,0.4344,0.5525,0.5811,0.6158,0.6976,0.6438,0.6655,0.8721,0.9406,1.0008,1.0841,1.277,1.3338,1.1594,1.217,1.2455,1.1991,1.2305,1.2729,1.3215,1.4848,1.5378,1.4562,1.7124,1.7792,1.63,1.7182,1.8514,2.028,1.9871,2.0462,2.188,2.1328,2.0743,2.0016,1.8012,1.7423,1.7795,1.6578,1.5651,1.4942,1.5089,1.5264,1.54,1.4765,1.4765,1.5001,1.3157,1.0167,0.9245,1.3683,1.4805,1.6143,1.9199,1.9353,1.9345,1.9878,2.0081,2.0343,2.0807,2.0718,1.9975,1.8244,1.9485,1.8621,1.442,1.7748,1.9067,1.7211,1.9894,2.1475,2.1581,2.2097,2.2486,2.2774,2.1439,1.9741,1.7734,1.5924,1.4576,1.3824,1.6914,1.789,1.7261,1.7454,1.7705,1.767,1.4265,1.2592,1.2137,1.2224,1.1698,1.1348,1.4552,1.5765,1.5282,1.2046,1.0689,0.9973,0.786,0.367,-0.0967,-0.3618,-0.5167,-0.6104,-0.6371,-0.6387,-0.6258,-0.6014,-0.5779,-0.5662,-0.5646,-0.54,-0.4565,-0.2641,0.0838,0.4085,0.5853,0.6547,0.6776,0.6514,0.7106,0.7523,0.7436,0.8875,1.0093,1.0443,1.0701,1.1099,1.1775,1.0817,1.0353,1.0818,1.1269,1.2448,1.4582,1.3595,1.3684,1.5247,1.5949,1.6811,1.7869,1.7991,1.9676,2.2832,2.0479,2.0017,2.1183,2.101,2.0092,1.8638,1.7423,1.6042,1.4579,1.4231,1.4121,1.4061,1.3812,1.3914,1.4145,1.3623,1.3932,1.4469,1.9163,1.6803,1.5993,1.8367,1.9581,2.0833,2.2498,2.3703,2.4439,2.4559,2.1978,2.1279,2.4229,2.2342,2.1132,2.1726,2.1414,2.011,1.748,1.8959,1.9686,1.9235,2.1979,2.4388,2.6256,2.5749,2.5703,2.6155,2.1411,1.8227,1.6606,1.6532,1.6203,1.5737,1.6565,1.6404,1.5649,1.6949,1.7744,1.7932,1.5594,1.4835,1.5029,1.4107,1.2838,1.1518,1.1616,1.0032,0.7421,0.448,0.5443,0.699,0.2159,-0.1376,-0.4214,-0.6471,-0.7012,-0.6754,-0.6298,-0.6363,-0.6427,-0.6104,-0.6189,-0.624,-0.5884,-0.5608,-0.5092,-0.3988,-0.0759,0.2403,0.4315,0.5567,0.6487,0.7047,0.7597,0.8133,0.8742,0.9533,1.0456,1.1547,1.1601,1.2138,1.3606,1.192,1.1104,1.1955,1.1502,1.1551,1.2439,1.3124,1.4397,1.6308,1.6232,1.748,2.0169,1.9128,1.9608,2.1649,2.0628,2.0247,2.0421,2.0118,1.9049,1.7357,1.6522,1.5361,1.407,1.389,1.389,1.401,1.4172,1.3983,1.3674,1.4222,1.4222,1.3932,2.593,2.3663,2.2677,2.4311,2.4993,2.5261,2.5199,2.6924,2.7842,2.665,2.3786,2.3208,2.6751,2.4481,2.3046,2.3879,2.3342,2.1875,1.9412,2.1038,2.1972,2.1746,2.5194,2.813,3.023,2.9712,2.9471,2.9542,2.4356,2.0787,1.8865,1.87,1.7729,1.6132,1.6556,1.6162,1.5168,1.6616,1.744,1.7561,1.5373,1.474,1.4867,1.2797,1.0592,0.8371,0.6743,0.392,0.0759,-0.0829,0.0585,0.2192,-0.2492,-0.4335,-0.5074,-0.7246,-0.7324,-0.647,-0.5881,-0.5947,-0.6141,-0.5749,-0.5885,-0.599,-0.5678,-0.5264,-0.465,-0.3728,-0.1271,0.1295,0.3317,0.4875,0.6097,0.674,0.7421,0.8139,0.8894,0.9533,1.0403,1.1697,1.1512,1.1984,1.3943,1.2173,1.1239,1.2038,1.1311,1.1084,1.1679,1.2629,1.4012,1.5896,1.5045,1.6223,1.9764,1.8533,1.8745,2.0409,2.0458,2.0206,1.9798,1.8951,1.772,1.6182,1.5332,1.4551,1.3821,1.3761,1.3761,1.3881,1.43,1.3992,1.339,1.4222,1.4112,1.3631,3.3309,3.0455,2.9101,3.2983,3.1523,2.9246,2.7513,2.819,2.7771,2.4734,2.59,2.7115,2.7465,2.7565,2.6476,2.365,2.5622,2.473,1.9255,2.4982,2.7565,2.5243,3.0248,3.3075,3.3042,3.4127,3.3906,3.2247,3.2227,3.0123,2.603,2.3086,1.9082,1.4369,1.7642,1.8363,1.7166,1.6776,1.6566,1.6142,1.1676,0.9606,0.8739,0.48,0.1711,-0.0464,-0.0465,-0.1547,-0.3014,-0.3096,-0.4099,-0.5487,-0.5806,-0.4955,-0.4336,-0.6422,-0.6482,-0.5892,-0.5888,-0.5892,-0.5892,-0.5888,-0.5627,-0.5557,-0.6009,-0.5147,-0.3678,-0.1602,-0.0266,0.1128,0.333,0.4875,0.5728,0.5229,0.6492,0.741,0.691,0.8332,0.9673,1.0363,0.938,0.9557,1.1822,1.0644,0.9862,1.022,1.0333,1.137,1.3544,1.1931,1.1729,1.3482,1.1468,1.205,1.5563,1.5501,1.6973,1.9991,1.985,1.9656,1.9368,1.739,1.6032,1.5051,1.3965,1.3511,1.3511,1.3511,1.3511,1.3511,1.37,1.358,1.3268,1.2981,1.3224,1.37,3.0509,3.147,3.2136,3.0469,3.0428,3.0176,2.8816,2.892,2.861,2.7075,2.8139,2.8801,2.8226,2.777,2.713,2.6212,2.5727,2.5266,2.479,2.5742,2.7381,2.9725,2.9337,2.9603,3.0814,3.0129,2.8017,2.4479,2.5094,2.4147,2.1671,1.6476,1.4449,1.4981,1.1334,0.9393,0.8875,0.8299,0.7955,0.7711,0.5933,0.5058,0.4633,0.3096,0.039,-0.2326,-0.0934,-0.3179,-0.674,-0.5263,-0.5813,-0.7145,-0.7149,-0.6916,-0.671,-0.7354,-0.6684,-0.5686,-0.5686,-0.555,-0.5355,-0.5355,-0.5557,-0.569,-0.5624,-0.4411,-0.3139,-0.2469,-0.0399,0.1532,0.2407,0.3813,0.469,0.4405,0.631,0.774,0.7601,0.8883,1.0051,1.0462,0.9494,0.9829,1.2484,1.1019,1.0424,1.1688,1.0724,1.0403,1.1193,1.2654,1.4141,1.5661,1.5308,1.6211,1.8533,1.699,1.7235,1.9344,1.9303,1.8857,1.8135,1.6946,1.5871,1.4895,1.3914,1.3511,1.3511,1.3511,1.3571,1.3761,1.424,1.4172,1.3855,1.4628,1.4569,1.4103,3.3356,3.4217,3.467,3.244,3.1739,3.0911,2.9331,2.9444,2.9037,2.7199,2.8354,2.9232,2.8941,2.836,2.7929,2.7714,2.6971,2.6855,2.7715,2.7774,2.9036,3.1835,3.0671,3.019,3.0691,2.9717,2.7265,2.3274,2.3155,2.1824,1.9177,1.4477,1.2424,1.2487,0.743,0.4929,0.4538,0.407,0.3682,0.353,0.3061,0.2746,0.2511,0.2198,-0.0234,-0.3254,-0.1943,-0.4344,-0.7927,-0.6674,-0.6528,-0.7076,-0.7466,-0.7617,-0.7513,-0.7504,-0.6932,-0.6285,-0.5892,-0.555,-0.5219,-0.5024,-0.516,-0.5226,-0.4894,-0.3877,-0.2869,-0.2404,-0.0133,0.187,0.2345,0.3551,0.4478,0.4426,0.648,0.8112,0.8045,0.9243,1.0213,1.0438,0.9562,0.9795,1.1972,1.1239,1.1015,1.1984,1.0849,1.0288,1.0704,1.2229,1.3647,1.4931,1.5437,1.6358,1.7826,1.6679,1.6898,1.8483,1.8881,1.8375,1.7113,1.661,1.5641,1.4323,1.3734,1.3511,1.3511,1.3511,1.3571,1.3761,1.4181,1.435,1.4332,1.504,1.4982,1.4628,3.9766,3.7851,3.6559,3.7374,3.4588,3.1482,2.9325,2.9764,2.9147,2.5792,2.7177,2.878,2.9564,2.9382,2.8989,2.8482,2.8979,2.9066,2.8424,3.0599,3.1939,3.1992,3.3446,3.3467,3.1816,3.1666,3.0167,2.7243,2.5518,2.2718,1.8847,1.6333,1.2713,0.8218,0.5906,0.4462,0.3763,0.3448,0.3215,0.3062,0.2668,0.2353,0.2118,0.1806,-0.039,-0.3409,-0.3486,-0.512,-0.7165,-0.7165,-0.6549,-0.5902,-0.6951,-0.73,-0.7308,-0.7145,-0.7346,-0.7414,-0.6378,-0.5877,-0.5488,-0.4906,-0.4579,-0.4244,-0.3971,-0.3413,-0.2666,-0.1539,0.0468,0.2207,0.2811,0.3954,0.4827,0.5024,0.6972,0.8382,0.8142,0.9311,1.0144,1.0132,0.947,0.9501,1.0532,1.1304,1.1544,1.1301,1.0808,1.092,1.1781,1.0993,1.1074,1.2277,1.2915,1.3637,1.4366,1.5023,1.6103,1.7633,1.8655,1.8135,1.6317,1.6384,1.5352,1.3511,1.3511,1.3511,1.3511,1.3563,1.3571,1.3511,1.3821,1.424,1.4647,1.4451,1.4688,1.505,3.407,3.5097,3.5645,3.3118,3.2493,3.1822,3.0202,2.9762,2.9251,2.8146,2.8815,2.9526,2.9937,3.0676,3.1051,3.0831,2.8838,2.8355,3.0136,3.0172,3.0947,3.2799,3.0968,2.9104,2.7429,2.6236,2.557,2.5424,2.4103,2.2842,2.1689,1.5838,1.2473,1.1109,0.5848,0.3528,0.3526,0.3136,0.2904,0.2826,0.2589,0.2276,0.1806,0.047,-0.1325,-0.3344,-0.4431,-0.5684,-0.6714,-0.6714,-0.7011,-0.7271,-0.7319,-0.8481,-0.968,-0.8959,-0.822,-0.7503,-0.6593,-0.6133,-0.5778,-0.4884,-0.4774,-0.4909,-0.4909,-0.2982,-0.12,-0.1267,0.0935,0.3019,0.3487,0.3823,0.4225,0.4761,0.6645,0.7886,0.7436,0.8933,0.9886,0.9193,0.9555,0.9954,1.0238,1.1644,1.2134,1.1296,1.1679,1.2022,1.2245,1.2072,1.2695,1.4315,1.5297,1.5871,1.5949,1.6004,1.6601,1.7775,1.8004,1.7556,1.644,1.5651,1.461,1.3511,1.3511,1.3511,1.3571,1.4043,1.3992,1.3631,1.4638,1.4824,1.4647,1.5497,1.5138,1.4392,3.5984,3.6303,3.6243,3.4116,3.3359,3.273,3.1701,3.0958,3.0312,2.9837,2.9844,2.9942,3.0073,3.106,3.168,3.161,3.0386,3.0323,3.2027,3.1596,3.1673,3.2575,3.0546,2.8344,2.6101,2.5144,2.4224,2.318,2.2502,2.152,2.0274,1.4661,1.1627,1.0639,0.5582,0.324,0.3163,0.3122,0.2901,0.2511,0.2511,0.2199,0.165,0.0627,-0.1171,-0.3193,-0.3663,-0.5068,-0.6483,-0.5941,-0.6468,-0.7331,-0.7289,-0.8571,-0.9991,-0.9826,-0.9456,-0.8903,-0.8103,-0.7171,-0.6086,-0.4871,-0.4697,-0.4678,-0.4405,-0.2406,-0.0475,-0.0201,0.1674,0.336,0.3956,0.3889,0.4223,0.555,0.6619,0.741,0.7739,0.8645,0.9264,0.9177,0.9472,0.989,1.0378,1.1722,1.2297,1.1676,1.1906,1.2342,1.2819,1.2394,1.2896,1.4542,1.5467,1.5756,1.5245,1.5535,1.5918,1.6476,1.6991,1.6711,1.5766,1.5651,1.4836,1.3511,1.3974,1.3914,1.3511,1.3863,1.3992,1.4052,1.4706,1.5108,1.5391,1.6083,1.5843,1.5274,4.0621,3.8981,3.7502,3.7141,3.5346,3.3678,3.291,3.204,3.1259,3.0732,3.0328,3.0136,3.0306,3.1169,3.1738,3.1717,3.2279,3.2811,3.3178,3.3053,3.2445,3.1258,3.051,2.881,2.6013,2.5557,2.3995,2.1188,2.0783,1.9482,1.7328,1.3211,1.044,0.8832,0.5152,0.3231,0.2788,0.3228,0.2947,0.225,0.2329,0.2102,0.1485,0.0858,-0.0934,-0.3115,-0.3042,-0.4448,-0.6251,-0.5165,-0.5619,-0.6703,-0.7089,-0.8168,-0.9421,-1.0185,-1.0399,-1.0176,-0.9371,-0.7705,-0.5996,-0.479,-0.446,-0.4285,-0.3598,-0.2024,-0.0483,0.0673,0.2146,0.336,0.4023,0.3889,0.4334,0.6226,0.6482,0.6844,0.8142,0.8388,0.8741,0.9466,0.9464,0.9791,1.0669,1.1593,1.2089,1.1988,1.1947,1.2285,1.3191,1.2507,1.2647,1.3855,1.4569,1.451,1.3761,1.4569,1.4904,1.4963,1.5871,1.5871,1.5138,1.5756,1.5177,1.3743,1.456,1.4442,1.3683,1.3914,1.4273,1.4647,1.4765,1.5332,1.6197,1.6255,1.6322,1.6332,4.0917,3.9663,3.8331,3.7551,3.5608,3.3615,3.2051,3.0714,2.9921,3.0102,3.0018,3.0292,3.1266,3.2004,3.2376,3.2207,3.23,3.2072,3.1354,3.1145,3.0143,2.8169,2.8032,2.7007,2.4886,2.32,2.1843,2.0714,1.894,1.7697,1.6957,1.1822,0.9286,0.8827,0.477,0.3077,0.3079,0.287,0.2651,0.2505,0.2065,0.1719,0.1218,-0.1513,-0.2755,-0.3426,-0.5838,-0.6318,-0.5702,-0.5547,-0.569,-0.6162,-0.6941,-0.8168,-0.9524,-1.0612,-0.9922,-0.8518,-0.7107,-0.5451,-0.4177,-0.4194,-0.4718,-0.5058,-0.4501,-0.2759,-0.1172,-0.0941,0.1205,0.309,0.336,0.336,0.367,0.484,0.5632,0.6298,0.689,0.8307,0.9241,0.9274,0.99,1.047,1.0611,1.0968,1.1267,1.1399,1.1996,1.2526,1.2887,1.31,1.3331,1.3563,1.3872,1.3881,1.3571,1.4542,1.5051,1.5051,1.5226,1.5631,1.6213,1.466,1.4204,1.4669,1.4944,1.4787,1.446,1.5881,1.6005,1.5294,1.5796,1.5796,1.5584,1.6083,1.5728,1.5138,3.8899,3.7887,3.6825,3.5883,3.4527,3.3274,3.248,3.1431,3.0919,3.1443,3.1106,3.1145,3.2036,3.2317,3.2389,3.2319,3.1675,3.0845,2.9828,2.9719,2.8776,2.6737,2.6113,2.4636,2.2056,2.0901,1.9449,1.7658,1.6375,1.5387,1.4506,1.0186,0.8122,0.7869,0.4364,0.2751,0.2753,0.2639,0.2352,0.2049,0.1897,0.1682,0.1236,-0.0231,-0.1237,-0.2105,-0.3587,-0.4678,-0.5381,-0.5157,-0.5925,-0.687,-0.6772,-0.7407,-0.8288,-0.8784,-0.8944,-0.8468,-0.6065,-0.5064,-0.4754,-0.4759,-0.4991,-0.5092,-0.4673,-0.3006,-0.1333,-0.0471,0.1338,0.2889,0.3159,0.3025,0.3638,0.5677,0.5762,0.6155,0.7757,0.8533,0.8955,0.8905,0.9538,1.0053,1.0238,1.0654,1.1024,1.1413,1.2035,1.2536,1.2789,1.3033,1.3155,1.3216,1.3519,1.3571,1.3511,1.3965,1.4255,1.4255,1.4255,1.4483,1.4895,1.4442,1.4551,1.5002,1.5342,1.5409,1.5371,1.5901,1.6026,1.5911,1.6197,1.6379,1.6457,1.674,1.6503,1.6208,3.7384,3.6453,3.5503,3.4708,3.3732,3.2971,3.2756,3.2174,3.1928,3.2452,3.2246,3.2186,3.2497,3.2486,3.227,3.1855,3.0833,2.9685,2.8418,2.8144,2.725,2.5607,2.4343,2.2423,1.9661,1.9019,1.7454,1.4819,1.4214,1.3193,1.1784,0.9117,0.7427,0.6599,0.4239,0.2845,0.2326,0.2295,0.2085,0.1623,0.1698,0.1549,0.1246,0.0934,-0.0156,-0.1483,-0.2032,-0.3665,-0.5532,-0.5082,-0.5851,-0.6962,-0.6307,-0.6526,-0.707,-0.7149,-0.7924,-0.8111,-0.5222,-0.4838,-0.5214,-0.5071,-0.5154,-0.5163,-0.482,-0.3319,-0.1637,-0.0337,0.1338,0.2688,0.2958,0.2755,0.3524,0.6269,0.5783,0.5971,0.8608,0.8732,0.8583,0.8774,0.9235,0.9612,0.9862,1.0345,1.078,1.124,1.1802,1.2243,1.2552,1.2683,1.2805,1.2928,1.3216,1.339,1.339,1.339,1.339,1.3329,1.3398,1.3571,1.3734,1.4323,1.4895,1.5458,1.585,1.6089,1.6213,1.6291,1.6415,1.6652,1.6652,1.7011,1.7434,1.7334,1.7278,1.7278,3.8234,3.7027,3.5845,3.5713,3.4302,3.29,3.2027,3.1727,3.1626,3.167,3.272,3.3167,3.2397,3.2627,3.2165,3.0487,2.9924,2.8908,2.7089,2.5939,2.496,2.4097,2.2513,2.0815,1.9108,1.7878,1.6213,1.3987,1.308,1.1744,0.998,0.9501,0.7855,0.5219,0.4764,0.3704,0.2189,0.1903,0.176,0.1687,0.1393,0.1264,0.1063,-0.0303,-0.1683,-0.3115,-0.4513,-0.5687,-0.6402,-0.578,-0.5237,-0.4966,-0.5161,-0.5649,-0.6286,-0.6978,-0.7,-0.62,-0.3824,-0.3677,-0.4222,-0.4222,-0.5154,-0.601,-0.5719,-0.4046,-0.2488,-0.2022,0.0334,0.2288,0.2423,0.2356,0.2941,0.5008,0.5024,0.5629,0.8273,0.8459,0.8625,0.9373,0.9448,0.9484,0.9548,0.9843,1.0155,1.0364,1.1115,1.1677,1.1864,1.2367,1.2683,1.2805,1.2989,1.305,1.305,1.305,1.2981,1.2867,1.3172,1.3692,1.4296,1.3855,1.461,1.6384,1.6532,1.6768,1.7013,1.8352,1.8483,1.7788,1.7788,1.7788,1.7799,1.7434,1.7278,1.7278,3.5329,3.4314,3.3607,3.4008,3.3063,3.2292,3.234,3.2318,3.2214,3.2062,3.2474,3.2575,3.2002,3.1587,3.1022,3.0264,2.9289,2.8273,2.7245,2.6,2.4418,2.2421,2.1518,1.994,1.7562,1.6708,1.509,1.2618,1.1784,1.1043,1.0356,0.9237,0.7633,0.5672,0.4582,0.3266,0.1833,0.1528,0.1452,0.1452,0.1299,0.123,0.124,0.0619,0.0077,-0.0688,-0.2516,-0.3699,-0.4397,-0.5001,-0.5078,-0.4916,-0.5035,-0.4856,-0.4781,-0.5493,-0.5782,-0.5648,-0.4743,-0.4717,-0.4999,-0.5544,-0.5943,-0.6125,-0.5475,-0.3999,-0.2374,-0.1347,0.067,0.2221,0.2288,0.2421,0.3249,0.5416,0.5642,0.6391,0.8839,0.9089,0.9142,0.9448,0.9151,0.9017,0.9344,0.9069,0.9384,1.0548,1.0863,1.1428,1.2243,1.2498,1.2498,1.2367,1.249,1.2683,1.2867,1.2867,1.2805,1.2613,1.2736,1.2972,1.3243,1.3208,1.4355,1.6331,1.6306,1.7047,1.8405,1.8697,1.8602,1.8344,1.8344,1.7995,1.7435,1.7279,1.7078,1.6864,3.3782,3.2937,3.2556,3.3221,3.2616,3.2084,3.2265,3.2441,3.2396,3.1874,3.2045,3.1956,3.1308,3.0635,3.0074,2.9787,2.8595,2.7704,2.7334,2.572,2.382,2.1578,2.1022,1.9602,1.7049,1.6171,1.4585,1.2117,1.133,1.0603,1.0021,0.9307,0.7937,0.6057,0.4936,0.3587,0.2116,0.157,0.1335,0.1335,0.1335,0.1335,0.1335,0.1247,0.0921,0.0302,-0.112,-0.2206,-0.3182,-0.4277,-0.4643,-0.4637,-0.4745,-0.4308,-0.4023,-0.4731,-0.5186,-0.5442,-0.5516,-0.5349,-0.5345,-0.6242,-0.6245,-0.5811,-0.5185,-0.3521,-0.1865,-0.074,0.0805,0.1951,0.2154,0.2618,0.3675,0.5793,0.6384,0.7302,0.9215,0.9484,0.942,0.9215,0.8952,0.8818,0.8947,0.8812,0.9198,1.0415,1.08,1.1428,1.2436,1.2498,1.2375,1.2189,1.2182,1.2305,1.249,1.2552,1.249,1.2359,1.2428,1.2428,1.2367,1.2797,1.4007,1.5686,1.5783,1.688,1.8685,1.8578,1.8655,1.8762,1.8494,1.7984,1.7368,1.7101,1.6719,1.64,3.4446,3.3703,3.3305,3.3971,3.3323,3.2405,3.1543,3.1902,3.1901,3.0844,3.1456,3.1544,3.0333,2.9952,2.9516,2.8861,2.7811,2.7152,2.7078,2.4858,2.2974,2.1772,2.1106,1.9834,1.785,1.6476,1.4809,1.2782,1.1869,1.0436,0.8636,0.9835,0.8916,0.6207,0.597,0.4969,0.3274,0.1881,0.1335,0.1335,0.1335,0.1335,0.1332,0.1224,0.0302,-0.0975,-0.1024,-0.1952,-0.3249,-0.3765,-0.3914,-0.3972,-0.4159,-0.4199,-0.4335,-0.5026,-0.5335,-0.5519,-0.5728,-0.5284,-0.502,-0.6053,-0.578,-0.5179,-0.485,-0.2847,-0.0967,-0.0539,0.047,0.148,0.2087,0.3011,0.4196,0.5855,0.7033,0.8146,0.935,0.9484,0.9285,0.8619,0.8947,0.9011,0.8301,0.9198,0.9773,0.9773,1.073,1.1615,1.2243,1.2305,1.2305,1.2305,1.2189,1.1996,1.1802,1.1996,1.2127,1.2127,1.2243,1.2243,1.212,1.2736,1.3606,1.4604,1.51,1.6203,1.7633,1.8263,1.8768,1.9121,1.8244,1.7907,1.7797,1.6899,1.6285,1.6046,3.428,3.3515,3.3116,3.3826,3.3186,3.2405,3.1951,3.1916,3.1695,3.1011,3.08,3.0377,2.9441,2.894,2.8511,2.8124,2.7244,2.6283,2.5315,2.4121,2.3039,2.2184,2.0637,1.9471,1.8781,1.5969,1.4175,1.3485,1.1792,1.0556,0.9835,1.0171,0.922,0.7279,0.6056,0.459,0.3122,0.1803,0.1335,0.1335,0.1335,0.1335,0.1332,0.1224,0.0898,0.044,-0.0499,-0.1603,-0.2741,-0.3225,-0.391,-0.4518,-0.4622,-0.5081,-0.5621,-0.5691,-0.5381,-0.4999,-0.4932,-0.4278,-0.3982,-0.5186,-0.4547,-0.3401,-0.244,-0.1715,-0.0947,0.0471,0.1008,0.1345,0.2087,0.2621,0.3887,0.6548,0.7279,0.7927,0.9285,0.9484,0.9414,0.9215,0.8952,0.8818,0.8947,0.8689,0.9011,1.0225,1.124,1.1872,1.1809,1.2058,1.212,1.1926,1.1934,1.1872,1.1802,1.1872,1.1872,1.1747,1.1809,1.1809,1.1747,1.2182,1.2931,1.3945,1.5341,1.6208,1.6725,1.7872,1.8047,1.7544,1.7269,1.7269,1.728,1.6291,1.6073,1.6348,3.4178,3.3626,3.3351,3.3723,3.2981,3.2138,3.1589,3.1356,3.093,3.0088,2.9747,2.9269,2.8335,2.7993,2.7671,2.7339,2.652,2.5536,2.4408,2.3675,2.2855,2.1945,2.0236,1.9277,1.9126,1.6543,1.4776,1.379,1.2011,1.0846,1.0296,1.0151,0.9523,0.859,0.6981,0.544,0.3973,0.2657,0.1803,0.1335,0.1335,0.1335,0.1331,0.121,0.1183,0.1088,0.0279,-0.0748,-0.1673,-0.2008,-0.2876,-0.3742,-0.3742,-0.414,-0.4538,-0.4408,-0.4053,-0.3694,-0.3698,-0.2909,-0.2314,-0.3157,-0.2793,-0.2013,-0.1375,-0.0814,-0.0134,0.0807,0.1144,0.1548,0.2284,0.2614,0.3675,0.6675,0.7545,0.8197,0.9157,0.9285,0.9285,0.9151,0.8947,0.8818,0.8759,0.8506,0.8823,0.9913,1.0667,1.1108,1.1108,1.1428,1.1615,1.149,1.1622,1.1747,1.1747,1.1747,1.1685,1.1685,1.1622,1.1622,1.1622,1.1934,1.2405,1.3089,1.4828,1.5581,1.5686,1.7081,1.7324,1.6757,1.6419,1.6363,1.6419,1.5938,1.5661,1.5603,3.4057,3.3868,3.3765,3.3393,3.2575,3.16,3.0585,3.0309,2.9799,2.8584,2.8544,2.8249,2.7235,2.7139,2.6974,2.6526,2.5669,2.4829,2.406,2.3365,2.2482,2.1369,1.9944,1.9094,1.878,1.7637,1.5956,1.3777,1.2431,1.1234,1.0218,0.9992,0.9916,0.9841,0.83,0.6831,0.5437,0.3891,0.2501,0.1335,0.1335,0.1335,0.1329,0.1189,0.1166,0.1158,0.1097,0.0403,-0.0536,-0.0603,-0.1272,-0.2072,-0.2072,-0.2139,-0.2139,-0.2072,-0.2072,-0.2007,-0.2207,-0.1338,-0.0402,-0.0603,-0.075,-0.0966,-0.1146,-0.0,0.0944,0.0674,0.1079,0.1752,0.2815,0.3133,0.3985,0.6453,0.7787,0.8582,0.8952,0.9017,0.8888,0.8624,0.9011,0.9017,0.8182,0.8576,0.9028,0.9274,0.946,0.9773,1.0275,1.073,1.0989,1.1045,1.1435,1.1622,1.1622,1.1622,1.1685,1.1802,1.1685,1.1622,1.1622,1.1934,1.2058,1.2182,1.3819,1.4514,1.4554,1.5934,1.6465,1.6296,1.5448,1.5168,1.5284,1.5708,1.5089,1.4291,3.3875,3.3673,3.3166,3.1592,3.1102,3.0514,2.9281,2.896,2.8814,2.8723,2.8278,2.7856,2.744,2.6967,2.6337,2.5545,2.464,2.396,2.3603,2.2408,2.1569,2.1307,2.0073,1.8705,1.7083,1.5644,1.4784,1.4528,1.2666,1.1199,1.0218,0.9992,0.9846,0.9544,0.6984,0.5674,0.5212,0.2813,0.1569,0.1335,0.1335,0.1335,0.1329,0.1189,0.1166,0.1158,0.1097,0.0403,-0.0603,-0.1472,-0.1939,-0.2072,-0.2072,-0.2207,-0.2274,-0.214,-0.1606,-0.1072,-0.0938,-0.0067,0.0739,0.0671,0.0674,0.0609,0.0538,0.0605,0.0741,0.1144,0.074,0.1144,0.3897,0.5526,0.6813,0.7705,0.8098,0.8414,0.8958,0.9017,0.9087,0.9285,0.9414,0.935,0.9221,0.9414,0.9414,0.9081,0.9582,1.0085,1.0421,1.0674,1.1052,1.1615,1.1622,1.1622,1.1622,1.1622,1.1622,1.1622,1.1622,1.1622,1.1622,1.1809,1.1872,1.1926,1.3511,1.376,1.3139,1.4505,1.4622,1.4016,1.3786,1.4246,1.4925,1.4195,1.4255,1.4718,3.3053,3.255,3.1895,3.0826,3.0127,2.9452,2.8797,2.8412,2.8238,2.8331,2.7929,2.7357,2.6649,2.6254,2.5616,2.4544,2.383,2.3127,2.2311,2.142,2.0448,1.9456,1.8542,1.7396,1.5896,1.4958,1.4099,1.3317,1.205,1.0887,0.9922,0.9771,0.9306,0.8528,0.7141,0.5674,0.4281,0.289,0.1881,0.1335,0.1335,0.1335,0.133,0.1206,0.1179,0.116,0.1114,0.0747,0.0067,-0.1004,-0.1004,-0.0603,-0.0603,-0.067,-0.0737,-0.0603,-0.0268,0.0134,0.0201,0.0671,0.1076,0.1076,0.1076,0.1076,0.1077,0.0943,0.0809,0.0942,0.1412,0.2216,0.3758,0.5929,0.7423,0.7161,0.755,0.8007,0.8441,0.8501,0.8635,0.8964,0.9157,0.9285,0.9408,0.9414,0.928,0.9017,0.9268,0.9524,0.9658,0.9913,1.0351,1.0912,1.1648,1.1841,1.1622,1.2634,1.2687,1.1685,1.1685,1.1685,1.1685,1.1747,1.1864,1.1988,1.333,1.3408,1.2683,1.3999,1.3939,1.3155,1.3155,1.3502,1.3957,1.3897,1.4177,1.4523,3.1987,3.1238,3.0558,3.0295,2.936,2.8652,2.8514,2.8096,2.7782,2.762,2.7269,2.6683,2.5632,2.5301,2.473,2.3603,2.2965,2.2165,2.1072,2.0298,1.9117,1.7406,1.6678,1.5869,1.5054,1.4553,1.3462,1.1774,1.1484,1.0738,0.962,0.962,0.8917,0.752,0.7447,0.5902,0.335,0.3119,0.2347,0.1335,0.1335,0.1335,0.1332,0.1224,0.1193,0.1163,0.1132,0.1102,0.0941,0.0067,0.0336,0.1076,0.1076,0.1076,0.1076,0.1076,0.1076,0.1076,0.1076,0.1076,0.1076,0.1076,0.1076,0.1076,0.1078,0.1079,0.1012,0.0674,0.2017,0.3286,0.3551,0.5495,0.6907,0.6272,0.6929,0.7591,0.7987,0.7987,0.8117,0.8452,0.8765,0.9081,0.921,0.9145,0.9081,0.9081,0.8894,0.8829,0.8894,0.921,0.9588,1.0148,1.1611,1.2235,1.1926,1.393,1.404,1.2336,1.2158,1.2042,1.1864,1.1864,1.1996,1.2182,1.3105,1.3183,1.2683,1.3657,1.3606,1.2928,1.3103,1.3042,1.3042,1.3837,1.4177,1.4236,3.1045,3.0617,3.0006,2.8943,2.8655,2.8345,2.7819,2.7335,2.696,2.6707,2.6176,2.5632,2.516,2.4113,2.3384,2.3207,2.1741,2.0906,2.1106,1.8854,1.7464,1.7338,1.607,1.5054,1.4274,1.3528,1.2865,1.2198,1.2144,1.1335,0.9846,0.9846,0.9069,0.7681,0.644,0.4974,0.3352,0.2115,0.1492,0.1335,0.1335,0.1335,0.1332,0.1224,0.1193,0.1163,0.1132,0.1102,0.1076,0.0941,0.1008,0.1076,0.1076,0.1076,0.1076,0.1076,0.1076,0.1076,0.1076,0.1076,0.1076,0.1076,0.1076,0.1076,0.1076,0.1078,0.1079,0.1012,0.128,0.2151,0.4556,0.5359,0.5954,0.7129,0.7391,0.7591,0.7987,0.7987,0.8117,0.8452,0.8765,0.9017,0.9017,0.9145,0.9274,0.9274,0.9081,0.9081,0.9396,0.9454,0.9901,1.0856,1.1866,1.2647,1.3235,1.4337,1.4749,1.4455,1.376,1.2948,1.2058,1.2182,1.2243,1.2305,1.2613,1.2674,1.2621,1.2797,1.2797,1.2744,1.3563,1.339,1.2683,1.2797,1.3381,1.4025,2.9572,2.9333,2.9021,2.8426,2.817,2.7952,2.7765,2.6982,2.6443,2.639,2.5728,2.5077,2.4637,2.3722,2.3086,2.3113,2.1519,2.058,2.0778,1.893,1.76,1.7064,1.6192,1.5155,1.376,1.3324,1.2512,1.1471,1.1254,1.0738,0.9922,0.9922,0.9145,0.7761,0.6287,0.4817,0.3274,0.1881,0.1335,0.1335,0.1335,0.1335,0.1334,0.1242,0.1208,0.116,0.1112,0.1087,0.1076,0.1076,0.1076,0.1076,0.1076,0.1076,0.1076,0.1076,0.1076,0.1076,0.1076,0.1076,0.1076,0.1076,0.1809,0.2272,0.1343,0.2601,0.359,0.2278,0.248,0.3282,0.448,0.5741,0.6539,0.6597,0.7125,0.7521,0.7722,0.7722,0.7852,0.8182,0.8376,0.8501,0.8705,0.8958,0.9145,0.9145,0.9145,0.921,0.9396,0.921,0.9594,1.0674,1.2127,1.3091,1.3528,1.5109,1.5332,1.4227,1.4464,1.4058,1.3009,1.2544,1.2367,1.2498,1.2428,1.2498,1.2621,1.3155,1.3094,1.2744,1.4195,1.4483,1.4136,1.4136,1.4364,1.4709]},{"header":{"parameterUnit":"m.s-1","parameterCategory":1,"la1":30.6,"la2":28.766,"lo1":-90.7593,"lo2":-88.6598,"dy":0.0162,"dx":0.0183,"nx":116,"ny":114,"refTime":"2023-09-07T18:00:00:Z","depth":0,"parameterNumber":3,"parameterNumberName":"V-component_of_WINDS"},"data":[0.0,0.0,0.0,0.0,0.0,0.0,0.0,0.0,0.0,0.0,0.0,0.0,0.0,0.0,0.0,0.0,0.0,0.0,0.0,0.0,0.0,0.0,0.0,0.0,0.0,0.0,0.0,0.0,0.0,0.0,0.0,0.0,0.0,0.0,0.0,0.0,0.0,0.0,0.0,0.0,0.0,0.0,0.0,0.0,0.0,0.0,0.0,0.0,0.0,0.0,0.0,0.0,0.0,0.0,0.0,0.0,0.0,0.0,0.0,0.0,0.0,0.0,0.0,0.0,0.0,0.0,0.0,0.0,0.0,0.0,0.0,0.0,0.0,0.0,0.0,0.0,0.0,0.0,0.0,0.0,0.0,0.0,0.0,0.0,0.0,0.0,0.0,0.0,0.0,0.0,0.0,0.0,0.0,0.0,0.0,0.0,0.0,0.0,0.0,0.0,0.0,0.0,0.0,0.0,0.0,0.0,0.0,0.0,0.0,0.0,0.0,0.0,0.0,0.0,0.0,0.0,0.0,0.0,0.0,0.0,0.0,0.0,0.0,0.0,0.0,0.0,0.0,0.0,0.0,0.0,0.0,0.0,0.0,0.0,0.0,0.0,0.0,0.0,0.0,0.0,0.0,0.0,0.0,0.0,0.0,0.0,0.0,0.0,0.0,0.0,0.0,0.0,0.0,0.0,0.0,0.0,0.0,0.0,0.0,0.0,0.0,0.0,0.0,0.0,0.0,0.0,0.0,0.0,0.0,0.0,0.0,0.0,0.0,0.0,0.0,0.0,0.0,0.0,0.0,0.0,0.0,0.0,0.0,0.0,0.0,0.0,0.0,0.0,0.0,0.0,0.0,0.0,0.0,0.0,0.0,0.0,0.0,0.0,0.0,0.0,0.0,0.0,0.0,0.0,0.0,0.0,0.0,0.0,0.0,0.0,0.0,0.0,0.0,0.0,0.0,0.0,0.0,0.0,0.0,0.0,0.0,0.0,0.0,0.0,0.0,0.0,0.0,0.0,0.0,0.0,0.0,0.0,0.0,0.0,0.0,0.0,0.0,0.0,0.0,0.0,0.0,0.0,0.0,0.0,0.0,0.0,0.0,0.0,0.0,0.0,0.0,0.0,0.0,0.0,0.0,0.0,0.0,0.0,0.0,0.0,0.0,0.0,0.0,0.0,0.0,0.0,0.0,0.0,0.0,0.0,0.0,0.0,0.0,0.0,0.0,0.0,0.0,0.0,0.0,0.0,0.0,0.0,0.0,0.0,0.0,0.0,0.0,0.0,0.0,0.0,0.0,0.0,0.0,0.0,0.0,0.0,0.0,0.0,0.0,0.0,0.0,0.0,0.0,0.0,0.0,0.0,0.0,0.0,0.0,0.0,0.0,0.0,0.0,0.0,0.0,0.0,0.0,0.0,0.0,0.0,0.0,0.0,0.0,0.0,0.0,0.0,0.0,0.0,0.0,0.0,0.0,0.0,0.0,0.0,0.0,0.0,0.0,0.0,0.0,0.0,0.0,0.0,0.0,0.0,0.0,0.0,0.0,0.0,0.0,0.0,0.0,0.0,0.0,0.0,0.0,0.0,0.0,0.0,0.0,0.0,0.0,0.0,0.0,0.0,0.0,0.0,0.0,0.0,0.0,0.0,0.0,0.0,0.0,0.0,0.0,0.0,0.0,0.0,0.0,0.0,0.0,0.0,0.0,0.0,0.0,0.0,0.0,0.0,0.0,0.0,0.0,0.0,0.0,0.0,0.0,0.0,0.0,0.0,0.0,0.0,0.0,0.0,0.0,0.0,0.0,0.0,0.0,0.0,0.0,0.0,0.0,0.0,0.0,0.0,0.0,0.0,0.0,0.0,0.0,0.0,0.0,0.0,0.0,0.0,0.0,0.0,0.0,0.0,0.0,0.0,0.0,0.0,0.0,0.0,0.0,0.0,0.0,0.0,0.0,0.0,0.0,0.0,0.0,0.0,0.0,0.0,0.0,0.0,0.0,0.0,0.0,0.0,0.0,0.0,0.0,0.0,0.0,0.0,0.0,0.0,0.0,0.0,0.0,0.0,0.0,0.0,0.0,0.0,0.0,0.0,0.0,0.0,0.0,0.0,0.0,0.0,0.0,0.0,0.0,0.0,0.0,0.0,0.0,0.0,0.0,0.0,0.0,0.0,0.0,0.0,0.0,0.0,0.0,0.0,0.0,0.0,0.0,0.0,0.0,0.0,0.0,0.0,0.0,0.0,0.0,0.0,0.0,0.0,0.0,0.0,0.0,0.0,0.0,0.0,0.0,0.0,0.0,0.0,0.0,0.0,0.0,0.0,0.0,0.0,0.0,0.0,0.0,0.0,0.0,0.0,0.0,0.0,0.0,0.0,0.0,0.0,0.0,0.0,0.0,0.0,0.0,0.0,0.0,0.0,0.0,0.0,0.0,0.0,0.0,0.0,0.0,0.0,0.0,0.0,0.0,0.0,0.0,0.0,0.0,0.0,0.0,0.0,0.0,0.0,0.0,0.0,0.0,0.0,0.0,0.0,0.0,0.0,0.0,0.0,0.0,0.0,0.0,0.0,0.0,0.0,0.0,0.0,0.0,0.0,0.0,0.0,0.0,0.0,0.0,0.0,0.0,0.0,0.0,0.0,0.0,0.0,0.0,0.0,0.0,0.0,0.0,0.0,0.0,0.0,0.0,0.0,0.0,0.0,0.0,0.0,0.0,0.0,0.0,0.0,0.0,0.0,0.0,0.0,0.0,0.0,0.0,0.0,0.0,0.0,0.0,0.0,0.0,0.0,0.0,0.0,0.0,0.0,0.0,0.0,0.0,0.0,0.0,0.0,0.0,0.0,0.0,0.0,0.0,0.0,0.0,0.0,0.0,0.0,0.0,0.0,0.0,0.0,0.0,0.0,0.0,0.0,0.0,0.0,0.0,0.0,0.0,0.0,0.0,0.0,0.0,0.0,0.0,0.0,0.0,0.0,0.0,0.0,0.0,0.0,0.0,0.0,0.0,0.0,0.0,0.0,0.0,0.0,0.0,0.0,0.0,0.0,0.0,0.0,0.0,0.0,0.0,0.0,0.0,0.0,0.0,0.0,0.0,0.0,0.0,0.0,0.0,0.0,0.0,0.0,0.0,0.0,0.0,0.0,0.0,0.0,0.0,0.0,0.0,0.0,0.0,0.0,0.0,0.0,0.0,0.0,0.0,0.0,0.0,0.0,0.0,0.0,0.0,0.0,0.0,0.0,0.0,0.0,0.0,0.0,0.0,0.0,0.0,0.0,0.0,0.0,0.0,0.0,0.0,0.0,0.0,0.0,0.0,0.0,0.0,0.0,0.0,0.0,0.0,0.0,0.0,0.0,0.0,0.0,0.0,0.0,0.0,0.0,0.0,0.0,0.0,0.0,0.0,0.0,0.0,0.0,0.0,0.0,0.0,0.0,0.0,0.0,0.0,0.0,0.0,0.0,0.0,0.0,0.0,0.0,0.0,0.0,0.0,0.0,0.0,0.0,0.0,0.0,0.0,0.0,0.0,0.0,0.0,0.0,0.0,0.0,0.0,0.0,0.0,0.0,0.0,0.0,0.0,0.0,0.0,0.0,0.0,0.0,0.0,0.0,0.0,0.0,0.0,0.0,0.0,0.0,0.0,0.0,0.0,0.0,0.0,0.0,0.0,0.0,0.0,0.0,0.0,0.0,0.0,0.0,0.0,0.0,0.0,0.0,0.0,0.0,0.0,0.0,0.0,0.0,0.0,0.0,0.0,0.0,0.0,0.0,0.0,0.0,0.0,0.0,0.0,0.0,0.0,0.0,0.0,0.0,0.0,0.0,0.0,0.0,0.0,0.0,0.0,0.0,0.0,0.0,0.0,0.0,0.0,0.0,0.0,0.0,0.0,0.0,0.0,0.0,0.0,0.0,0.0,0.0,0.0,0.0,0.0,0.0,0.0,0.0,0.0,0.0,0.0,0.0,0.0,0.0,0.0,0.0,0.0,0.0,0.0,0.0,0.0,0.0,0.0,0.0,0.0,0.0,0.0,0.0,0.0,0.0,0.0,0.0,0.0,0.0,0.0,0.0,0.0,0.0,0.0,0.0,0.0,0.0,0.0,0.0,0.0,0.0,0.0,0.0,0.0,0.0,0.0,0.0,0.0,0.0,0.0,0.0,0.0,0.0,0.0,0.0,0.0,0.0,0.0,0.0,0.0,0.0,0.0,0.0,0.0,0.0,0.0,0.0,0.0,0.0,0.0,0.0,0.0,0.0,0.0,0.0,0.0,0.0,0.0,0.0,0.0,0.0,0.0,0.0,0.0,0.0,0.0,0.0,0.0,0.0,0.0,0.0,0.0,0.0,0.0,0.0,0.0,0.0,0.0,0.0,0.0,0.0,0.0,0.0,0.0,0.0,0.0,0.0,0.0,0.0,0.0,0.0,0.0,0.0,0.0,0.0,0.0,0.0,0.0,0.0,0.0,0.0,0.0,0.0,0.0,0.0,0.0,0.0,0.0,0.0,0.0,0.0,0.0,0.0,0.0,0.0,0.0,0.0,0.0,0.0,0.0,0.0,0.0,0.0,0.0,0.0,0.0,0.0,0.0,0.0,0.0,0.0,0.0,0.0,0.0,0.0,0.0,0.0,0.0,0.0,0.0,0.0,0.0,0.0,0.0,0.0,0.0,0.0,0.0,0.0,0.0,0.0,0.0,0.0,0.0,0.0,0.0,0.0,0.0,0.0,0.0,0.0,0.0,0.0,0.0,0.0,0.0,0.0,0.0,0.0,0.0,0.0,0.0,0.0,0.0,0.0,0.0,0.0,0.0,0.0,0.0,0.0,0.0,0.0,0.0,0.0,0.0,0.0,0.0,0.0,0.0,0.0,0.0,0.0,0.0,0.0,0.0,0.0,0.0,0.0,0.0,0.0,0.0,0.0,0.0,0.0,0.0,0.0,0.0,0.0,0.0,0.0,0.0,0.0,0.0,0.0,0.0,0.0,0.0,0.0,0.0,0.0,0.0,0.0,0.0,0.0,0.0,0.0,0.0,0.0,0.0,0.0,0.0,0.0,0.0,0.0,0.0,0.0,0.0,0.0,0.0,0.0,0.0,0.0,0.0,0.0,0.0,0.0,0.0,0.0,0.0,0.0,0.0,0.0,0.0,0.0,0.0,0.0,0.0,0.0,0.0,0.0,0.0,0.0,0.0,0.0,0.0,0.0,0.0,0.0,0.0,0.0,0.0,0.0,0.0,0.0,0.0,0.0,0.0,0.0,0.0,0.0,0.0,0.0,0.0,0.0,0.0,0.0,0.0,0.0,0.0,0.0,0.0,0.0,0.0,0.0,0.0,0.0,0.0,0.0,0.0,0.0,0.0,0.0,0.0,0.0,0.0,0.0,0.0,0.0,0.0,0.0,0.0,0.0,0.0,0.0,0.0,0.0,0.0,0.0,0.0,0.0,0.0,0.0,0.0,0.0,0.0,0.0,0.0,0.0,0.0,0.0,0.0,0.0,0.0,0.0,0.0,0.0,0.0,0.0,0.0,0.0,0.0,0.0,0.0,0.0,0.0,0.0,0.0,0.0,0.0,0.0,0.0,0.0,0.0,0.0,0.0,0.0,0.0,0.0,0.0,0.0,0.0,0.0,0.0,0.0,0.0,0.0,0.0,0.0,0.0,0.0,0.0,0.0,0.0,0.0,0.0,0.0,0.0,0.0,0.0,0.0,0.0,0.0,0.0,0.0,0.0,0.0,0.0,0.0,0.0,0.0,0.0,0.0,0.0,0.0,0.0,0.0,0.0,0.0,0.0,0.0,0.0,0.0,0.0,0.0,0.0,0.0,0.0,0.0,0.0,0.0,0.0,0.0,0.0,0.0,0.0,0.0,0.0,0.0,0.0,0.0,0.0,0.0,0.0,0.0,0.0,0.0,0.0,0.0,0.0,0.0,0.0,0.0,0.0,0.0,0.0,0.0,0.0,0.0,0.0,0.0,0.0,0.0,0.0,0.0,0.0,0.0,0.0,0.0,0.0,0.0,0.0,0.0,0.0,0.0,0.0,0.0,0.0,0.0,0.0,0.0,0.0,0.0,0.0,0.0,0.0,0.0,0.0,0.0,0.0,0.0,0.0,0.0,1.281,1.2759,0.0,0.0,0.0,0.0,0.0,0.0,0.0,0.0,0.0,0.0,0.0,0.0,0.0,0.0,0.0,0.0,0.0,0.0,0.0,0.0,0.0,0.0,0.0,0.0,0.0,0.0,0.0,0.0,0.0,0.0,0.0,0.0,0.0,0.0,0.0,0.0,0.0,0.0,0.0,0.0,0.0,0.0,0.0,0.0,0.0,0.0,0.0,0.0,0.0,0.0,0.0,0.0,0.0,0.0,0.0,0.0,0.0,0.0,0.0,0.0,0.0,0.0,0.0,0.0,0.0,0.0,0.0,0.0,0.0,0.0,0.0,0.0,0.0,0.0,0.0,0.0,0.0,0.0,0.0,0.0,0.0,0.0,0.0,0.0,0.0,0.0,0.0,0.0,0.0,0.0,0.0,0.0,0.0,0.0,0.0,0.0,0.0,0.0,0.0,0.0,0.0,0.0,0.0,0.0,0.0,0.0,0.0,0.0,0.0,0.0,0.0,0.0,0.0,0.0,1.2307,1.2878,0.0,0.0,0.0,0.0,0.0,0.0,0.0,0.0,0.0,0.0,0.0,0.0,0.0,0.0,0.0,0.0,0.0,0.0,0.0,0.0,0.0,0.0,0.0,0.0,0.0,0.0,0.0,0.0,0.0,0.0,0.0,0.0,0.0,0.0,0.0,0.0,0.0,0.0,0.0,0.0,0.0,0.0,0.0,0.0,0.0,0.0,0.0,0.0,0.0,0.0,0.0,0.0,0.0,0.0,0.0,0.0,0.0,0.0,0.0,0.0,0.0,0.0,0.0,0.0,0.0,0.0,0.0,0.0,0.0,0.0,0.0,0.0,0.0,0.0,0.0,0.0,0.0,0.0,0.0,0.0,0.0,0.0,0.0,0.0,0.0,0.0,0.0,0.0,0.0,0.0,0.0,0.0,0.0,0.0,0.0,0.0,0.0,0.0,0.0,0.0,0.0,0.0,0.0,0.0,0.0,0.0,0.0,0.0,1.0415,1.0038,0.9913,1.0262,0.9556,0.8256,1.1775,1.2727,1.1839,1.1813,0.0,0.0,0.0,0.0,0.0,0.0,0.0,0.0,0.0,0.0,0.0,0.0,0.0,0.0,0.0,0.0,0.0,0.0,0.0,0.0,0.0,0.0,1.0597,1.0753,1.0597,0.0,0.0,0.0,0.0,0.0,0.0,0.0,0.0,0.0,0.0,0.0,0.0,0.0,1.3872,1.4296,1.3985,1.3105,1.3336,0.0,0.0,0.0,0.0,0.0,0.0,0.0,0.0,0.0,0.0,0.0,0.0,0.0,0.0,0.0,0.0,0.0,0.0,0.0,0.0,0.0,0.0,0.0,0.0,0.0,0.0,0.0,0.0,0.0,0.0,0.0,0.0,0.0,0.0,0.0,0.0,0.0,0.0,0.0,0.0,0.0,0.0,0.0,1.4346,1.5278,0.0,0.0,0.0,0.0,0.0,0.0,0.0,0.0,0.0,0.0,0.0,0.0,0.0,1.2822,1.2172,1.1261,1.0877,1.0994,0.9265,0.8739,0.9364,0.9259,0.9059,0.8882,0.9156,0.0,0.9823,0.9664,0.0,0.0,0.0,0.0,0.0,0.0,0.0,0.0,0.0,0.0,0.0,0.0,0.0,0.0,0.0,0.0,0.0,0.0,0.0,0.0,0.0,0.0,1.1951,1.2497,1.3008,0.0,0.0,0.0,0.0,0.0,0.0,0.0,0.0,0.0,0.0,0.0,1.6063,1.6894,1.688,1.6717,1.6321,1.5856,1.5366,1.4191,1.2401,1.2573,0.0,0.0,0.0,0.0,0.0,0.0,0.0,0.0,0.0,0.0,0.0,0.0,0.0,0.0,0.0,0.0,0.0,0.0,0.0,0.0,0.0,0.0,0.0,0.0,0.0,0.0,0.0,0.0,0.0,0.0,0.0,0.0,0.0,0.0,0.0,0.0,0.0,0.0,0.0,1.3575,1.4642,1.4726,1.5358,1.5468,0.0,0.0,0.0,0.0,0.0,0.0,0.0,0.0,0.0,1.1484,1.1864,1.1735,1.1055,1.0692,1.0454,1.039,0.8837,0.8385,0.8927,0.8385,0.7923,0.7383,0.7147,0.6986,0.6857,0.7878,0.8885,0.9693,0.0,0.0,0.0,0.0,0.6116,0.5787,0.0,0.0,0.0,0.0,0.0,0.0,0.0,0.0,0.0,0.0,0.0,0.0,1.168,1.2941,1.3974,1.4586,1.5329,1.5391,1.4424,0.0,0.0,0.0,0.0,0.0,0.0,0.0,0.0,1.5835,1.7454,1.843,1.8754,1.8211,1.7745,1.7285,1.6542,1.5011,1.2998,1.3396,1.2762,0.0,0.0,0.0,0.0,0.0,0.0,0.0,0.0,0.0,0.0,0.0,0.0,0.0,0.0,0.0,0.0,0.0,0.0,0.0,0.0,0.0,0.0,0.0,0.0,0.0,0.0,0.0,0.0,0.0,0.0,0.0,0.0,0.0,0.0,0.0,0.0,0.0,0.0,1.3761,1.4881,1.4398,1.5231,1.5565,0.0,0.0,0.0,0.0,0.0,0.0,1.3316,1.2684,1.2066,1.1387,1.133,1.0907,1.0153,1.019,1.0014,0.9771,0.847,0.8165,0.8627,0.7702,0.6938,0.6405,0.6089,0.555,0.5076,0.6526,0.706,0.6904,0.6906,0.6622,0.6162,0.5649,0.5028,0.4412,0.0,0.0,0.0,0.0,0.0,0.0,0.0,0.0,0.0,0.0,0.0,1.4471,1.4642,1.5821,1.6604,1.6633,1.6585,1.6005,1.4679,0.0,0.0,0.0,0.0,0.0,0.0,0.0,0.0,1.7001,1.8646,1.8696,1.739,1.7301,1.695,1.6376,1.5991,1.4934,1.3512,1.4568,1.3992,1.2284,0.0,0.0,0.0,0.0,0.0,0.0,0.0,0.0,0.0,0.0,0.0,0.0,0.0,0.0,0.0,0.0,0.0,0.0,0.0,0.0,0.0,0.0,0.0,0.0,0.0,0.0,0.0,0.0,0.0,0.0,0.0,0.0,0.0,0.0,0.0,0.0,0.0,0.0,0.0,1.4977,1.6454,0.0,0.0,0.0,0.0,1.4147,1.41,1.4194,1.4395,1.3543,1.3067,1.3184,1.2336,1.1388,1.0486,0.9868,0.9579,0.962,0.8021,0.7638,0.8403,0.7176,0.6806,0.7061,0.643,0.596,0.5572,0.5783,0.5678,0.5378,0.5222,0.5269,0.531,0.3881,0.3502,0.3532,0.0,0.0,0.0,0.0,0.0,0.0,0.0,0.0,0.0,1.2603,1.3297,1.3942,1.4236,1.6184,1.7855,1.8646,1.9404,1.9248,1.7906,0.0,0.0,0.0,0.0,0.0,0.0,0.0,1.775,1.7824,1.9227,1.9321,1.8113,1.7929,1.7335,1.6464,1.6132,1.5487,1.4627,1.5112,1.4651,1.3502,1.3197,1.2361,0.0,0.0,0.0,0.0,0.0,0.0,0.0,0.0,0.0,0.0,0.0,0.0,0.0,0.0,0.0,0.0,0.0,0.0,0.0,0.0,0.0,0.0,0.0,0.0,0.0,0.0,0.0,0.0,0.0,0.0,0.0,0.0,0.0,0.0,0.0,0.0,0.0,1.4701,1.5186,0.0,1.5213,1.4631,1.4337,1.4363,1.4825,1.4658,1.3769,1.3912,1.3423,1.2129,1.2425,1.2418,1.1808,1.0983,1.0495,1.0286,0.8351,0.7438,0.7403,0.6405,0.6028,0.6112,0.5796,0.5637,0.5476,0.4217,0.3591,0.3579,0.4621,0.4523,0.3787,0.4059,0.3573,0.2671,0.0,0.0,0.0,0.0,0.0,0.0,0.0,0.0,0.0,1.4,1.4485,1.5184,1.622,1.8086,1.9753,2.0862,2.16,2.1182,1.9308,0.0,0.0,0.0,0.0,0.0,0.0,1.7586,1.8392,1.8462,1.9476,1.9317,1.8061,1.8019,1.7312,1.6129,1.5925,1.5592,1.511,1.5386,1.5238,1.4754,1.4665,1.3487,1.1844,0.0,0.0,0.0,0.0,0.0,0.0,0.0,0.0,0.0,0.0,0.0,0.0,0.0,0.0,0.0,0.0,0.0,0.0,0.0,0.0,0.0,0.0,0.0,0.0,0.0,0.0,0.0,0.0,0.0,0.0,0.0,0.0,0.0,0.0,1.3391,1.4376,1.445,1.474,1.507,1.5181,1.479,1.4658,1.5041,1.5444,1.5249,1.4214,1.4271,1.3648,1.2195,1.2629,1.2634,1.211,1.1243,1.0679,1.0453,0.8386,0.7293,0.7107,0.5924,0.5384,0.5431,0.5244,0.5384,0.5591,0.4211,0.3371,0.3125,0.3934,0.3597,0.2662,0.3441,0.2974,0.1883,0.0,0.0,0.0,0.0,0.0,0.0,0.0,0.0,0.0,1.6802,1.7332,1.8373,2.0757,2.1584,2.2352,2.3216,2.3007,2.1541,1.8542,1.7403,0.0,0.0,0.0,0.0,1.8248,1.8571,1.8818,1.8987,1.9343,1.8618,1.7033,1.7339,1.6747,1.5321,1.5321,1.5145,1.4902,1.533,1.5713,1.5974,1.5716,1.4993,1.3951,0.0,0.0,0.0,0.0,0.0,0.0,0.0,0.0,0.0,0.0,0.0,0.0,0.0,0.0,0.0,0.0,0.0,0.0,0.0,0.0,0.0,0.0,0.0,0.0,0.0,0.0,0.0,0.0,0.0,0.0,0.0,0.0,0.0,1.249,1.4378,1.5469,1.4316,1.5396,1.6113,1.5846,1.5921,1.6028,1.6211,1.598,1.5806,1.5797,1.4632,1.3879,1.3647,1.2824,1.2043,1.1398,1.0702,1.0227,0.9979,0.8172,0.7435,0.7522,0.5859,0.51,0.5194,0.491,0.5205,0.5857,0.5852,0.5152,0.3942,0.3285,0.2594,0.1964,0.1963,0.173,0.1338,0.0,0.0,0.0,0.0,0.0,0.0,0.0,0.0,1.4094,1.4667,1.605,1.7475,1.8774,2.055,2.2091,2.3274,2.3037,2.1743,1.9276,0.0,0.0,0.0,0.0,0.0,1.8213,1.9068,1.9357,1.9133,1.9162,1.8529,1.7387,1.7533,1.686,1.5661,1.578,1.5597,1.5098,1.5863,1.6305,1.6569,1.6411,1.5649,1.4647,0.0,0.0,0.0,0.0,0.0,0.0,0.0,0.0,0.0,0.0,0.0,0.0,0.0,0.0,0.0,0.0,0.0,0.0,0.0,0.0,0.0,0.0,0.0,0.0,0.0,0.0,0.0,0.0,0.0,0.0,0.0,1.5256,1.5678,1.4992,1.5417,1.5788,1.5814,1.6,1.5942,1.5758,1.5864,1.5947,1.6035,1.6496,1.6372,1.5443,1.48,1.3618,1.1913,1.1968,1.1665,1.0836,1.0925,1.0774,1.0269,0.8954,0.8142,0.7694,0.6526,0.5967,0.5956,0.5573,0.5482,0.5647,0.5336,0.504,0.478,0.5139,0.4454,0.3299,0.3702,0.2965,0.1799,0.0,0.0,0.0,0.0,0.0,0.0,0.0,0.0,1.3934,1.4594,1.5978,1.7374,1.8578,2.049,2.2091,2.2988,2.2907,2.1657,1.8774,0.0,0.0,0.0,0.0,1.7949,1.8844,1.9548,1.9656,1.9186,1.912,1.8634,1.7731,1.7847,1.7305,1.6315,1.6143,1.5766,1.5281,1.5969,1.6491,1.6825,1.6884,1.6263,1.5251,1.5523,1.4629,1.3241,1.344,1.344,1.332,1.3292,0.0,0.0,0.0,0.0,0.0,0.0,0.0,0.0,0.0,0.0,0.0,0.0,0.0,0.0,0.0,0.0,0.0,0.0,0.0,0.0,0.0,0.0,0.0,0.0,1.629,1.6849,1.6792,1.6592,1.6251,1.5698,1.5848,1.5877,1.5549,1.5652,1.5843,1.5998,1.6242,1.6013,1.5261,1.4684,1.3476,1.1537,1.1904,1.1609,1.041,1.0709,1.0636,1.0089,0.8815,0.7998,0.7646,0.6708,0.6273,0.6116,0.5951,0.5762,0.538,0.5199,0.5087,0.4908,0.0,0.0,0.0,0.0,0.3522,0.2335,0.0,0.0,0.0,0.0,0.0,0.0,0.0,0.0,1.4003,1.5598,1.662,1.7775,1.9374,2.0991,2.2144,2.2649,2.2657,2.1146,0.0,0.0,0.0,1.7473,1.8285,1.9057,1.9786,1.9926,1.972,1.9186,1.9171,1.8762,1.8061,1.8137,1.7763,1.7011,1.6509,1.5992,1.5566,1.6168,1.6607,1.7046,1.7504,1.6929,1.5968,1.6199,1.5068,1.3459,1.37,1.3663,1.3542,1.3993,0.0,0.0,0.0,0.0,0.0,0.0,0.0,0.0,0.0,0.0,0.0,0.0,0.0,0.0,0.0,0.0,0.0,0.0,0.0,0.0,0.0,0.0,0.0,0.0,1.7276,1.7402,1.7687,1.7517,1.6747,1.4988,1.5606,1.5952,1.55,1.5557,1.5733,1.5994,1.5678,1.5427,1.5057,1.4363,0.0,0.0,0.0,1.1508,0.9943,1.0055,0.9956,0.9519,0.8193,0.7665,0.7665,0.6871,0.6319,0.5997,0.6189,0.5883,0.5189,0.5247,0.5104,0.4732,0.4725,0.4566,0.4137,0.4274,0.3779,0.2955,0.0,0.0,0.0,0.0,0.0,0.0,0.0,0.0,1.3974,1.5105,1.6653,1.8213,1.967,2.1023,2.2209,2.3084,2.1675,1.9817,0.0,0.0,1.5638,1.7743,1.8292,1.8996,1.9965,2.008,1.9772,1.904,1.903,1.86,1.7755,1.79,1.7645,1.7168,1.7467,1.7105,1.6347,1.7684,1.819,1.8158,1.8926,1.8455,1.7189,1.6582,1.5913,1.5204,1.546,1.5449,1.5349,1.5546,1.5788,1.6366,1.7923,1.7528,0.0,0.0,0.0,0.0,0.0,0.0,0.0,0.0,0.0,0.0,0.0,0.0,0.0,0.0,0.0,0.0,0.0,0.0,0.0,1.7593,1.7733,1.7465,1.6318,1.6794,1.7069,1.6716,1.6862,1.6798,1.6385,1.6263,1.6171,1.6167,1.6246,1.5872,1.4867,1.3839,1.2672,1.126,1.0439,0.9651,0.9006,0.9022,0.9051,0.8999,0.856,0.0,0.8556,0.7669,0.7264,0.7097,0.6045,0.5596,0.5534,0.4809,0.4656,0.4919,0.5147,0.4951,0.4653,0.4911,0.4559,0.3934,0.0,0.0,0.0,0.0,0.0,0.0,0.0,0.0,1.4343,1.4089,1.567,1.7086,1.7772,1.8943,2.0023,2.0907,1.9553,0.0,0.0,1.7128,1.7267,1.9003,1.9233,1.9607,2.0067,2.0182,1.9823,1.8987,1.9093,1.8667,1.7931,1.8084,1.8073,1.8018,1.825,1.7944,1.7252,1.8409,1.8746,1.8539,1.887,1.86,1.8009,1.746,1.6668,1.5864,1.59,1.5785,1.5787,1.6191,1.6713,1.74,1.8912,1.909,1.8655,0.0,0.0,0.0,0.0,0.0,0.0,0.0,0.0,0.0,0.0,0.0,0.0,0.0,0.0,1.7105,1.7173,0.0,1.6658,1.7187,1.6959,1.6578,1.6342,1.665,1.656,1.5726,1.5988,1.6033,1.5569,1.5535,1.5498,1.5515,1.5264,1.4846,1.4064,1.2822,1.1495,1.0045,0.97,0.9128,0.8263,0.873,0.873,0.8371,0.8645,0.8333,0.7699,0.7616,0.7312,0.6871,0.6166,0.5811,0.563,0.4835,0.4656,0.4924,0.5282,0.5458,0.5606,0.5863,0.5302,0.4263,0.0,0.0,0.0,0.0,0.0,0.0,0.0,0.0,0.0,1.3637,1.4924,1.5968,1.587,1.6771,1.756,0.0,0.0,0.0,0.0,1.8369,1.8845,2.0156,2.0233,2.0233,2.0233,2.0283,1.9978,1.9198,1.9239,1.8934,1.8302,1.8367,1.853,1.8822,1.8823,1.8577,1.8272,1.903,1.9276,1.9136,1.884,1.8722,1.8726,1.8436,1.7374,1.5967,1.5908,1.5806,1.5815,1.6597,1.7286,1.8078,1.9295,2.0346,2.0665,1.8792,1.8891,0.0,0.0,0.0,0.0,0.0,0.0,0.0,0.0,1.7518,1.7835,1.7391,1.7256,1.7175,1.7216,1.6367,1.598,1.6902,1.6289,1.5957,1.656,1.6581,1.5986,1.4688,1.5022,1.5153,1.4665,1.4763,1.4943,1.4998,1.4454,1.3798,1.3309,1.2137,1.0818,0.9475,0.9732,0.9396,0.8356,0.8909,0.8753,0.7872,0.839,0.7942,0.663,0.7145,0.6986,0.6428,0.634,0.5985,0.5455,0.4924,0.475,0.475,0.5193,0.5725,0.6254,0.6615,0.5985,0.4823,0.0,0.0,0.0,0.0,0.0,0.0,0.0,0.0,0.0,1.5153,1.5788,1.62,1.6077,1.6708,0.0,0.0,0.0,0.0,1.7276,1.7883,1.8811,2.0131,2.0321,2.0435,2.0461,2.0675,2.0511,1.9888,1.9565,1.921,1.8881,1.8583,1.853,1.8822,1.9112,1.9241,1.9397,2.0271,2.0719,2.0808,2.0519,2.007,1.9538,1.9252,1.7829,1.5946,1.6207,1.6235,1.6294,1.7194,1.7554,1.7895,1.9533,2.0428,2.0795,2.0269,2.0635,2.0565,1.7496,1.5849,1.5115,1.5841,1.6726,1.7136,0.0,1.7277,1.8315,1.703,1.7424,1.8085,1.8322,1.7984,1.7658,1.7638,1.7297,1.67,1.5917,1.61,1.6236,1.5942,1.5614,1.5498,1.5556,1.5576,1.5516,1.5278,1.5161,1.4433,1.2756,1.2745,1.2276,1.1268,1.0767,1.0501,1.0191,0.9686,0.8866,0.7872,0.7951,0.7495,0.6636,0.6709,0.6635,0.634,0.5985,0.5366,0.4837,0.4924,0.4835,0.475,0.5193,0.546,0.5638,0.6438,0.6789,0.6605,0.0,0.0,0.0,0.0,0.0,0.0,0.0,0.0,0.0,0.0,0.0,1.5418,1.5337,0.0,0.0,0.0,0.0,0.0,1.6519,1.7686,1.8988,2.0434,2.0612,2.0725,2.0738,2.0875,2.0549,1.9747,1.9617,1.9198,1.8625,1.8572,1.8625,1.8822,1.9333,1.9272,1.8753,1.9912,2.0067,1.9543,1.9889,1.9795,1.9435,1.9297,1.855,1.749,1.6634,1.6178,0.0,0.0,1.7147,1.7801,1.9666,2.0104,2.0027,2.0428,1.9703,1.8449,1.7109,1.6746,1.6785,1.7266,1.803,1.8566,1.7985,1.8387,1.8572,1.7899,1.7939,1.8142,1.818,1.7335,1.6812,1.7242,1.6408,1.5795,1.5996,1.5732,1.5589,1.5867,1.4925,1.4554,1.5203,1.5836,1.5703,1.4489,1.4532,1.4171,1.3123,1.2182,1.1472,1.1012,1.056,1.0149,0.9974,0.9862,0.9182,0.8236,0.8144,0.7397,0.6203,0.6056,0.5652,0.5188,0.5099,0.5013,0.4924,0.4921,0.5013,0.5104,0.5282,0.5371,0.546,0.6171,0.6169,0.5808,0.0,0.0,0.0,0.0,0.0,0.0,0.0,0.0,0.0,0.0,0.0,0.0,0.0,0.0,0.0,0.0,0.0,0.0,0.0,1.7451,1.9046,2.0633,2.0812,2.0875,2.0838,2.0848,2.0472,1.9708,1.9512,1.9093,1.8625,1.8614,1.8667,1.8863,1.9341,1.9183,1.8543,1.9506,1.9516,1.8944,1.9365,1.9436,1.94,1.9393,1.8992,1.8307,1.6792,1.6086,0.0,1.5649,1.6348,1.751,1.8694,1.9196,1.9396,1.9648,1.8007,1.6298,1.6886,1.7126,1.7401,1.844,1.8899,1.9156,1.9201,1.8677,1.8262,1.8154,1.7903,1.7726,1.8046,1.7111,1.6497,1.7149,1.61,1.551,1.6193,1.5873,1.5586,1.5436,1.4689,1.4149,1.4119,1.5242,1.5536,1.426,1.4394,1.4174,1.3195,1.1989,1.1273,1.1056,1.0509,1.013,0.9938,0.9895,0.9426,0.8428,0.8314,0.7456,0.5863,0.5447,0.4836,0.43,0.4569,0.4837,0.501,0.501,0.5102,0.5193,0.5282,0.5191,0.5193,0.5727,0.5636,0.5277,0.0,0.0,0.0,0.0,0.0,0.0,0.0,0.0,0.0,0.0,0.0,0.0,0.0,0.0,0.0,0.0,0.0,0.0,0.0,1.7156,1.8884,2.062,2.0772,2.0772,2.0699,2.0536,2.0258,1.9991,1.9198,1.8946,1.9186,1.8762,1.8721,1.8987,1.9011,1.9203,1.9515,1.9415,1.9665,2.01,1.9648,1.9559,1.9622,1.971,1.8933,1.7605,1.6515,0.0,1.5858,1.4305,1.5262,1.6967,1.5967,1.7501,1.937,1.7681,1.5957,1.5033,1.717,1.6166,1.5257,1.8302,1.8505,1.802,1.8221,1.7497,1.6911,1.7172,1.7051,1.7134,1.8086,1.792,1.7628,1.7657,1.7226,1.6729,1.6332,1.6782,1.6587,1.5008,1.538,1.4797,1.2422,1.3773,1.5,1.5308,1.5562,1.481,1.2751,1.2839,1.2606,1.1849,1.1046,1.0682,1.0682,0.9922,0.9229,0.8432,0.8425,0.7556,0.5866,0.4891,0.4385,0.43,0.4569,0.4837,0.501,0.501,0.4924,0.475,0.4924,0.4743,0.4389,0.5193,0.5727,0.6086,0.0,0.0,0.0,0.0,0.0,0.0,0.0,0.0,0.0,0.0,0.0,0.0,0.0,0.0,0.0,0.0,0.0,0.0,0.0,1.5408,1.7182,1.8904,2.0215,2.0785,2.0398,2.0372,2.0055,1.9344,1.9052,1.8839,1.8679,1.8614,1.8679,1.8839,1.8548,1.836,1.8313,1.8158,1.8092,1.8159,1.8986,1.9293,1.9279,1.8958,1.8323,1.7313,0.0,0.0,1.4594,1.3716,1.4273,1.5402,1.5833,1.6373,1.6494,1.4728,1.5205,1.6221,1.558,1.6165,1.7224,1.8371,1.9219,1.9724,1.9775,1.9633,1.9403,1.9374,1.8183,1.7174,1.7511,1.6693,1.6035,1.617,1.5902,1.5993,1.6929,1.5936,1.5498,1.6681,1.5186,1.4351,1.5271,1.5155,1.467,1.3601,1.4523,1.4697,1.3717,1.3085,1.2405,1.1655,1.1224,1.0646,1.0015,0.9887,0.9624,0.9229,0.8134,0.7021,0.5756,0.4931,0.4442,0.43,0.4569,0.4837,0.501,0.5191,0.5102,0.4924,0.501,0.4743,0.4387,0.4921,0.5191,0.5287,0.0,0.0,0.0,0.0,0.0,0.0,0.0,0.0,0.0,0.0,0.0,0.0,0.0,0.0,0.0,0.0,0.0,1.1429,0.0,0.0,1.523,1.6767,1.8133,1.8674,1.8333,1.8608,1.8523,1.8082,1.8436,1.856,1.8464,1.8625,1.8786,1.9011,1.8494,1.8213,1.8061,1.7799,1.7634,1.7512,1.8092,1.8373,1.8388,1.7583,1.6857,0.0,0.0,0.0,1.3011,1.2323,1.3119,1.4482,1.466,1.4666,1.4611,1.4553,1.536,1.6303,1.6066,1.7078,1.8389,1.9101,1.9918,2.0547,2.0522,2.0233,2.0091,2.0193,1.8735,1.7362,1.7143,1.6286,1.5652,1.5795,1.5655,1.6059,1.7502,1.6709,1.6306,1.697,1.5381,1.4519,1.5181,1.494,1.4204,1.3017,1.3919,1.4271,1.3484,1.2782,1.2255,1.1881,1.1477,1.0853,1.0006,0.9887,0.9727,0.9628,0.7935,0.6828,0.6239,0.5156,0.4438,0.412,0.4541,0.4775,0.4851,0.5142,0.5099,0.4743,0.4743,0.4476,0.4121,0.4565,0.4837,0.4846,0.0,0.0,0.0,0.0,0.0,0.0,0.0,0.0,0.0,0.0,0.0,0.0,0.0,0.0,0.0,0.0,0.0,0.0,0.0,0.0,0.0,1.4389,1.4708,1.4869,1.4879,1.5367,1.584,1.6172,1.7157,1.7882,1.8331,1.8436,1.871,1.9123,1.8553,1.8407,1.856,1.807,1.794,1.7938,1.6956,1.6699,1.6791,1.575,0.0,0.0,0.0,1.2063,1.1282,1.0263,1.1951,1.4232,1.2758,1.28,1.3988,1.6885,1.6341,1.5494,1.8412,1.8794,1.8711,2.031,2.0688,2.0625,2.0375,1.9599,1.9024,1.9696,1.8632,1.7448,1.6898,1.6473,1.6227,1.6317,1.6382,1.6749,1.7788,1.8807,1.8489,1.5882,1.6035,1.5283,1.2519,1.3344,1.3877,1.3546,1.3803,1.3434,1.226,1.2138,1.2202,1.261,1.1903,1.1213,1.0668,1.0015,0.9628,0.9628,0.7935,0.7165,0.703,0.5375,0.4292,0.3894,0.4406,0.4586,0.4426,0.48,0.4743,0.43,0.43,0.4032,0.3587,0.4032,0.4484,0.4761,0.0,0.0,0.0,0.0,0.0,0.0,0.0,0.0,0.0,0.0,0.0,0.0,0.0,0.0,0.0,0.0,0.0,0.0,0.0,0.0,0.0,0.0,0.0,0.0,0.0,0.0,0.0,1.3264,1.3593,1.407,1.4708,1.4356,1.4759,1.5807,1.4681,1.4588,1.5267,1.4685,1.438,1.4313,0.0,1.4319,1.3939,0.0,0.0,0.0,0.0,1.1015,1.0609,1.025,1.2058,1.4689,1.5812,1.6371,1.6581,1.6727,1.7339,1.8055,1.8078,1.9137,2.0239,2.044,2.0819,2.1163,2.0973,2.0975,2.0795,1.9933,1.7835,1.576,1.4528,1.3201,1.2589,1.366,1.3801,1.4554,1.6802,1.6712,1.6722,1.7563,1.6756,1.599,1.5766,1.5545,1.4799,1.3117,1.3583,1.3795,1.3483,1.3027,1.2705,1.238,1.1818,1.1213,1.0668,1.0015,0.9628,0.9628,0.7935,0.7165,0.703,0.5375,0.4485,0.4242,0.4399,0.4526,0.464,0.4889,0.4563,0.4028,0.4208,0.3853,0.3317,0.3045,0.3588,0.4316,0.0,0.0,0.0,0.0,0.0,0.0,0.0,0.0,0.0,0.0,0.0,0.0,0.0,0.0,0.0,0.0,0.0,0.0,0.0,0.0,0.0,0.0,0.0,0.0,0.0,0.0,0.0,0.0,0.0,0.0,1.3082,1.2842,1.3203,1.4038,1.3067,1.2979,1.3579,1.3073,0.0,0.0,0.0,0.0,0.0,0.0,0.0,0.0,0.0,1.0416,1.0662,1.2063,1.3389,1.4938,1.7785,1.8282,1.797,1.8794,1.9167,1.9303,1.9352,2.0079,2.0786,2.0604,2.0962,2.1139,2.0087,2.0339,2.0225,1.8304,1.6596,1.4947,1.3324,1.2242,1.1954,1.3091,1.3719,1.4788,1.6785,1.6753,1.6788,1.7581,1.6775,1.6163,1.6355,1.6076,1.5211,1.3519,1.3575,1.3474,1.2997,1.2517,1.2302,1.2297,1.1997,1.1487,1.0668,1.0312,0.993,0.9628,0.8333,0.7789,0.7801,0.5968,0.5032,0.4848,0.4482,0.4322,0.4394,0.4603,0.4387,0.3939,0.3941,0.3494,0.2688,0.2508,0.269,0.2873,0.0,0.0,0.0,0.0,0.0,0.0,0.0,0.0,0.0,0.0,0.0,0.0,0.0,0.0,0.0,0.0,0.0,0.0,0.0,0.0,0.0,0.0,0.0,0.0,0.0,0.0,0.0,0.0,0.0,0.0,0.0,0.0,0.0,0.0,0.0,0.0,0.0,0.0,0.0,0.0,0.0,0.0,0.0,0.0,0.0,0.0,0.0,1.017,1.1004,1.4324,1.5116,1.5402,1.9101,1.9434,1.8978,2.1482,2.102,1.9842,2.0927,2.0928,2.0669,2.0669,2.0983,2.0826,1.9052,1.8958,1.8612,1.6113,1.5222,1.4427,1.2809,1.2519,1.2786,1.3585,1.4666,1.5716,1.6666,1.7397,1.7562,1.6819,1.6468,1.6201,1.5839,1.5823,1.5327,1.4202,1.3867,1.3189,1.1986,1.1594,1.1706,1.2286,1.2309,1.1892,1.091,1.0754,1.0386,0.9686,0.8817,0.8432,0.8517,0.6666,0.5631,0.5352,0.4716,0.4253,0.3973,0.4291,0.4119,0.376,0.3676,0.3047,0.215,0.197,0.1613,0.0986,0.0,0.0,0.0,0.0,0.0,0.0,0.0,0.0,0.0,0.0,1.2357,1.1779,0.0,0.0,0.0,0.0,0.0,0.0,0.0,0.0,0.0,0.0,0.0,0.0,0.0,0.7541,0.7382,0.742,0.7656,0.0,0.0,0.0,0.0,0.0,0.0,0.0,0.0,0.0,0.0,0.0,0.0,0.0,0.0,0.0,0.0,0.0,0.9542,1.017,1.0991,0.0,1.5775,1.7102,2.0269,2.1411,2.1579,2.1436,2.1164,2.0765,2.0284,2.0392,2.0669,2.0669,2.0736,2.0767,2.0534,1.9501,1.8092,1.6155,1.4502,1.3231,1.276,1.2406,1.2529,1.3615,1.3799,1.3768,1.3608,1.537,1.6646,1.6651,1.6732,1.7017,1.7508,1.6148,1.4985,1.4394,1.471,1.4338,1.29,1.2583,1.2431,1.2303,1.2474,1.2254,1.1723,1.106,1.0596,1.0441,0.9053,0.8035,0.7425,0.6285,0.539,0.4773,0.4809,0.4539,0.3974,0.4634,0.4295,0.3315,0.3497,0.2869,0.1793,0.0986,0.0538,-0.0,0.0,0.0,0.0,0.0,0.0,0.0,0.0,1.3968,1.3125,1.2247,1.1422,1.0924,1.0924,1.0124,0.9492,0.0,0.0,0.0,0.0,0.0,0.0,0.0,0.0,0.0,0.0,0.77,0.7452,0.6944,0.0,0.7163,0.7279,0.6816,0.6946,0.7553,0.7302,0.7436,0.7846,0.0,0.0,0.7458,0.7385,0.7182,0.0,0.0,0.0,0.0,0.0,0.9895,1.0373,1.2994,1.4451,1.5929,2.0179,2.1897,2.2153,2.1031,2.0997,2.1058,1.989,2.0182,2.0786,2.0786,2.0786,2.0364,1.8657,1.8004,1.6823,1.3621,1.2459,1.1858,1.1151,1.1035,1.1458,1.2892,1.3644,1.4152,1.4491,1.5851,1.6722,1.6538,1.6259,1.6207,1.6422,1.5493,1.4672,1.4201,1.4355,1.4019,1.3171,1.2966,1.2857,1.2724,1.2978,1.2727,1.166,1.1492,1.091,1.0166,0.9383,0.8882,0.8492,0.7209,0.642,0.6256,0.553,0.4745,0.4102,0.4504,0.3953,0.2911,0.2744,0.1973,0.0987,-0.0,-0.1076,-0.2151,0.0,0.0,0.0,0.0,0.0,0.0,0.0,1.3575,1.264,1.1665,1.0751,1.0191,1.016,0.9508,0.9047,0.0,0.0,0.0,0.0,0.0,0.0,0.0,0.0,0.0,0.0,0.0,0.0,0.7213,0.7294,0.0,0.0,0.0,0.0,0.0,0.6824,0.6924,0.6944,0.696,0.6977,0.0,0.0,0.698,0.0,0.0,0.0,0.0,0.0,0.9435,0.9762,1.1796,1.2884,1.4217,1.8805,2.0729,2.1174,2.0355,2.0485,2.0714,1.9796,2.019,2.0839,2.0903,2.0903,2.0098,1.7128,1.6706,1.5761,1.1723,1.0954,1.0834,1.0195,1.0255,1.1002,1.2733,1.3701,1.4605,1.5679,1.6394,1.6753,1.6655,1.6069,1.5668,1.5734,1.5156,1.4672,1.4308,1.3917,1.3515,1.3165,1.3137,1.3137,1.3137,1.3483,1.3077,1.1966,1.1887,1.1288,1.0091,0.9649,0.9397,0.9344,0.7907,0.729,0.7356,0.5955,0.4834,0.4076,0.4098,0.3538,0.2537,0.1926,0.1166,0.0269,-0.0986,-0.2419,-0.3855,0.0,0.0,0.0,0.0,0.0,0.0,0.0,1.3497,1.2153,1.1736,1.1014,1.0173,0.9152,0.8394,0.7975,0.0,0.0,0.0,0.0,0.0,0.0,0.0,0.0,0.0,0.0,0.0,0.0,0.7906,0.714,0.0,0.0,0.0,0.0,0.0,0.0,0.7085,0.6841,0.7075,0.0,0.0,0.0,0.0,0.0,0.0,0.0,0.0,0.0,0.8671,0.9568,1.1232,1.2405,1.3511,1.558,1.6942,1.8051,1.9371,1.9566,1.9611,2.0483,2.0737,2.0733,2.0839,2.0903,2.0523,1.8943,1.7335,1.5532,1.3314,1.1524,1.0695,1.1768,1.1895,1.244,1.4279,1.3531,1.3233,1.4707,1.5174,1.5884,1.7173,1.685,1.6908,1.7961,1.6254,1.5146,1.5328,1.4349,1.3593,1.3385,1.3228,1.3137,1.3398,1.3398,1.3417,1.3468,1.2445,1.187,1.1641,0.9867,0.8698,0.7994,0.7423,0.6737,0.6079,0.5325,0.4574,0.3836,0.3749,0.3191,0.2373,0.1662,0.0987,0.0179,-0.1968,-0.2953,-0.3583,0.0,0.0,0.0,0.0,0.0,0.0,1.5018,1.3702,1.2266,1.0971,1.0728,1.0199,0.8978,0.8396,0.8041,0.7914,0.0,0.0,0.0,0.0,0.0,0.0,0.0,0.0,0.0,0.0,0.8085,0.8233,0.7578,0.0,0.0,0.0,0.0,0.0,0.0,0.7006,0.6911,0.6944,0.0,0.0,0.0,0.0,0.0,0.0,0.0,0.0,0.0,0.0,0.8576,0.9754,1.0424,1.0992,1.2162,1.3176,1.4374,1.6262,1.7874,1.9041,1.8771,1.9817,2.1042,2.1094,2.1094,2.0453,1.8038,1.6769,1.5309,1.2281,1.113,1.0721,1.0838,1.1035,1.1565,1.2842,1.285,1.3413,1.546,1.6186,1.6914,1.8072,1.7871,1.7444,1.6925,1.5854,1.5007,1.4633,1.4066,1.3909,1.4193,1.4122,1.3802,1.3222,1.3886,1.3711,1.2592,1.1956,1.1461,1.0947,0.9723,0.8825,0.8335,0.7643,0.7217,0.6783,0.5738,0.472,0.3912,0.4199,0.3115,0.1465,0.1376,0.0895,-0.0179,-0.2771,-0.3842,-0.4548,0.0,0.0,0.0,0.0,0.0,1.6132,1.5567,1.4203,1.2795,1.1525,1.1015,1.0386,0.9413,0.8902,0.8559,0.8325,0.7974,0.0,0.0,0.0,0.0,0.0,0.0,0.0,0.0,0.0,0.8388,0.8521,0.7934,0.7671,0.0,0.0,0.7269,0.7099,0.0,0.0,0.0,0.0,0.0,0.0,0.0,0.0,0.0,0.0,0.0,0.0,0.0,0.0,0.0,0.0,0.0,0.9141,0.9812,0.0,0.0,1.4013,1.658,1.8501,1.8021,1.9584,2.136,2.1285,2.0876,1.9815,1.7128,1.5821,1.4385,1.1437,1.0714,1.0532,1.0212,1.0411,1.0939,1.1976,1.2475,1.35,1.5669,1.628,1.693,1.7988,1.7852,1.7322,1.6534,1.588,1.5274,1.4706,1.4429,1.452,1.4989,1.5057,1.449,1.3426,1.4246,1.3881,1.2283,1.1786,1.1286,1.0698,0.979,0.906,0.8299,0.7982,0.7444,0.6694,0.5758,0.4866,0.402,0.3929,0.2765,0.1143,0.0942,0.0179,-0.1164,-0.3571,-0.4816,-0.578,0.0,0.0,0.0,0.0,0.0,0.0,1.702,1.5089,1.3715,1.4021,1.2216,1.0792,1.0512,0.9874,0.9418,0.9303,0.8259,0.0,0.0,0.0,0.0,0.0,0.0,0.0,0.0,0.0,0.8669,0.8791,0.8119,0.7822,0.7898,0.7478,0.7474,0.7798,0.0,0.0,0.0,0.0,0.0,0.0,0.0,0.0,0.0,0.0,0.0,0.0,0.0,0.0,0.0,0.0,0.0,0.0,0.0,0.0,0.0,0.0,1.5884,1.7909,1.9239,2.0606,2.1635,2.1463,2.019,1.8562,1.6888,1.4628,1.2596,1.1339,1.0535,1.0097,1.0421,1.0545,1.107,1.2467,1.2707,1.3247,1.4808,1.4686,1.5045,1.6642,1.6379,1.6447,1.7591,1.6786,1.6229,1.6156,1.5745,1.5488,1.5496,1.5677,1.5305,1.4095,1.4462,1.421,1.3143,1.2064,1.1482,1.1482,1.0297,0.8989,0.7525,0.8206,0.7144,0.4882,0.5213,0.491,0.4072,0.2527,0.1895,0.1794,0.0262,-0.1432,-0.3038,-0.4455,-0.5789,-0.7295,0.0,0.0,0.0,0.0,0.0,0.0,0.0,1.4599,1.3357,1.3227,1.2026,1.1116,1.094,0.9776,0.9318,1.0057,0.896,0.0,0.0,0.0,0.0,0.0,0.0,0.0,0.0,0.0,0.8711,0.9077,0.8633,0.8394,0.837,0.8307,0.8215,0.8141,0.8164,0.817,0.0,0.0,0.0,0.0,0.0,0.0,0.7946,0.0,0.0,0.0,0.0,0.0,0.0,0.0,0.0,0.0,0.0,0.0,0.0,1.1579,1.3496,1.5441,1.5804,1.7265,1.865,1.8501,1.7803,1.6797,1.5516,1.3891,1.2352,1.1365,1.0769,1.051,1.0787,1.0968,1.152,1.29,1.2994,1.3765,1.6154,1.5904,1.6029,1.7498,1.7002,1.6667,1.7073,1.6398,1.604,1.6186,1.5648,1.5505,1.5939,1.639,1.5928,1.4177,1.4379,1.3951,1.2875,1.217,1.1706,1.1531,1.0219,0.8843,0.7682,0.8218,0.745,0.572,0.5949,0.5763,0.5044,0.3042,0.215,0.1876,0.061,-0.0804,-0.2322,-0.4101,-0.6455,-0.9275,0.0,0.0,0.0,0.0,0.0,0.0,0.0,1.4985,1.4074,1.3371,1.2308,1.156,1.1486,1.0385,0.9973,1.0762,0.9865,0.0,0.0,0.0,0.0,0.0,0.0,0.0,0.0,0.8696,0.8838,0.9162,0.8983,0.8843,0.8792,0.8716,0.873,0.8737,0.8595,0.8607,0.0,0.0,0.0,0.0,0.0,0.0,0.8334,0.0,0.0,0.0,0.0,0.0,0.0,0.0,0.0,0.0,0.0,0.0,0.0,0.0,1.1678,1.3307,1.3899,1.5405,1.6798,1.6681,1.5823,1.4826,1.4123,1.2574,1.1184,1.0978,1.103,1.1094,1.1003,1.1513,1.2044,1.232,1.3085,1.4095,1.5306,1.5432,1.5584,1.617,1.6158,1.6287,1.6751,1.6328,1.616,1.6403,1.6087,1.6087,1.6648,1.6514,1.5882,1.4816,1.4875,1.4203,1.2705,1.2096,1.1688,1.1604,1.0194,0.8928,0.77,0.836,0.7528,0.5577,0.6294,0.6189,0.0,0.3337,0.2443,0.2112,-0.0088,-0.1784,-0.3032,-0.4721,-0.749,-1.0969,0.0,0.0,0.0,0.0,0.0,0.0,0.0,1.5923,1.5435,1.4293,1.2907,1.204,1.2095,1.1397,1.1035,1.1286,0.0,0.0,0.0,0.0,0.0,0.0,0.0,0.0,0.0,0.8904,0.9038,0.9092,0.9162,0.9162,0.9108,0.8841,0.9004,0.9473,0.9095,0.9009,0.0,0.0,0.0,0.0,0.0,0.0,0.0,0.0,0.0,0.0,0.0,0.0,0.0,0.0,0.0,0.0,0.0,0.0,0.0,0.0,0.0,0.0,0.0,1.4641,1.5764,1.5727,1.4197,1.2737,1.2734,1.0865,0.0,1.0454,1.1374,1.1836,1.1259,1.2234,1.2645,1.118,1.3142,1.435,1.3024,1.3676,1.4016,1.3219,1.4192,1.5364,1.6514,1.6429,1.641,1.6811,1.6908,1.7073,1.7477,1.6154,1.5514,1.5849,1.5858,1.4866,1.279,1.2079,1.1628,1.1481,1.038,0.9078,0.7574,0.8593,0.7462,0.4698,0.6408,0.6508,0.527,0.322,0.2592,0.2586,-0.1696,-0.3748,-0.4623,-0.5866,-0.8892,-1.2548,0.0,0.0,0.0,0.0,0.0,0.0,0.0,0.0,0.0,0.0,1.2651,1.1488,1.1889,1.0301,0.9514,0.0,0.0,0.0,0.0,0.0,0.0,0.0,0.0,0.0,0.0,0.9104,0.9092,0.9092,0.9108,0.9108,0.9092,0.8966,0.9138,0.9485,0.9341,0.9411,0.0,0.0,0.0,0.0,0.0,0.0,0.0,0.0,0.0,0.0,0.9676,0.9676,0.0,0.0,0.0,0.0,0.0,0.0,0.0,0.0,1.0087,1.0496,1.1038,0.0,1.3351,1.2851,1.2043,1.1318,0.0,0.0,0.0,0.0,0.0,0.0,0.0,1.367,1.3957,1.268,1.3909,1.4817,1.4224,1.43,1.3909,1.2648,1.4032,1.499,1.4923,1.5615,1.6197,1.6385,1.6612,1.6863,1.727,1.7217,1.7055,1.6789,1.6919,1.5703,1.3052,1.3101,1.2296,1.0583,0.9785,0.8541,0.7043,0.7776,0.7177,0.5555,0.6665,0.6694,0.5822,0.3127,0.2834,0.3585,-0.1596,-0.3356,-0.3211,-0.539,-1.0018,-1.539,0.0,0.0,0.0,0.0,0.0,0.0,0.0,0.0,0.0,0.0,0.0,0.0,0.0,0.0,0.0,0.0,0.0,0.0,0.0,0.0,0.0,0.0,0.0,0.0,0.9354,0.9124,0.9054,0.9135,0.9108,0.9092,0.9092,0.9135,0.9244,0.9405,0.9499,0.9646,0.0,0.0,0.0,0.0,0.988,0.0,0.0,0.0,0.0,0.0,0.9995,0.997,0.0,0.9325,0.9207,0.9262,0.0,0.0,0.0,0.0,0.977,0.985,1.001,1.0804,1.1736,1.2293,1.1568,1.0804,1.1113,0.0,0.0,0.0,0.0,0.0,0.0,1.2666,1.261,1.2396,1.2815,1.3514,1.4409,1.4438,1.3982,1.3041,1.3523,1.4092,1.4333,1.5305,1.5975,1.6245,1.6403,1.6652,1.7054,1.6893,1.6798,1.6696,1.6591,1.564,1.3711,1.3567,1.2432,1.0223,0.9586,0.8654,0.7351,0.7784,0.745,0.6492,0.6613,0.6189,0.5367,0.287,0.2035,0.1839,-0.2722,-0.4384,-0.4622,-0.7642,-1.2027,-1.6708,0.0,0.0,0.0,0.0,0.0,0.0,0.0,0.0,0.0,0.0,0.0,0.0,0.0,0.0,0.0,0.0,0.0,0.0,0.0,0.0,0.0,0.0,0.0,0.979,0.9422,0.9112,0.9042,0.9217,0.9135,0.912,0.9135,0.9205,0.9274,0.9339,0.9579,0.9736,0.0,0.0,0.9944,0.9995,1.0046,0.0,0.0,0.0,0.0,0.0,0.0,0.0,0.0,0.9377,0.926,0.929,0.9233,0.0,0.0,0.0,0.0,0.0,0.9555,0.9918,1.0738,1.267,1.1798,1.0689,1.165,0.0,0.0,0.0,0.0,0.0,1.1954,1.1715,1.1398,1.1583,1.1434,1.2001,1.4058,1.426,1.408,1.37,1.3313,1.3406,1.44,1.5249,1.5839,1.6175,1.6272,1.6448,1.6918,1.613,1.5889,1.6246,1.5807,1.5146,1.4317,1.3614,1.2189,0.9958,0.9642,0.8871,0.7792,0.8049,0.7745,0.7044,0.622,0.5391,0.446,0.2318,0.049,-0.123,-0.453,-0.6201,-0.7121,-1.0665,-1.4207,-1.7709,0.0,0.0,0.0,0.0,0.0,0.0,0.0,0.0,0.0,0.0,0.0,0.0,0.0,0.0,0.0,0.0,0.0,0.0,0.0,0.0,0.0,0.0,1.0481,1.0008,0.9502,0.9369,0.9274,0.9217,0.9135,0.9162,0.9259,0.9069,0.9112,0.9408,0.9593,0.9736,0.9802,0.988,0.9944,1.0021,1.026,0.0,0.0,0.0,0.0,0.0,0.0,0.0,0.0,0.9881,0.9601,0.9236,0.8895,0.0,0.0,0.0,0.0,0.0,0.9399,0.9764,1.0532,1.2127,1.1299,1.0275,1.1062,0.9743,0.0,0.0,0.0,0.0,1.3504,1.5205,1.5475,1.214,1.2389,1.3174,1.368,1.3841,1.38,1.3546,1.4354,1.4894,1.4616,1.5194,1.566,1.5842,1.6,1.6307,1.6709,1.626,1.6243,1.6616,1.5807,1.4803,1.3767,1.3583,1.2113,0.9324,0.9413,0.8644,0.7125,0.7383,0.6944,0.5947,0.5118,0.4493,0.3806,0.0431,-0.1975,-0.3974,-0.7194,-0.8361,-0.8525,-1.1383,-1.5486,-2.0581,0.0,0.0,0.0,0.0,0.0,0.0,0.0,0.0,0.0,0.0,0.0,0.0,0.0,0.0,0.0,0.0,0.0,0.0,0.0,0.0,0.0,1.0623,1.047,1.0223,0.979,0.9672,0.9567,0.9473,0.9366,0.9301,0.9301,0.922,0.9274,0.9473,0.9632,0.9776,0.9905,0.9944,0.9995,1.0097,0.0,0.0,0.0,0.0,0.0,0.0,0.0,0.0,0.0,0.0,0.9338,0.9118,0.8675,0.0,0.0,0.0,0.0,0.0,0.8639,0.8955,0.9911,1.2554,1.1964,1.1299,1.3555,1.1338,0.9941,0.0,0.0,1.058,1.3258,1.3093,1.2218,1.1347,1.3434,1.4936,1.4129,1.4307,1.4508,1.4481,1.4773,1.4903,1.4748,1.5318,1.5687,1.5788,1.5867,1.6016,1.6197,1.5756,1.5494,1.5411,1.4585,1.3693,1.2743,1.2306,1.1075,0.9076,0.9976,0.9293,0.7241,0.7315,0.6957,0.6103,0.4752,0.4023,0.3708,0.1454,-0.1803,-0.545,-0.6881,-0.8928,-1.1575,-1.6023,-2.066,-2.5314,0.0,0.0,0.0,0.0,0.0,0.0,0.0,0.0,0.0,0.0,0.0,0.0,0.0,0.0,0.0,0.0,0.0,0.0,0.0,0.0,1.0907,1.047,1.0472,1.0311,0.997,0.9893,0.9802,0.971,0.9567,0.9422,0.9259,0.9328,0.942,0.9485,0.9617,0.9776,0.9944,0.9995,1.0021,1.0122,0.0,0.0,0.0,0.0,0.0,0.0,0.0,0.0,0.0,0.0,0.0,0.0,0.0,0.0,0.0,0.8278,0.8183,0.8027,0.791,0.8273,0.9384,1.2367,0.0,1.1637,1.5611,1.2522,1.0106,1.4634,1.1556,0.9226,1.3013,1.1213,0.9659,1.1211,1.4102,1.5831,1.4734,1.4874,1.5149,1.5375,1.5103,1.4878,1.5007,1.5495,1.5762,1.5528,1.559,1.5556,1.5331,1.4891,1.4459,1.4088,1.3222,1.243,1.1787,1.1156,1.029,0.9303,1.0307,0.9542,0.7359,0.7426,0.7003,0.6073,0.4465,0.316,0.2096,0.1312,-0.2231,-0.725,-0.7636,-1.0688,-1.5523,-2.0657,-2.5014,-2.8532,0.0,0.0,0.0,0.0,0.0,0.0,0.0,0.0,0.0,0.0,0.0,0.0,0.0,0.0,0.0,0.0,0.0,0.0,0.0,0.0,1.0667,1.0949,1.0594,1.0236,0.9931,1.0021,0.9944,0.971,0.9567,0.9381,0.9108,0.9259,0.9328,0.9408,0.9552,0.9684,0.9828,0.9944,0.9995,1.0046,1.0361,0.0,0.0,0.0,0.0,0.0,0.0,0.0,0.0,0.0,0.0,0.0,0.0,0.0,0.8097,0.755,0.7768,0.8096,0.765,0.8196,0.9188,1.0494,0.9608,0.9794,1.5055,1.1682,0.0,1.384,1.3578,1.274,1.3768,1.3042,1.2469,1.3052,1.4013,1.483,1.5014,1.5069,1.5235,1.5632,1.5638,1.5615,1.565,1.5739,1.5503,1.4863,1.4975,1.4765,1.4089,1.3729,1.3477,1.3501,1.2112,1.1292,1.1224,1.0919,1.0598,1.0185,0.9873,0.8827,0.7186,0.7447,0.6623,0.5098,0.4159,0.1366,-0.2664,-0.251,-0.5466,-1.0239,-1.205,-1.5559,-2.0148,-2.3099,-2.5664,-2.7681,0.0,0.0,0.0,0.0,0.0,0.0,0.0,0.0,0.0,0.0,0.0,0.0,0.0,0.0,0.0,0.0,0.0,0.0,0.0,0.0,1.0726,1.0396,1.0386,1.0374,1.0261,1.0361,1.0273,1.0021,0.979,0.9593,0.9405,0.9552,0.9567,0.9526,0.9658,0.9802,0.9931,0.9931,1.0072,1.0336,1.0632,1.0545,0.0,0.0,0.0,0.0,0.0,0.0,0.0,0.0,0.9187,0.8862,0.8018,0.7757,0.775,0.7679,0.784,0.7956,0.7695,0.7736,0.857,1.1581,0.9717,0.0,0.0,1.2199,1.0363,1.5088,1.3179,1.0851,1.1406,1.2294,1.299,1.3293,1.4028,1.461,1.4731,1.4946,1.5157,1.5304,1.5422,1.5548,1.5712,1.5332,1.5053,1.4933,1.4664,1.4347,1.4073,1.3647,1.3121,1.2577,1.1935,1.1309,1.0621,1.0399,1.0003,0.9311,0.9404,0.8609,0.7161,0.6073,0.5386,0.4865,0.2892,0.0242,-0.2908,-0.4518,-0.7271,-1.0757,-1.4365,-1.7926,-2.1381,-2.4304,-2.6481,-2.8187,0.0,0.0,0.0,0.0,0.0,0.0,0.0,0.0,0.0,0.0,0.0,0.0,0.0,0.0,0.0,0.0,0.0,0.0,1.1378,1.1162,1.0855,1.0371,1.0361,1.0399,1.0498,1.0498,1.0436,1.0298,0.9957,0.9736,0.9591,0.971,0.971,0.9564,0.9736,0.9854,0.9944,1.0021,1.0223,1.0485,1.0777,1.0715,0.0,0.0,0.0,0.0,0.0,0.0,0.0,0.0,0.9239,0.8645,0.8009,0.7659,0.7499,0.7665,0.7753,0.7753,0.7532,0.7366,0.805,1.1484,0.0,0.0,1.3846,1.2266,1.0863,1.509,1.3665,1.1711,1.1878,1.2981,1.3771,1.37,1.4119,1.4494,1.4478,1.4744,1.4909,1.4909,1.5079,1.523,1.5358,1.4989,1.4635,1.4513,1.4164,1.3852,1.3607,1.3204,1.2699,1.2226,1.1618,1.1025,1.0503,0.988,0.9218,0.8532,0.8449,0.7838,0.6623,0.5071,0.4142,0.3604,0.2151,-0.0645,-0.4247,-0.6854,-0.978,-1.2991,-1.6869,-2.0014,-2.2603,-2.5004,-2.6777,-2.8251,0.0,0.0,0.0,0.0,0.0,0.0,0.0,0.0,0.0,0.0,0.0,0.0,0.0,0.0,0.0,0.0,0.0,0.0,1.2408,1.152,1.1043,1.1113,1.0594,1.0374,1.0498,1.0374,1.0374,1.0498,1.0034,0.9736,0.9617,0.9658,0.9644,0.9523,0.9722,0.9827,0.9828,1.0248,1.0409,1.0434,1.0763,1.0777,1.0597,0.0,0.0,0.0,0.0,0.0,0.0,0.0,0.955,0.8932,0.7926,0.7512,0.7392,0.7357,0.7455,0.7518,0.7144,0.7164,0.7731,0.9544,0.0,0.0,1.3745,1.1647,0.9764,1.3354,1.5529,1.6622,1.6148,1.5711,1.5169,1.4411,1.4357,1.4443,1.4514,1.4515,1.4515,1.4515,1.4653,1.4773,1.4613,1.4684,1.4349,1.3476,1.3379,1.3107,1.2321,1.2037,1.2131,1.2575,1.0889,1.0297,1.0854,0.9432,0.8491,0.8075,0.708,0.6234,0.5544,0.4761,0.3046,0.0862,0.196,-0.136,-0.7623,-0.98,-1.3404,-1.7652,-1.9725,-2.2072,-2.4334,-2.5511,-2.6574,-2.7694,0.0,0.0,0.0,0.0,0.0,0.0,0.0,0.0,0.0,0.0,0.0,0.0,0.0,0.0,0.0,0.0,0.0,0.0,1.2574,1.1969,1.1534,1.1328,1.0879,1.0656,1.0705,1.0656,1.0621,1.0572,1.0386,1.0211,1.0021,1.0046,0.9919,0.9759,1.0902,1.0825,0.9955,1.1407,1.1382,1.0458,1.0973,1.1071,1.0897,0.0,0.0,0.0,0.0,0.0,0.0,0.0,0.0,0.0,0.8539,0.8067,0.8199,0.9783,0.9096,0.8091,0.9457,0.8484,0.7677,1.0108,0.9566,0.9168,0.0,1.1908,0.0,1.4089,1.4822,1.4992,1.4603,1.535,1.5648,1.4558,1.4767,1.4955,1.4538,1.4515,1.4515,1.4515,1.4487,1.4486,1.4595,1.4267,1.4046,1.3887,1.365,1.3141,1.2367,1.2523,1.2256,1.1432,1.1332,1.0923,1.017,0.9476,0.8475,0.7236,0.6559,0.5759,0.4686,0.3127,0.2035,0.1332,-0.0625,-0.3252,-0.662,-1.0924,-1.4714,-1.7916,-1.985,-2.2583,-2.5441,-2.5639,-2.7087,-2.9122,0.0,0.0,0.0,0.0,0.0,0.0,0.0,0.0,0.0,0.0,0.0,0.0,0.0,0.0,0.0,0.0,0.0,0.0,0.0,1.2321,1.1923,1.1734,1.1144,1.0777,1.0632,1.0656,1.0681,1.0681,1.0572,1.0411,1.0235,1.0185,1.0021,0.9852,1.0833,1.0762,0.9994,1.1395,1.1388,1.047,1.1227,1.1355,1.1118,0.0,0.0,0.0,0.0,0.0,0.0,0.0,0.0,0.0,0.8891,0.0,0.9503,0.9811,0.9456,0.918,1.0261,0.932,0.8784,1.1889,1.1256,1.0281,1.1858,1.2477,1.3289,1.5195,1.5761,1.5747,1.5291,1.6005,1.6248,1.5018,1.5164,1.5186,1.4565,1.4515,1.4515,1.4515,1.4396,1.4366,1.4487,1.41,1.3865,1.3977,1.3709,1.3214,1.2625,1.2758,1.2332,1.1238,1.1189,1.0666,0.9684,0.905,0.8032,0.6611,0.6205,0.5165,0.3701,0.2549,0.1865,0.1333,-0.2282,-0.5255,-0.7848,-1.2876,-1.6,-1.7787,-2.0837,-2.3458,-2.5569,-2.5499,-2.7314,-2.9978,0.0,0.0,0.0,0.0,0.0,0.0,0.0,0.0,0.0,0.0,0.0,0.0,0.0,0.0,0.0,0.0,0.0,0.0,0.0,0.0,1.2258,1.2258,1.1424,1.0801,1.0449,1.0498,1.0597,1.0753,1.0621,1.0485,1.0335,1.021,1.0046,0.9828,1.0082,1.0096,0.9957,1.0769,1.08,1.0414,1.1424,1.1526,1.1146,1.1584,0.0,0.0,0.0,0.0,0.0,0.0,0.0,0.0,0.9047,0.9916,1.0799,0.8501,0.9101,1.0447,1.0289,0.9951,1.0509,1.3996,1.3316,1.2068,1.3107,1.336,1.4099,1.6467,1.7444,1.7653,1.7258,1.7124,1.6718,1.5546,1.5355,1.5186,1.4565,1.4506,1.4515,1.4455,1.4387,1.4267,1.4267,1.4019,1.383,1.383,1.37,1.342,1.2941,1.2757,1.2364,1.153,1.0666,0.9922,0.9291,0.8388,0.7355,0.6067,0.5851,0.4737,0.2864,0.272,0.1993,0.0628,-0.3338,-0.7073,-1.0712,-1.5235,-1.7261,-1.7902,-2.2242,-2.4455,-2.5146,-2.537,-2.7538,-3.0441,0.0,0.0,0.0,0.0,0.0,0.0,0.0,0.0,0.0,0.0,0.0,0.0,0.0,0.0,0.0,0.0,0.0,0.0,0.0,0.0,1.2665,1.2665,1.1881,1.1199,1.0632,1.0705,1.0632,1.0498,1.0705,1.0777,1.0705,1.0656,1.0398,1.0007,1.1257,1.1107,1.0033,1.192,1.1589,0.9927,1.0828,1.0818,1.0349,1.1165,1.159,0.0,0.0,0.0,0.0,0.0,0.0,0.0,0.8952,0.8857,0.9449,1.0196,1.0394,1.07,1.242,1.1555,1.0522,1.2128,1.2108,1.2328,1.47,1.5064,1.5274,1.6555,1.6187,1.5864,1.6748,1.6633,1.6104,1.5134,1.5117,1.501,1.4446,1.4446,1.4455,1.4336,1.4327,1.4267,1.407,1.4139,1.4207,1.4207,1.4267,1.3614,1.2126,1.3009,1.2515,1.0271,1.0769,1.0438,0.9248,0.8093,0.7022,0.6091,0.5447,0.4703,0.3903,0.285,0.0686,-0.2484,-0.4849,-0.8645,-1.3226,-1.5794,-1.8263,-2.0681,-2.3436,-2.5075,-2.5918,-2.6264,-2.8507,-3.1423,0.0,0.0,0.0,0.0,0.0,0.0,0.0,0.0,0.0,0.0,0.0,0.0,0.0,0.0,0.0,0.0,0.0,0.0,0.0,0.0,0.0,1.2498,1.1932,1.149,1.1281,1.1118,1.0944,1.0729,1.0897,1.0944,1.0849,1.0753,1.0521,1.0224,1.099,1.0845,1.0097,1.1602,1.1493,1.0398,1.1338,1.1477,1.1171,1.1867,1.2207,1.2381,1.2706,0.0,0.0,0.0,0.0,0.0,0.0,0.0,1.014,0.9695,1.0024,1.0746,1.1648,1.1825,1.2113,1.3657,1.3851,1.3925,1.495,1.5593,1.6007,1.6198,1.5988,1.5881,1.6084,1.5781,1.5235,1.442,1.4436,1.4346,1.3812,1.3843,1.3781,1.3487,1.362,1.3785,1.3785,1.4091,1.4267,1.4267,1.395,1.3466,1.2633,1.2985,1.229,1.0438,1.0995,1.0271,0.8228,0.7555,0.6668,0.5441,0.5104,0.3509,0.0886,-0.053,-0.223,-0.4185,-0.5899,-0.911,-1.3334,-1.5554,-1.807,-2.0692,-2.338,-2.5122,-2.6114,-2.6526,-2.8787,-3.1581,0.0,0.0,0.0,0.0,0.0,0.0,0.0,0.0,0.0,0.0,0.0,0.0,0.0,0.0,0.0,0.0,0.0,0.0,0.0,0.0,0.0,1.2262,1.1936,1.1766,1.18,1.149,1.1215,1.0991,1.1108,1.1206,1.133,1.1104,1.0949,1.0859,1.073,1.047,1.016,1.0879,1.1082,1.1015,1.1902,1.2154,1.2066,1.2371,1.2477,1.2495,1.2495,1.2566,1.2455,1.1117,0.0,0.0,0.0,0.0,1.0826,0.8423,0.9114,1.0556,1.0021,1.1567,1.3783,1.584,1.5844,1.5248,1.4821,1.5516,1.6158,1.5688,1.6096,1.631,1.5406,1.4808,1.4251,1.3606,1.3591,1.3492,1.3171,1.3116,1.2911,1.2496,1.2841,1.3138,1.3261,1.3687,1.4001,1.4001,1.3322,1.2899,1.3008,1.2552,1.1725,1.0561,1.0658,0.9514,0.6895,0.6759,0.5884,0.4402,0.3928,0.124,-0.3306,-0.5078,-0.5906,-0.5899,-0.754,-1.01,-1.3341,-1.5829,-1.8154,-2.0545,-2.324,-2.5052,-2.6252,-2.6909,-2.8976,-3.157,0.0,0.0,0.0,0.0,0.0,0.0,0.0,0.0,0.0,0.0,0.0,0.0,0.0,0.0,0.0,0.0,0.0,0.0,1.2459,0.0,0.0,1.2562,1.2443,1.2102,1.1475,1.1415,1.1108,1.0597,1.1103,1.195,1.3052,1.2727,1.2667,1.2714,1.2376,1.1465,1.0235,1.0859,1.095,1.0696,1.1115,1.1132,1.0913,1.0849,1.0865,1.0913,1.0913,1.093,1.0816,0.9958,0.9697,0.0,0.0,0.0,0.8685,0.7724,0.871,1.007,0.9855,1.1477,1.3611,1.5312,1.4585,1.3852,1.529,1.5525,1.537,1.5408,1.5564,1.5429,1.46,1.3987,1.3495,1.3185,1.3014,1.2915,1.2864,1.2689,1.2513,1.2287,1.244,1.253,1.241,1.2582,1.2729,1.2729,1.2496,1.2061,1.1176,1.1337,1.0573,0.8717,0.8635,0.7747,0.5966,0.5233,0.4217,0.286,0.0139,-0.2574,-0.5217,-0.8096,-0.935,-0.9392,-1.1667,-1.4184,-1.6798,-1.8527,-2.105,-2.3906,-2.4767,-2.5652,-2.6539,-2.819,-2.9992,-3.1779,0.0,0.0,0.0,0.0,0.0,0.0,0.0,0.0,0.0,0.0,0.0,0.0,0.0,0.0,0.0,1.1162,1.0895,1.1091,1.1839,1.2195,1.2536,1.2873,1.2642,1.2392,1.2138,1.1903,1.1557,1.1057,1.121,1.2587,1.5065,1.4371,1.378,1.3401,1.3846,1.2745,1.0612,1.1776,1.1964,1.144,1.1606,1.1693,1.1703,1.1113,1.0903,1.0907,1.0591,1.0495,1.0383,0.9722,0.9553,0.9481,0.8747,0.0,0.0,0.0,0.8013,0.8917,1.1159,1.1545,1.2195,1.5922,1.4955,1.3521,1.5258,1.5424,1.5107,1.4768,1.4783,1.4681,1.4072,1.3464,1.3064,1.3059,1.2696,1.2381,1.229,1.187,1.151,1.1161,1.1631,1.1918,1.1802,1.2168,1.2239,1.1776,1.1189,1.0785,1.0743,1.0045,0.9414,0.8897,0.844,0.7307,0.5406,0.5019,0.3531,0.0906,-0.0479,-0.3142,-0.6868,-0.7432,-0.8503,-1.003,-1.255,-1.4862,-1.6968,-1.9132,-2.1869,-2.4767,-2.5334,-2.6032,-2.6921,-2.8983,-3.038,-3.1423,0.0,0.0,0.0,0.0,0.0,0.0,0.0,0.0,0.0,0.0,0.0,0.0,0.0,0.0,0.0,0.0,1.008,1.0288,1.1176,1.1712,1.2271,1.2857,1.2732,1.2659,1.2722,1.2356,1.1967,1.1542,1.1324,1.2743,1.5661,1.5325,1.4817,1.4201,1.4967,1.4065,1.2074,1.2955,1.3009,1.2561,1.2524,1.2464,1.227,1.137,1.1013,1.0905,1.0148,0.9871,0.9763,0.9125,0.9009,0.9017,0.8427,0.8121,0.0,0.0,0.0,0.787,1.1666,1.1274,1.0957,1.5711,1.4796,1.3111,1.4475,1.4696,1.4429,1.371,1.3956,1.4163,1.3483,1.3008,1.2722,1.2923,1.2425,1.1978,1.1825,1.1277,1.074,1.0399,1.0902,1.1162,1.0995,1.1353,1.128,1.0539,0.9743,0.9455,0.9736,0.8679,0.8172,0.8327,0.7624,0.6437,0.481,0.4107,0.2377,-0.0415,-0.1416,-0.3891,-0.7526,-0.7061,-0.8212,-1.0651,-1.3166,-1.5087,-1.6621,-1.9383,-2.2183,-2.4708,-2.5083,-2.5827,-2.6909,-2.9316,-3.047,-3.115,0.0,0.0,0.0,0.0,0.0,0.0,0.0,0.0,0.0,0.0,0.0,0.0,1.3613,1.2836,1.2024,1.1311,1.0468,1.0207,1.0691,1.1709,1.2295,1.2346,1.2757,0.0,1.2799,1.2533,1.2159,1.1702,1.1431,1.2105,1.3693,1.5223,1.5874,1.5761,1.5459,1.5319,1.5267,1.4083,1.3664,1.3799,1.3742,1.292,1.165,1.086,1.0488,1.0253,0.8909,0.8401,0.8302,0.7571,0.7406,0.7482,0.7332,0.73,0.7308,0.0,0.0,0.0,1.0225,1.0463,1.0623,1.3626,1.3124,1.2057,1.2683,1.2961,1.284,1.2129,1.3199,1.3832,1.2579,1.2338,1.2443,1.2749,1.2272,1.18,1.1784,1.1075,1.0538,1.047,1.0538,1.028,0.9591,0.9553,0.9239,0.8533,0.8268,0.7889,0.7224,0.7255,0.6778,0.5736,0.4941,0.4296,0.388,0.1302,-0.0134,-0.0337,-0.4383,-0.6398,-0.6664,-0.8845,-1.0759,-1.2374,-1.4574,-1.5878,-1.663,-1.9999,-2.2386,-2.394,-2.3709,-2.4588,-2.6296,-2.9072,-3.0441,-3.1264,0.0,0.0,0.0,0.0,0.0,0.0,0.0,0.0,0.0,0.0,0.0,0.0,0.0,1.1666,1.1363,1.1133,1.1288,1.1661,1.2205,1.2593,1.2934,1.3203,1.3363,1.3261,1.2818,1.2801,1.2482,1.1897,1.1622,1.217,1.3495,1.3902,1.4679,1.5841,1.7744,1.6883,1.4153,1.5513,1.4519,1.2199,1.4132,1.3503,1.1442,1.1417,1.1388,1.1066,0.8786,0.8638,0.9271,0.7717,0.738,0.7561,0.7441,0.7408,0.7343,0.6931,0.6744,0.7168,0.9541,0.9665,0.9778,1.2543,1.1758,1.059,1.1616,1.2092,1.2001,1.0901,1.2335,1.3252,1.1752,1.2149,1.2841,1.3094,1.2373,1.1776,1.1784,1.1067,1.0419,1.0205,1.0316,1.0102,0.9368,0.9197,0.8712,0.7587,0.7132,0.6837,0.6773,0.6077,0.5852,0.6081,0.4991,0.3745,0.24,0.0592,-0.0671,-0.1342,-0.3995,-0.5807,-0.6809,-0.8143,-1.0135,-1.2596,-1.4474,-1.6165,-1.7918,-2.1407,-2.3477,-2.4515,-2.4647,-2.5518,-2.6938,-2.8504,-2.9168,-2.961,0.0,0.0,0.0,0.0,0.0,0.0,0.0,0.0,0.0,0.0,0.0,0.0,0.0,0.0,1.1072,1.107,1.178,1.2408,1.2807,1.3013,1.3254,1.3516,1.3619,1.3456,1.3002,1.2967,1.2689,1.2096,1.1736,1.1985,1.2761,1.2944,1.3746,1.5104,1.7731,1.7387,1.4959,1.6902,1.6049,1.3466,1.4888,1.4319,1.2565,1.2472,1.234,1.2083,1.0784,1.0639,1.0896,0.9846,0.9115,0.862,0.8512,0.7882,0.7091,0.6664,0.6493,0.6809,0.8444,0.8537,0.8711,1.0981,1.05,0.9676,1.0538,1.127,1.1424,1.0197,1.1531,1.2577,1.1307,1.1664,1.2335,1.2827,1.2069,1.1431,1.1542,1.0777,1.0183,1.0095,1.0213,0.9895,0.8935,0.8771,0.8066,0.6568,0.6038,0.5803,0.5642,0.5108,0.5008,0.5397,0.4378,0.2988,0.1221,0.0131,-0.0931,-0.1945,-0.4196,-0.5847,-0.6972,-0.8678,-1.0916,-1.3478,-1.5137,-1.6711,-1.8315,-2.145,-2.3235,-2.4034,-2.4504,-2.5438,-2.6582,-2.7828,-2.8363,-2.8757,0.0,0.0,0.0,0.0,0.0,0.0,0.0,0.0,0.0,1.1163,0.0,0.0,0.0,0.0,0.0,1.127,1.1913,1.2338,1.2375,1.2914,1.3249,1.3253,1.3496,1.3555,1.3409,1.3089,1.2722,1.2287,1.1779,1.1432,1.1327,1.2482,1.3209,1.3578,1.5121,1.6625,1.7957,1.8135,1.8026,1.7652,1.6113,1.5306,1.4863,1.3965,1.3296,1.3095,1.468,1.4155,1.2898,1.3695,1.2428,1.0485,1.0345,0.8542,0.646,0.6242,0.6076,0.6133,0.0,0.0,0.0,0.88,0.9175,0.92,0.9257,1.0298,1.0955,0.9952,1.0793,1.1621,1.1247,1.084,1.0926,1.1876,1.136,1.0909,1.0947,1.0179,0.9742,1.0174,1.0265,0.9673,0.8184,0.8025,0.7213,0.5269,0.5097,0.4714,0.3846,0.4336,0.4287,0.3389,0.2837,0.1931,0.045,-0.0386,-0.1175,-0.2012,-0.5318,-0.6902,-0.7037,-1.071,-1.3381,-1.5192,-1.671,-1.7426,-1.766,-1.9881,-2.1441,-2.2423,-2.3152,-2.4053,-2.5192,-2.7055,-2.8124,-2.8737,0.0,0.0,0.0,0.0,0.0,0.0,1.0968,1.1072,1.0971,0.0,0.0,0.0,1.0359,1.0823,1.157,1.2685,1.2971,1.3357,1.399,1.424,1.4293,1.4154,1.4215,1.4007,1.3471,1.3426,1.3072,1.2363,1.204,1.1578,1.1099,1.1396,1.1566,1.1711,1.3517,1.4441,1.4862,1.7044,1.5853,1.2829,1.671,1.5786,1.2347,1.4917,1.4732,1.3182,1.367,1.4025,1.4126,1.3547,1.2151,1.0312,0.8391,0.7198,0.6387,0.5786,0.5623,0.5552,0.5127,0.0,0.0,0.0,0.0,0.0,0.6498,0.7266,0.8,0.7939,0.9469,1.0673,1.0156,1.0467,1.0695,1.0339,1.0189,1.012,1.0285,0.9865,0.9467,0.9093,0.8928,0.833,0.6999,0.6794,0.6258,0.5175,0.4846,0.4555,0.4294,0.4028,0.3547,0.2826,0.2512,0.1463,-0.0515,-0.0773,-0.1567,-0.2887,-0.5592,-0.6902,-0.7037,-1.089,-1.3501,-1.5174,-1.7028,-1.8647,-2.0018,-2.1107,-2.219,-2.3384,-2.4611,-2.5253,-2.5631,-2.6745,-2.7299,-2.7494,0.0,0.0,0.0,0.0,0.0,1.0443,1.0734,1.0753,1.0579,0.0,0.0,0.0,1.008,1.0742,1.154,1.2446,1.3036,1.3577,1.4082,1.4412,1.4541,1.4419,1.4343,1.4046,1.3503,1.3474,1.3073,1.2323,1.2265,1.1879,1.1164,1.1182,1.115,1.1118,1.2094,1.2458,1.2415,1.4371,1.4539,1.3659,1.6233,1.603,1.4375,1.612,1.5743,1.443,1.5582,1.5906,1.5819,1.5978,1.4092,1.1375,0.9385,0.7535,0.6114,0.6195,0.5654,0.4894,0.4389,0.45,0.4782,0.4834,0.0,0.0,0.5661,0.6737,0.7662,0.7608,0.9044,0.9995,0.9082,0.897,0.8854,0.8394,0.8276,0.8602,0.9555,0.9188,0.8682,0.8429,0.8125,0.7534,0.6357,0.5977,0.5496,0.4798,0.4141,0.3791,0.3866,0.3329,0.2787,0.2341,0.1904,0.0781,-0.12,-0.1075,-0.1997,-0.402,-0.5986,-0.7163,-0.7817,-1.1847,-1.4405,-1.5661,-1.8055,-2.0191,-2.2002,-2.2163,-2.2722,-2.3649,-2.4837,-2.5441,-2.5647,-2.6217,-2.6659,-2.7014,0.0,0.0,0.9254,0.9702,0.9501,0.9616,1.0613,1.0385,1.0109,0.0,1.0164,1.0227,1.0314,1.084,1.1237,1.1402,1.2432,1.3139,1.3291,1.3857,1.4223,1.4282,1.4118,1.3832,1.3471,1.3294,1.2877,1.219,1.2439,1.2148,1.1408,1.1476,1.1402,1.1224,0.0,0.0,1.0702,1.1073,1.3522,1.6961,1.5094,1.5982,1.8211,1.7192,1.6306,1.6003,1.8647,1.8582,1.7503,1.914,1.6869,1.3103,1.1627,0.8668,0.5918,0.6705,0.5635,0.4182,0.4094,0.3901,0.3913,0.4665,0.481,0.0,0.5648,0.7093,0.8167,0.7842,0.8637,0.9019,0.7924,0.6819,0.6121,0.6258,0.6067,0.6603,0.8639,0.8165,0.7668,0.7744,0.7423,0.6789,0.5928,0.5374,0.4772,0.3965,0.3181,0.2801,0.292,0.245,0.2101,0.1941,0.1093,-0.006,-0.1601,-0.1355,-0.253,-0.5137,-0.6314,-0.7548,-0.8849,-1.3147,-1.5442,-1.616,-1.9339,-2.1756,-2.3348,-2.311,-2.3242,-2.3657,-2.4624,-2.5077,-2.5342,-2.5756,-2.6443,-2.7071,0.0,0.0,0.864,0.8964,0.9128,0.9377,0.985,1.0074,1.0185,1.0171,1.0187,1.0436,1.1028,1.0683,1.0896,1.2075,1.1883,1.2146,1.3226,1.3467,1.377,1.4201,1.4175,1.3846,1.3194,1.3244,1.2899,1.2128,1.2185,1.1961,1.1468,1.1127,1.0916,1.0794,0.0,0.9896,1.0492,0.985,1.1099,1.3591,1.4346,1.5024,1.5732,1.6869,1.6207,1.4968,1.7402,1.7904,1.7415,1.7176,1.6227,1.4401,1.0289,0.825,0.6907,0.4678,0.3844,0.3508,0.2805,0.2617,0.2632,0.268,0.265,0.0,0.326,0.3577,0.4051,0.503,0.5228,0.5443,0.6045,0.5343,0.4737,0.4948,0.4673,0.507,0.6931,0.7197,0.6846,0.5788,0.5263,0.4941,0.4802,0.4128,0.3234,0.2117,0.216,0.232,0.2503,0.2193,0.1828,0.1396,0.0445,-0.0582,-0.1601,-0.154,-0.2721,-0.5137,-0.6314,-0.7548,-0.8849,-1.326,-1.5249,-1.556,-1.9783,-2.2015,-2.276,-2.3761,-2.415,-2.4266,-2.5507,-2.548,-2.4894,-2.6724,-2.7282,-2.7122,0.6267,0.7112,0.7751,0.8513,0.9033,0.9397,0.9574,0.994,1.0195,1.0195,1.0193,1.0347,1.0759,1.0466,1.0546,1.1298,1.1254,1.1494,1.2164,1.2912,1.344,1.3584,1.4029,1.3969,1.336,1.3194,1.2811,1.226,1.2113,0.0,0.0,0.0,1.1006,1.0419,0.9725,0.9663,0.9982,0.8377,0.9574,1.26,1.3631,1.4479,1.5277,1.6524,1.6428,1.5836,1.7188,1.7674,1.7578,1.6368,1.5176,1.3813,1.1645,0.8866,0.6238,0.5085,0.377,0.266,0.245,0.2297,0.2208,0.2237,0.2171,0.0,0.0,0.309,0.3591,0.41,0.4524,0.482,0.4838,0.4143,0.3428,0.3094,0.3378,0.3975,0.4995,0.5567,0.5631,0.5073,0.4581,0.4213,0.3986,0.3379,0.2541,0.1382,0.1883,0.2144,0.1864,0.1729,0.1425,0.0928,-0.0,-0.1089,-0.2397,-0.1952,-0.3319,-0.663,-0.685,-0.8355,-1.1065,-1.4192,-1.6128,-1.7233,-2.0873,-2.2688,-2.3217,-2.4208,-2.4694,-2.4838,-2.5672,-2.5755,-2.5522,-2.6715,-2.7144,-2.7174,0.5802,0.6491,0.7085,0.8428,0.9135,0.9561,0.96,0.9943,1.0194,1.0218,1.023,1.037,1.076,1.0507,1.0428,1.0758,1.1184,1.133,1.1118,1.2531,1.3247,1.2951,1.365,1.3886,1.3523,1.3058,1.2669,1.2353,1.2046,0.0,0.0,0.0,1.1139,1.0234,0.9621,0.9627,0.9973,0.7873,0.9128,1.2616,1.3305,1.4178,1.5152,1.6071,1.6488,1.6593,1.7205,1.7573,1.7503,1.5831,1.4119,1.2765,1.28,0.9365,0.5386,0.5907,0.4104,0.1991,0.2335,0.2255,0.2106,0.2255,0.2176,0.2133,0.0,0.0,0.0,0.3381,0.3972,0.4323,0.3579,0.2782,0.2103,0.1597,0.217,0.2821,0.3134,0.3643,0.41,0.437,0.4049,0.3649,0.324,0.262,0.1865,0.0876,0.142,0.1496,0.0968,0.1069,0.0975,0.0504,-0.0336,-0.1477,-0.3036,-0.2287,-0.3947,-0.7928,-0.7404,-0.9111,-1.283,-1.4925,-1.6841,-1.8616,-2.1619,-2.3242,-2.3846,-2.4768,-2.5231,-2.5412,-2.555,-2.5893,-2.6258,-2.6578,-2.693,-2.7327,0.4821,0.6096,0.7439,0.8937,0.947,0.9752,1.0004,1.0135,1.0215,1.0271,1.0287,1.0872,1.2437,1.1226,1.0895,1.2382,1.2576,1.2172,1.1163,1.2704,1.3377,1.2771,1.2992,1.3149,1.3159,1.275,1.244,1.2226,1.165,1.131,0.0,0.0,1.0801,1.0483,0.9022,0.958,1.1555,1.0044,1.0687,1.2798,1.3895,1.4027,1.3673,1.5537,1.5779,1.5364,1.7044,1.7334,1.6654,1.4924,1.3546,1.2295,1.085,0.8373,0.5896,0.5393,0.3707,0.1951,0.1837,0.1908,0.1982,0.1901,0.1717,0.1614,0.1708,0.0,0.1579,0.1297,0.0,0.1145,0.1376,0.0,0.0,0.1445,0.1198,0.1095,0.1644,0.1705,0.194,0.2599,0.259,0.2506,0.245,0.1221,0.0251,-0.022,-0.0432,-0.0485,-0.0388,0.027,0.0487,0.0056,-0.0561,-0.1424,-0.2468,-0.2361,-0.3991,-0.7298,-0.7379,-0.8703,-1.1171,-1.4429,-1.617,-1.6819,-2.078,-2.287,-2.3722,-2.564,-2.6275,-2.5948,-2.5453,-2.5577,-2.6133,-2.6997,-2.7488,-2.7825,0.4579,0.6119,0.7529,0.9029,0.9517,0.9768,0.9964,1.0143,1.027,1.0304,1.0309,1.0955,1.2709,1.2207,1.2441,1.4159,1.4316,1.4101,1.3624,1.374,1.3788,1.3682,1.3328,1.3213,1.3438,1.3126,1.2887,1.272,1.1923,1.149,0.0,0.0,1.0729,1.0197,0.9095,0.9607,1.1192,0.9891,1.0768,1.3041,1.3043,1.2901,1.2974,1.4949,1.5604,1.5447,1.5595,1.5792,1.566,1.3423,1.283,1.2668,1.0588,0.8293,0.6465,0.6886,0.4369,0.176,0.3364,0.3563,0.342,0.3801,0.3465,0.3185,0.3638,0.2543,0.1361,0.1127,0.0,0.0,0.0,0.0,0.0,0.0,0.0779,0.0582,0.0687,0.0564,0.0837,0.1779,0.1635,0.1515,0.16,0.0955,0.0433,0.0147,-0.0398,-0.0704,-0.0612,-0.0374,-0.0332,-0.0505,-0.1176,-0.2027,-0.3074,-0.3829,-0.5505,-0.804,-0.8539,-1.0564,-1.3958,-1.5504,-1.7425,-1.9698,-2.1922,-2.3242,-2.3923,-2.5909,-2.6471,-2.6111,-2.64,-2.6491,-2.6654,-2.7218,-2.7554,-2.7925,0.4619,0.0,0.7163,0.901,0.9569,0.9835,0.9971,1.0546,1.0989,1.0985,1.0994,1.166,1.3392,1.2695,1.2987,1.5213,1.5409,1.539,1.539,1.4719,1.4516,1.496,1.3632,1.3347,1.4303,1.3578,1.3193,1.316,1.2064,1.1519,0.0,0.0,0.0,1.0172,0.935,0.9745,1.0934,1.0219,1.1265,1.3374,1.3213,1.3107,1.3228,1.4484,1.5221,1.5534,1.4915,1.4873,1.4803,1.271,1.2176,1.2207,1.0937,0.8858,0.7114,0.8406,0.6001,0.3331,0.5075,0.52,0.4854,0.4862,0.4406,0.4004,0.404,0.2455,0.0939,0.0789,0.0545,0.0,0.0,0.0,0.0133,0.033,0.0,-0.0024,-0.0164,-0.0377,-0.0164,0.0783,0.0605,0.0462,0.07,0.0628,0.0355,-0.0087,-0.0554,-0.1002,-0.154,-0.1593,-0.1677,-0.1842,-0.2233,-0.2899,-0.3831,-0.4873,-0.6415,-0.8381,-0.9698,-1.2143,-1.5445,-1.6558,-1.8699,-2.1677,-2.2687,-2.3551,-2.4368,-2.603,-2.6509,-2.6308,-2.7445,-2.7788,-2.7615,-2.7524,-2.774,-2.8268,0.4838,0.5189,0.614,0.892,0.9725,1.0038,1.0175,1.164,1.2711,1.2722,1.2729,1.3376,1.5126,1.2319,1.1657,1.5091,1.5407,1.5407,1.5407,1.537,1.5672,1.6411,1.3667,1.3328,1.5871,1.3956,1.3042,1.3293,1.1826,1.1211,0.0,0.0,0.0,0.0,0.9674,1.0054,1.1519,1.2001,1.2762,1.3836,1.5347,1.5568,1.4854,1.4053,1.4355,1.5285,1.5754,1.5276,1.4283,1.3301,1.1598,1.0179,1.1654,1.0026,0.7854,0.9318,0.8869,0.7619,0.6491,0.6194,0.5796,0.3933,0.3446,0.2962,0.1244,0.0234,-0.0341,-0.0353,-0.0861,-0.1323,-0.1338,-0.1274,-0.1069,-0.0537,-0.0842,0.0,0.0,-0.1252,-0.1318,-0.0701,-0.0823,-0.0743,-0.0202,-0.027,-0.0751,-0.1667,-0.1451,-0.2121,-0.3975,-0.3643,-0.3671,-0.4262,-0.3828,-0.3834,-0.4385,-0.4984,-0.6119,-0.7751,-1.066,-1.2588,-1.3821,-1.7161,-1.9565,-2.1009,-2.2128,-2.3446,-2.4878,-2.6165,-2.6607,-2.6674,-2.8372,-2.9162,-2.918,-2.8027,-2.814,-2.892,0.4791,0.5278,0.6226,0.9036,0.9713,0.9963,1.0232,1.0722,1.1308,1.1926,1.1972,1.3047,1.593,1.5211,1.521,1.6974,1.8295,1.825,1.6386,1.7046,1.7482,1.7355,1.6099,1.5511,1.5723,1.519,1.4401,1.3445,1.2616,1.1979,0.0,0.0,0.0,0.0,0.973,1.0132,1.124,1.2193,1.3229,1.4193,1.4464,1.3859,1.2953,1.4153,1.4595,1.4514,1.4435,1.4024,1.3368,1.2517,1.1793,1.1215,1.1305,0.9963,0.8759,1.0945,0.9392,0.6687,0.5434,0.4956,0.4198,0.144,0.0978,0.1196,0.1066,-0.002,-0.097,-0.0882,-0.1113,-0.1364,-0.1445,-0.1891,-0.2277,-0.2394,-0.3073,-0.3532,0.0,-0.3096,-0.2936,-0.3003,-0.2331,-0.1742,-0.1489,-0.1489,-0.155,-0.1605,-0.1496,-0.1721,-0.2376,-0.2595,-0.2813,-0.3008,-0.3545,-0.3895,-0.4012,-0.6271,-0.757,-0.7902,-1.1449,-1.3963,-1.5482,-1.7491,-1.9711,-2.2031,-2.2433,-2.3768,-2.5628,-2.6385,-2.688,-2.7229,-2.8592,-2.881,-2.8334,-2.8319,-2.8654,-2.909,0.4396,0.5268,0.6208,0.9007,0.9651,1.0057,1.0916,1.123,1.1984,1.3665,1.353,1.4309,1.7015,1.6827,1.6968,1.8145,1.8649,1.8736,1.8335,1.7014,1.6985,1.8653,1.6574,1.568,1.6326,1.5735,1.5137,1.4601,1.3062,1.2313,0.0,0.0,0.0,0.0,0.9565,0.9682,1.0216,1.1959,1.289,1.323,1.3314,1.2993,1.2533,1.3186,1.3598,1.3761,1.3473,1.317,1.2834,1.2637,1.2336,1.1965,1.1847,0.989,0.7983,0.9627,0.7319,0.3989,0.3105,0.2832,0.2118,-0.0645,-0.0976,-0.0742,-0.0945,-0.2694,-0.3961,-0.294,-0.4659,-0.5635,-0.3319,-0.448,-0.5409,-0.426,-0.4809,-0.5244,0.0,-0.4709,-0.4595,-0.461,-0.3463,-0.269,-0.2782,-0.2675,-0.2473,-0.2159,-0.2004,-0.2082,-0.2395,-0.2747,-0.3125,-0.3451,-0.4111,-0.4639,-0.4971,-0.7177,-0.8336,-0.8558,-1.2711,-1.5138,-1.6151,-1.8273,-2.0532,-2.268,-2.2807,-2.3987,-2.5844,-2.6299,-2.6975,-2.7826,-2.8576,-2.8933,-2.9027,-2.8764,-2.8982,-2.9393,0.3764,0.5218,0.6208,0.8819,0.9577,1.0402,1.209,1.3055,1.4612,1.739,1.7039,1.7012,1.8242,1.7112,1.6896,1.8398,1.6625,1.6948,2.0547,1.5439,1.4659,2.0055,1.5398,1.4246,1.7608,1.5724,1.5303,1.6588,1.3194,1.2224,0.0,0.0,0.0,0.0,0.9157,0.8766,0.8675,1.1307,1.1904,1.1191,1.2058,1.2899,1.3387,1.1265,1.1448,1.2844,1.2927,1.2788,1.2681,1.3494,1.2917,1.2021,1.2809,0.9566,0.549,0.5504,0.2893,-0.0127,-0.0511,-0.0468,-0.0843,-0.2939,-0.3185,-0.3389,-0.5234,-0.7892,-0.9258,-0.6758,-1.1215,-1.3585,-0.713,-0.8972,-1.02,-0.631,-0.6136,-0.6289,-0.5663,-0.6103,-0.6241,-0.5641,-0.4342,-0.3632,-0.3988,-0.375,-0.3508,-0.3332,-0.3003,-0.3171,-0.4026,-0.4086,-0.4529,-0.5462,-0.5311,-0.5854,-0.7064,-0.7633,-0.8459,-0.9665,-1.4156,-1.6137,-1.5823,-1.9472,-2.1731,-2.2719,-2.3068,-2.4032,-2.5411,-2.5835,-2.6843,-2.8217,-2.8372,-2.9512,-3.0926,-2.9358,-2.9241,-2.9881,0.411,0.6661,0.8234,0.8897,1.0455,1.1612,1.159,1.3595,1.4985,1.4566,1.6056,1.7355,1.7825,1.8462,1.813,1.6323,1.683,1.6608,1.5135,1.5641,1.6789,1.8528,1.8058,1.7683,1.7545,1.7465,1.7037,1.6309,1.4344,1.3347,1.3183,0.0,0.0,0.0,0.9064,0.8908,0.8912,1.0777,1.1366,1.1019,1.0308,1.0307,1.0652,0.9888,1.0138,1.0973,1.1859,1.2171,1.2264,1.2983,1.06,0.7486,0.8195,0.4938,0.092,0.1417,-0.0731,-0.3922,-0.6778,-0.9004,-1.1305,-1.4613,-1.4721,-1.4126,-1.4621,-1.4905,-1.4784,-1.3965,-1.5166,-1.5862,-1.4111,-1.3103,-1.2189,-1.1189,-0.9313,-0.799,-0.8072,-0.7757,-0.7594,-0.7815,-0.6959,-0.5856,-0.4649,-0.4714,-0.4472,-0.3591,-0.3843,-0.3926,-0.3663,-0.4088,-0.4339,-0.433,-0.4288,-0.5085,-0.6766,-0.7448,-0.8421,-0.9719,-1.3617,-1.5505,-1.5628,-1.8576,-2.0596,-2.1781,-2.175,-2.3043,-2.5139,-2.4498,-2.5212,-2.6688,-2.6931,-2.7721,-2.8897,-2.9906,-3.0149,-3.0097,0.3961,0.7159,0.9009,0.903,1.1553,1.3416,1.2987,1.4296,1.5694,1.6678,1.7709,1.8623,1.9302,2.0043,1.9826,1.8096,1.7147,1.6658,1.6699,1.5634,1.6225,1.9022,1.8751,1.8012,1.6917,1.7831,1.7773,1.6626,1.4594,1.37,1.3922,0.0,0.0,0.0,0.8915,0.8787,0.8748,1.0341,1.1443,1.1902,1.0309,1.0267,0.0,0.9275,0.9499,1.0821,1.1375,1.1653,1.1516,0.9896,0.7957,0.5915,0.4387,0.0724,-0.3209,-0.4186,-0.6628,-0.9824,-1.3751,-1.5599,-1.7009,-1.9582,-1.9585,-1.8999,-1.9051,-1.953,-1.9601,-1.8378,-2.0204,-2.1131,-1.8153,-1.6695,-1.4972,-1.2029,-1.0131,-0.9039,-0.9086,-0.9754,-0.9974,-0.9221,-0.9601,-0.9056,-0.6831,-0.6035,-0.5355,-0.4617,-0.4665,-0.4503,-0.3962,-0.4796,-0.491,-0.4101,-0.4867,-0.5682,-0.646,-0.7108,-0.8435,-1.0498,-1.3263,-1.5278,-1.6576,-1.9042,-2.0752,-2.1729,-2.2419,-2.3539,-2.4786,-2.5011,-2.5589,-2.6359,-2.7246,-2.7608,-2.7875,-2.9631,-2.995,-2.9499,0.4082,0.7341,0.9143,0.9524,1.2423,1.4882,1.5408,1.5639,1.7004,2.04,2.0271,2.0236,2.1138,2.1306,2.1272,2.0996,1.7548,1.6995,2.0787,1.5753,1.4957,2.0228,1.847,1.7077,1.6415,1.7615,1.7941,1.7363,1.4481,1.3705,0.0,0.0,0.0,0.0,0.8745,0.8629,0.8697,0.9996,1.151,1.2896,1.114,1.1363,1.2392,0.8776,0.8821,1.0671,0.985,1.0067,1.0198,0.638,0.4862,0.3976,0.0161,-0.4031,-0.8037,-1.0791,-1.3682,-1.6728,-2.035,-2.0877,-2.0578,-2.1472,-2.1383,-2.1122,-2.1222,-2.2858,-2.3769,-2.166,-2.5292,-2.7096,-2.1322,-2.0065,-1.7809,-1.1496,-1.0143,-0.9798,-0.9543,-1.181,-1.2609,-1.022,-1.1978,0.0,-0.956,-0.7558,-0.6365,-0.6096,-0.5626,-0.5189,-0.4795,-0.5789,-0.5786,-0.4493,-0.6102,-0.6902,-0.6745,-0.7093,-0.8862,-1.191,-1.3289,-1.5274,-1.7777,-1.9962,-2.1341,-2.2069,-2.3712,-2.4384,-2.4433,-2.6019,-2.6567,-2.6529,-2.7926,-2.7992,-2.7429,-2.8762,-2.8903,-2.8491,0.6697,0.8502,0.9756,1.1388,1.1944,1.3481,1.7449,1.9399,1.9938,1.8594,2.0134,2.0928,1.9864,2.0649,2.0521,1.8748,1.791,1.7607,1.7948,1.7001,1.7419,1.9591,1.8788,1.8194,1.8003,1.825,1.8306,1.8201,1.5305,1.4023,1.4182,1.0312,0.858,0.8737,0.8488,0.9083,1.0239,0.9585,1.0214,1.1585,1.0924,1.0794,1.0666,0.7198,0.6085,0.5835,0.219,0.373,0.7416,0.7186,0.0866,-0.7024,-0.7801,-1.223,-1.7261,-1.7757,-2.0093,-2.2682,-2.3423,-2.5367,-2.7233,-2.7406,-2.6856,-2.6288,-2.6314,-2.6556,-2.6882,-2.7199,-2.801,-2.8499,-2.8033,-2.3808,-1.9078,-1.5135,-1.2449,-1.0935,-1.114,-1.3119,-1.3709,-1.1461,-1.3052,-1.3279,-1.0527,-0.9077,-0.8133,-0.7647,-0.7415,-0.7019,-0.6335,-0.6206,-0.586,-0.5213,-0.5901,-0.733,-0.9568,-0.9111,-1.0615,-1.4051,-1.4435,-1.5738,-1.7847,-1.9394,-2.0764,-2.1897,-2.2612,-2.3275,-2.3819,-2.4539,-2.5203,-2.581,-2.6188,-2.6435,-2.6626,-2.7097,-2.7232,-2.7352,0.9429,1.025,1.0608,1.0998,1.2318,1.3908,1.5643,1.801,1.9482,1.9154,2.0249,2.0526,1.9108,1.9844,2.0035,1.8867,1.832,1.8243,1.8729,1.7913,1.8004,1.9372,1.8728,1.6964,1.4042,1.6825,1.5775,1.0616,1.1885,1.1357,0.9182,0.6519,0.534,0.5413,0.4635,0.4802,0.5566,0.4952,0.5042,0.5597,0.5369,0.5462,0.5423,0.2797,0.2305,0.2394,-0.2287,-0.3461,-0.2759,-0.2985,-0.633,-1.1111,-1.4959,-1.837,-2.1149,-2.2106,-2.3199,-2.4559,-2.6687,-2.8044,-2.8976,-2.9492,-2.9314,-2.8884,-2.8472,-2.833,-2.8274,-2.8281,-2.8563,-2.853,-2.7584,-2.4931,-2.1657,-1.7927,-1.5126,-1.3429,-1.3411,-1.4292,-1.4637,-1.3768,-1.5116,-1.5312,-1.3352,-1.2074,-1.0597,-0.8717,-0.8252,-0.7901,-0.7566,-0.7694,-0.7881,-0.8103,-0.8871,-1.0058,-1.1629,-1.1336,-1.2637,-1.5564,-1.5464,-1.6898,-1.9682,-2.0669,-2.1568,-2.242,-2.3571,-2.3989,-2.3983,-2.4744,-2.5538,-2.623,-2.6179,-2.6247,-2.6453,-2.6791,-2.6858,-2.696,1.1825,1.2041,1.187,1.1084,1.2921,1.4465,1.4317,1.6033,1.7975,1.9667,1.9913,1.9501,1.8477,1.8917,1.9102,1.8627,1.817,1.8177,1.8822,1.7948,1.7746,1.854,1.7313,1.458,1.0157,1.347,1.143,0.3535,0.7296,0.7475,0.4323,0.2791,0.2078,0.2041,0.0872,0.0573,0.0903,0.0814,0.0713,0.057,-0.0303,-0.0418,-0.039,-0.3643,-0.4047,-0.3558,-0.8383,-1.1768,-1.4223,-1.5939,-1.5654,-1.5652,-2.1504,-2.3586,-2.4215,-2.5696,-2.5607,-2.572,-2.8928,-2.9311,-2.9001,-2.9787,-2.9847,-2.9556,-2.8938,-2.8786,-2.8652,-2.8161,-2.869,-2.8637,-2.656,-2.5679,-2.4028,-2.0258,-1.7568,-1.5677,-1.4879,-1.5126,-1.5485,-1.5774,-1.6642,-1.6768,-1.5597,-1.4187,-1.2293,-0.971,-0.8981,-0.8789,-0.9082,-0.9188,-0.9703,-1.0726,-1.1496,-1.2285,-1.3141,-1.3125,-1.453,-1.7245,-1.6822,-1.8343,-2.1595,-2.2086,-2.2637,-2.3333,-2.4792,-2.5233,-2.4948,-2.5773,-2.6437,-2.6956,-2.6807,-2.6707,-2.6674,-2.7053,-2.7053,-2.6923,1.3331,1.3493,1.3836,1.4046,1.3389,1.3909,1.706,1.6676,1.6596,1.8375,1.8241,1.7919,1.7771,1.7695,1.7061,1.572,1.6642,1.6475,1.461,1.6335,1.6944,1.5909,1.3043,1.1239,1.0643,0.7393,0.514,0.4016,0.3348,0.3083,0.3127,0.1885,0.1243,0.1088,0.0074,0.0078,0.0905,0.0953,0.1316,0.1507,-0.2323,-0.397,-0.4996,-1.2713,-1.5665,-1.6207,-2.0401,-2.2102,-2.298,-2.6898,-2.7487,-2.6673,-2.7187,-2.8357,-2.9535,-2.9466,-2.8937,-2.8414,-2.8736,-2.8812,-2.8821,-2.8912,-2.8402,-2.7828,-2.7752,-2.7781,-2.8029,-2.8746,-2.9539,-3.0016,-2.9762,-2.7533,-2.4855,-2.2168,-1.9133,-1.6318,-1.3986,-1.5218,-1.6309,-1.6157,-1.6245,-1.6,-1.5139,-1.318,-1.1651,-1.0865,-1.0281,-1.0445,-1.1599,-0.9832,-0.9537,-1.1179,-1.0758,-1.1608,-1.3961,-1.393,-1.5862,-1.976,-1.8848,-1.9757,-2.2225,-2.2335,-2.3113,-2.4399,-2.5233,-2.6179,-2.7132,-2.7338,-2.7417,-2.7448,-2.7552,-2.7457,-2.7317,-2.7624,-2.7491,-2.7213,1.3048,1.3607,1.3361,1.2272,1.3022,1.3855,1.4195,1.4172,1.454,1.5721,1.6788,1.7078,1.619,1.6532,1.651,1.5785,1.6656,1.6504,1.493,1.5629,1.4767,1.1672,0.9843,0.6993,0.2991,0.3276,-0.0168,-0.7562,-0.3009,-0.3255,-0.7965,-0.7188,-0.7991,-1.0122,-1.209,-1.2758,-1.2392,-1.2947,-1.319,-1.333,-1.4863,-1.5702,-1.6402,-1.9686,-2.095,-2.1548,-2.5786,-2.7193,-2.7695,-3.1874,-3.1268,-2.9114,-3.0882,-3.1513,-3.1477,-3.0772,-3.0072,-2.955,-2.9631,-2.9617,-2.9603,-2.9672,-2.9434,-2.9044,-2.86,-2.8516,-2.8514,-2.8373,-2.8974,-2.9708,-3.0221,-2.932,-2.7547,-2.4576,-2.3038,-2.1188,-1.8227,-1.851,-1.9459,-2.0619,-1.9119,-1.8339,-1.9252,-1.6035,-1.3652,-1.3046,-1.1452,-1.0724,-1.12,-1.1309,-1.2134,-1.3867,-1.3925,-1.5465,-1.8808,-1.7604,-1.8607,-2.1744,-2.1268,-2.1712,-2.298,-2.3245,-2.4055,-2.5255,-2.5809,-2.6607,-2.7465,-2.7557,-2.7557,-2.7496,-2.7369,-2.7444,-2.7577,-2.7321,-2.7321,-2.7491,1.2507,1.3662,1.3491,1.1272,1.2941,1.3931,1.1817,1.2555,1.3354,1.3433,1.5226,1.6025,1.4828,1.5223,1.5254,1.4562,1.5158,1.4964,1.3341,1.2955,1.1256,0.7808,0.547,0.2029,-0.2711,-0.1427,-0.5396,-1.481,-0.8805,-0.9255,-1.562,-1.461,-1.5685,-1.8558,-2.0721,-2.1643,-2.1663,-2.2352,-2.2831,-2.3304,-2.4364,-2.5024,-2.5493,-2.6679,-2.7063,-2.7382,-3.0414,-3.1357,-3.1612,-3.4541,-3.3491,-3.1349,-3.354,-3.349,-3.2497,-3.1702,-3.0801,-3.0114,-3.0254,-3.0241,-3.0182,-3.0279,-3.0273,-3.0113,-2.9557,-2.9475,-2.9361,-2.8803,-2.9113,-2.9659,-3.0288,-3.0353,-2.9314,-2.6298,-2.5668,-2.4504,-2.1473,-2.0918,-2.1329,-2.2712,-2.0348,-1.9365,-2.1266,-1.7963,-1.5469,-1.4932,-1.3302,-1.2096,-1.1578,-1.2143,-1.3297,-1.5085,-1.4979,-1.6726,-2.0556,-1.9192,-2.0014,-2.3068,-2.2921,-2.3143,-2.3595,-2.4256,-2.5073,-2.6023,-2.6556,-2.708,-2.7569,-2.76,-2.76,-2.7539,-2.7324,-2.7461,-2.776,-2.7321,-2.74,-2.7642,1.1959,1.404,1.4988,1.2168,1.3462,1.395,1.1256,1.2699,1.3545,1.193,1.3483,1.4569,1.407,1.3743,1.277,1.084,1.1408,1.0817,0.8372,0.74,0.6237,0.4736,-0.0594,-0.3695,-0.3984,-0.741,-1.0609,-1.3605,-1.3349,-1.4287,-1.6503,-1.8037,-1.9503,-2.1005,-2.2079,-2.2576,-2.2574,-2.2671,-2.2801,-2.3269,-2.7507,-2.9347,-2.9983,-3.4156,-3.5623,-3.5466,-3.5505,-3.5435,-3.534,-3.5392,-3.529,-3.514,-3.5168,-3.4174,-3.2938,-3.2656,-3.1508,-3.0312,-3.0292,-3.0312,-3.0312,-3.0292,-3.0362,-3.0355,-3.0209,-3.0348,-3.0502,-3.0563,-3.0468,-3.0389,-3.0404,-3.0353,-2.9468,-2.6899,-2.6039,-2.4816,-2.2253,-2.1425,-2.0983,-2.0673,-1.861,-1.788,-1.9579,-1.7803,-1.6495,-1.6276,-1.6065,-1.5227,-1.3663,-1.1879,-1.1832,-1.3779,-1.2352,-1.3382,-1.7209,-1.7292,-1.9354,-2.3406,-2.3551,-2.3739,-2.4024,-2.5303,-2.6162,-2.6738,-2.7409,-2.7701,-2.7701,-2.7701,-2.7701,-2.7701,-2.763,-2.7689,-2.7818,-2.7996,-2.7882,-2.763,0.8748,1.1299,1.2902,1.1696,1.3627,1.4718,1.283,1.3027,1.3189,1.2553,1.2235,1.2077,1.1981,1.3097,1.2941,1.0723,1.0921,0.9825,0.6642,0.5707,0.312,-0.1558,-0.2825,-0.449,-0.6831,-0.979,-1.3214,-1.714,-1.7247,-1.8613,-2.1111,-2.3751,-2.5934,-2.7736,-3.0314,-3.146,-3.1468,-3.1523,-3.1612,-3.1813,-3.3224,-3.3843,-3.4042,-3.5392,-3.572,-3.549,-3.5671,-3.5444,-3.5081,-3.5214,-3.5207,-3.512,-3.5139,-3.3991,-3.2618,-3.2499,-3.1446,-3.0311,-3.0311,-3.0316,-3.0371,-3.0371,-3.0355,-3.033,-3.0343,-3.0424,-3.0503,-3.0525,-3.0505,-3.0508,-3.0589,-3.0505,-2.9611,-2.7046,-2.7608,-2.7445,-2.486,-2.4078,-2.3678,-2.3499,-2.145,-2.0608,-2.1953,-2.0508,-1.9098,-1.8259,-1.6997,-1.602,-1.5406,-1.5488,-1.6484,-1.8499,-1.8082,-1.898,-2.1414,-2.0519,-2.1379,-2.3994,-2.4051,-2.4354,-2.4847,-2.5603,-2.6283,-2.6871,-2.7457,-2.7701,-2.7701,-2.7701,-2.7672,-2.76,-2.7355,-2.7369,-2.7487,-2.7083,-2.7115,-2.7382,0.7548,1.0054,1.1853,1.1488,1.38,1.4993,1.2677,1.2956,1.3004,1.1897,1.1312,1.0712,0.9895,1.1243,1.1426,0.9678,0.8828,0.7384,0.5012,0.2552,-0.0634,-0.4616,-0.5339,-0.7109,-1.0269,-1.2006,-1.5191,-1.9965,-2.1218,-2.3098,-2.5681,-2.7959,-3.018,-3.232,-3.4582,-3.5637,-3.5669,-3.5726,-3.5788,-3.5842,-3.5885,-3.5891,-3.5908,-3.5929,-3.5702,-3.5417,-3.5591,-3.5379,-3.5032,-3.5153,-3.522,-3.5174,-3.4754,-3.3661,-3.2542,-3.2504,-3.1592,-3.0552,-3.0312,-3.0316,-3.0375,-3.0428,-3.0425,-3.0414,-3.0469,-3.0477,-3.049,-3.055,-3.0566,-3.0568,-3.0653,-3.0576,-2.996,-2.8348,-2.8932,-2.9004,-2.7378,-2.5921,-2.4964,-2.4892,-2.2803,-2.2,-2.3624,-2.279,-2.1854,-2.1181,-1.9175,-1.837,-1.9211,-1.7877,-1.811,-2.027,-2.0208,-2.1126,-2.3126,-2.2134,-2.2629,-2.4639,-2.4385,-2.4719,-2.5491,-2.5822,-2.6421,-2.7224,-2.7547,-2.7701,-2.7701,-2.7701,-2.7672,-2.76,-2.7386,-2.7276,-2.7241,-2.6856,-2.6889,-2.7083,0.782,0.9965,1.1615,1.1426,1.3975,1.4932,1.1404,1.2558,1.2901,1.0355,1.0569,1.0121,0.7991,0.8356,0.8381,0.7499,0.5371,0.3827,0.3113,-0.1671,-0.4845,-0.5497,-0.8107,-1.0955,-1.3917,-1.4016,-1.6722,-2.2159,-2.4859,-2.7315,-2.9585,-3.0557,-3.2274,-3.4564,-3.529,-3.5699,-3.5799,-3.5811,-3.5852,-3.5905,-3.5897,-3.5899,-3.5914,-3.597,-3.576,-3.5403,-3.5395,-3.5314,-3.5216,-3.5216,-3.5336,-3.5271,-3.4163,-3.3271,-3.2629,-3.2565,-3.1819,-3.088,-3.0333,-3.0235,-3.0348,-3.0546,-3.0636,-3.0684,-3.0681,-3.0552,-3.0469,-3.0645,-3.0641,-3.0604,-3.0594,-3.0546,-3.0479,-3.0428,-2.9901,-2.9476,-2.9361,-2.6849,-2.495,-2.4765,-2.2862,-2.2383,-2.4513,-2.4662,-2.4615,-2.4513,-2.2283,-2.1901,-2.4155,-1.943,-1.7723,-2.0034,-1.9698,-2.0603,-2.299,-2.259,-2.332,-2.5182,-2.4533,-2.4847,-2.5986,-2.5966,-2.659,-2.7701,-2.7701,-2.7701,-2.7701,-2.7654,-2.7672,-2.7701,-2.7569,-2.7355,-2.7117,-2.7178,-2.7051,-2.6873,0.6084,0.8751,1.1068,1.1323,1.3876,1.5263,1.3605,1.3251,1.2416,1.0383,0.9155,0.7981,0.6637,0.5963,0.471,0.2562,0.2904,0.2169,-0.0197,-0.3638,-0.7216,-1.0736,-0.9468,-1.0665,-1.4893,-1.5531,-1.8834,-2.5094,-2.6419,-2.7465,-2.8138,-3.0751,-3.2283,-3.2963,-3.4944,-3.5823,-3.5803,-3.584,-3.5898,-3.5905,-3.5903,-3.5924,-3.597,-3.5876,-3.5718,-3.5546,-3.5447,-3.5386,-3.5364,-3.5364,-3.5247,-3.4955,-3.4066,-3.3393,-3.2678,-3.1505,-3.0676,-3.0094,-3.0047,-3.0144,-3.0433,-3.1281,-3.1476,-3.1435,-3.1435,-3.097,-3.0543,-3.056,-3.0611,-3.0652,-3.0603,-3.0582,-3.0549,-3.049,-2.9975,-2.8925,-2.7043,-2.5761,-2.4317,-2.247,-2.3355,-2.4332,-2.487,-2.6308,-2.6473,-2.4644,-2.3683,-2.3467,-2.4033,-2.2824,-2.3021,-2.5045,-2.4481,-2.4439,-2.5155,-2.512,-2.5082,-2.5035,-2.4894,-2.5189,-2.5931,-2.6437,-2.7049,-2.7701,-2.7701,-2.7701,-2.7672,-2.7413,-2.7461,-2.7642,-2.71,-2.7021,-2.7117,-2.6573,-2.6757,-2.721,0.6022,0.7882,0.9627,1.0593,1.239,1.3307,1.2408,1.1729,1.0883,0.9551,0.7927,0.6706,0.6187,0.4089,0.2215,0.0828,0.053,-0.0728,-0.3578,-0.6142,-0.9082,-1.2423,-1.1042,-1.2398,-1.7113,-1.7688,-2.0507,-2.5857,-2.6347,-2.7055,-2.7905,-3.0226,-3.1517,-3.2029,-3.4275,-3.5262,-3.5269,-3.5684,-3.5859,-3.5908,-3.5908,-3.5948,-3.5997,-3.5912,-3.5762,-3.5599,-3.5593,-3.5499,-3.5407,-3.5502,-3.5331,-3.4863,-3.3573,-3.2845,-3.2176,-3.0466,-2.999,-3.0057,-3.0242,-3.0456,-3.095,-3.2113,-3.2396,-3.226,-3.1845,-3.1451,-3.109,-3.0663,-3.0657,-3.0676,-3.0565,-3.0574,-3.053,-3.0316,-2.896,-2.7415,-2.592,-2.4413,-2.3367,-2.315,-2.4356,-2.5597,-2.6686,-2.7615,-2.762,-2.6379,-2.4962,-2.4619,-2.5712,-2.4723,-2.5038,-2.7063,-2.6522,-2.6352,-2.6673,-2.6505,-2.6232,-2.5862,-2.555,-2.5733,-2.6369,-2.6437,-2.6903,-2.7701,-2.7426,-2.7457,-2.7701,-2.7504,-2.7461,-2.743,-2.7085,-2.6841,-2.6657,-2.6245,-2.6368,-2.6724,0.6343,0.7137,0.7971,0.9433,1.0302,1.0619,1.0062,0.9567,0.9037,0.8235,0.6585,0.545,0.5276,0.2248,0.0,-0.0346,-0.2045,-0.4101,-0.66,-0.8779,-1.0935,-1.3188,-1.2951,-1.4998,-1.9871,-2.0329,-2.218,-2.5589,-2.5895,-2.6814,-2.8277,-2.9672,-3.0757,-3.1581,-3.3473,-3.434,-3.4458,-3.5125,-3.5464,-3.5515,-3.5529,-3.5641,-3.5809,-3.5751,-3.5671,-3.5606,-3.5671,-3.5582,-3.5449,-3.5623,-3.5476,-3.4889,-3.2997,-3.2162,-3.1553,-2.9791,-2.9779,-3.0413,-3.065,-3.1191,-3.1962,-3.3033,-3.3316,-3.3103,-3.2202,-3.1948,-3.1656,-3.0852,-3.0687,-3.0676,-3.0557,-3.0574,-3.0356,-2.9606,-2.7528,-2.5767,-2.5058,-2.3364,-2.2921,-2.4986,-2.5654,-2.672,-2.8727,-2.8515,-2.8308,-2.8414,-2.6215,-2.5755,-2.7811,-2.593,-2.5645,-2.7487,-2.7115,-2.7147,-2.76,-2.7115,-2.6888,-2.6855,-2.6283,-2.6283,-2.6757,-2.6352,-2.669,-2.7565,-2.7098,-2.7161,-2.7595,-2.7457,-2.7272,-2.7117,-2.7053,-2.6691,-2.6175,-2.6139,-2.612,-2.6137,0.4391,0.5751,0.7104,0.764,0.8961,0.9957,0.9799,0.8952,0.8017,0.6881,0.4352,0.2451,0.1639,-0.0698,-0.3046,-0.5029,-0.555,-0.6452,-0.8328,-1.0572,-1.3499,-1.7093,-1.5619,-1.704,-2.1921,-2.3506,-2.4798,-2.5925,-2.7176,-2.8048,-2.8501,-3.0399,-3.1349,-3.1562,-3.2898,-3.3492,-3.3511,-3.3647,-3.3685,-3.3716,-3.3765,-3.4234,-3.4881,-3.4654,-3.5009,-3.5578,-3.5361,-3.5378,-3.5502,-3.5526,-3.5425,-3.4949,-3.3009,-3.2162,-3.1645,-3.0388,-3.0312,-3.0716,-3.1093,-3.2574,-3.4022,-3.4157,-3.4109,-3.3843,-3.3074,-3.2343,-3.158,-3.0786,-3.066,-3.0685,-3.0676,-3.0676,-2.9893,-2.7448,-2.6498,-2.5262,-2.2892,-2.3787,-2.4882,-2.5307,-2.72,-2.8572,-2.8957,-2.8761,-2.8603,-2.8572,-2.7923,-2.7646,-2.7954,-2.7465,-2.7332,-2.7654,-2.7522,-2.7539,-2.7672,-2.7063,-2.6738,-2.6738,-2.6639,-2.6404,-2.6073,-2.7,-2.7286,-2.7017,-2.6821,-2.6952,-2.7195,-2.63,-2.6247,-2.6758,-2.6419,-2.6419,-2.659,-2.6245,-2.6437,-2.6757,0.4346,0.4904,0.5586,0.6489,0.7025,0.7377,0.7349,0.6753,0.573,0.3861,0.2312,0.068,-0.0979,-0.3254,-0.513,-0.6209,-0.8413,-1.0545,-1.2355,-1.2462,-1.4113,-1.7781,-1.7202,-1.8649,-2.274,-2.3833,-2.5006,-2.6302,-2.7119,-2.7759,-2.8317,-3.0224,-3.1126,-3.1271,-3.3151,-3.401,-3.4029,-3.4489,-3.4725,-3.4744,-3.4753,-3.5018,-3.5389,-3.5253,-3.5428,-3.57,-3.5621,-3.5533,-3.5473,-3.5566,-3.5406,-3.4936,-3.3661,-3.3067,-3.2636,-3.1676,-3.1712,-3.2166,-3.2724,-3.3881,-3.4932,-3.4971,-3.4958,-3.4588,-3.3247,-3.2714,-3.214,-3.0856,-3.0654,-3.0704,-3.0697,-3.0711,-3.0172,-2.8542,-2.7109,-2.5639,-2.4053,-2.4783,-2.5463,-2.5501,-2.7701,-2.9197,-2.9112,-2.8879,-2.8718,-2.8608,-2.8352,-2.8156,-2.8063,-2.795,-2.7893,-2.7864,-2.7719,-2.7672,-2.7701,-2.7409,-2.7238,-2.7238,-2.7238,-2.7095,-2.6871,-2.7161,-2.708,-2.6788,-2.6573,-2.6556,-2.6623,-2.6333,-2.628,-2.635,-2.6175,-2.6085,-2.6082,-2.5901,-2.603,-2.6191,0.4177,0.4073,0.4124,0.5342,0.5267,0.5075,0.5188,0.445,0.3215,0.1346,-0.007,-0.1616,-0.3416,-0.6168,-0.7897,-0.7869,-1.1451,-1.4478,-1.6325,-1.4964,-1.5496,-1.8519,-1.8934,-2.0368,-2.3225,-2.3804,-2.4926,-2.6734,-2.7016,-2.7659,-2.8626,-3.0054,-3.0937,-3.1384,-3.3325,-3.4237,-3.4335,-3.5022,-3.5349,-3.5392,-3.535,-3.5474,-3.5681,-3.5652,-3.5683,-3.575,-3.5782,-3.5613,-3.543,-3.5596,-3.5438,-3.4998,-3.403,-3.3571,-3.3261,-3.2584,-3.3007,-3.3786,-3.443,-3.4979,-3.5419,-3.5519,-3.5546,-3.5071,-3.3246,-3.2958,-3.2596,-3.0916,-3.0654,-3.0722,-3.0717,-3.0716,-3.0343,-2.9178,-2.7504,-2.6123,-2.5542,-2.5541,-2.5838,-2.6413,-2.8214,-2.9365,-2.9262,-2.9012,-2.8832,-2.8718,-2.8492,-2.8327,-2.8191,-2.8154,-2.8099,-2.8042,-2.7864,-2.776,-2.776,-2.776,-2.776,-2.7789,-2.7777,-2.7672,-2.7547,-2.7224,-2.6871,-2.6506,-2.625,-2.6127,-2.6073,-2.6071,-2.6016,-2.5888,-2.5888,-2.5701,-2.5486,-2.5578,-2.5616,-2.5616,0.2841,0.2995,0.3294,0.3832,0.4136,0.4477,0.4786,0.2636,0.0966,0.076,-0.3151,-0.5923,-0.6005,-1.0053,-1.267,-1.255,-1.492,-1.7113,-1.8792,-1.8759,-1.9413,-2.1133,-2.1645,-2.2517,-2.3808,-2.472,-2.582,-2.7157,-2.7734,-2.8706,-3.0046,-3.0365,-3.1214,-3.2494,-3.2859,-3.3153,-3.3405,-3.352,-3.3587,-3.359,-3.3584,-3.4078,-3.4788,-3.4667,-3.5038,-3.5606,-3.5476,-3.5405,-3.5402,-3.5489,-3.5574,-3.5336,-3.3531,-3.2877,-3.2722,-3.2481,-3.3655,-3.5161,-3.5635,-3.5729,-3.5669,-3.5669,-3.5546,-3.4976,-3.3282,-3.2956,-3.2522,-3.0852,-3.0662,-3.0794,-3.0784,-3.0789,-2.9855,-2.702,-2.6461,-2.6199,-2.5652,-2.5653,-2.6544,-2.8847,-2.9295,-2.9407,-2.9386,-2.9206,-2.9079,-2.9067,-2.8767,-2.8543,-2.8466,-2.8273,-2.8154,-2.8099,-2.8014,-2.7986,-2.7986,-2.7986,-2.7996,-2.8071,-2.7929,-2.7612,-2.7172,-2.7487,-2.7049,-2.5966,-2.5826,-2.5697,-2.5582,-2.4688,-2.4639,-2.5169,-2.5169,-2.5169,-2.5185,-2.5486,-2.5616,-2.5616,0.2393,0.2625,0.2645,0.1931,0.2022,0.1834,0.0494,-0.0635,-0.1829,-0.3441,-0.5216,-0.7371,-1.009,-1.1888,-1.3489,-1.4761,-1.7081,-1.8892,-1.9886,-2.1149,-2.189,-2.1937,-2.2283,-2.3244,-2.485,-2.5362,-2.6402,-2.8012,-2.8985,-2.9734,-3.029,-3.1689,-3.2735,-3.3448,-3.4226,-3.471,-3.4971,-3.5006,-3.5009,-3.5009,-3.5015,-3.5213,-3.5506,-3.5444,-3.5273,-3.5013,-3.489,-3.447,-3.3974,-3.397,-3.3978,-3.3903,-3.3194,-3.2984,-3.2975,-3.2825,-3.3647,-3.468,-3.4854,-3.5232,-3.5568,-3.5507,-3.5046,-3.4301,-3.3164,-3.2568,-3.1943,-3.0849,-3.0715,-3.0799,-3.0794,-3.0764,-3.0275,-2.8871,-2.8689,-2.8531,-2.8034,-2.7974,-2.8347,-2.9295,-2.9471,-2.9492,-2.9411,-2.9435,-2.9316,-2.898,-2.8863,-2.8644,-2.8327,-2.8237,-2.8237,-2.8273,-2.8219,-2.8154,-2.8071,-2.8071,-2.8099,-2.8164,-2.8109,-2.7979,-2.7765,-2.7847,-2.7141,-2.5884,-2.5969,-2.5512,-2.4648,-2.4477,-2.4574,-2.4791,-2.4791,-2.4997,-2.5368,-2.5497,-2.568,-2.5844,0.1327,0.1438,0.1208,-0.029,-0.0285,-0.063,-0.2256,-0.3195,-0.4553,-0.6921,-0.7324,-0.9013,-1.337,-1.388,-1.4749,-1.6682,-1.9288,-2.0971,-2.1356,-2.3158,-2.3716,-2.2739,-2.3043,-2.3885,-2.5276,-2.5754,-2.6862,-2.872,-2.971,-3.0577,-3.1306,-3.2726,-3.3707,-3.4353,-3.5123,-3.5621,-3.5875,-3.5962,-3.5991,-3.5991,-3.5991,-3.5991,-3.5971,-3.5701,-3.5183,-3.4588,-3.422,-3.3658,-3.305,-3.3045,-3.3035,-3.2996,-3.2724,-3.2725,-3.2762,-3.2627,-3.3211,-3.3882,-3.387,-3.4253,-3.4728,-3.4955,-3.4537,-3.3821,-3.2736,-3.2151,-3.1625,-3.085,-3.0751,-3.0798,-3.0804,-3.0689,-3.0482,-3.0152,-3.0032,-2.9842,-2.9451,-2.9407,-2.9427,-2.9451,-2.9512,-2.9532,-2.9493,-2.9513,-2.9395,-2.9007,-2.8887,-2.8644,-2.8264,-2.8237,-2.8291,-2.8371,-2.8353,-2.83,-2.8219,-2.8191,-2.8219,-2.8255,-2.8246,-2.8246,-2.8273,-2.8081,-2.7344,-2.6235,-2.6267,-2.5623,-2.4461,-2.4542,-2.4533,-2.4451,-2.4655,-2.4981,-2.5389,-2.5594,-2.5868,-2.6118,-0.0676,-0.0735,-0.1018,-0.2748,-0.2769,-0.2479,-0.2482,-0.4697,-0.7072,-0.9063,-0.9542,-1.1325,-1.5539,-1.6263,-1.7041,-1.8564,-2.1728,-2.3603,-2.3539,-2.475,-2.4963,-2.376,-2.4172,-2.4602,-2.4909,-2.5862,-2.7274,-2.9221,-2.9751,-3.1191,-3.3393,-3.3203,-3.3865,-3.5199,-3.52,-3.5356,-3.5631,-3.5888,-3.5991,-3.5991,-3.5991,-3.5991,-3.5893,-3.5037,-3.4608,-3.4381,-3.35,-3.3106,-3.2985,-3.3048,-3.307,-3.2945,-3.2134,-3.1893,-3.1855,-3.1733,-3.2316,-3.2979,-3.2904,-3.2899,-3.3098,-3.3897,-3.4084,-3.3647,-3.1978,-3.1747,-3.1665,-3.0874,-3.0758,-3.0804,-3.0808,-3.0575,-3.0336,-3.012,-2.9867,-2.9623,-2.9429,-2.9407,-2.945,-2.957,-2.9493,-2.9474,-2.9681,-2.9395,-2.9209,-2.9209,-2.8892,-2.8569,-2.8327,-2.83,-2.83,-2.83,-2.8371,-2.8432,-2.8492,-2.8432,-2.8398,-2.8398,-2.8327,-2.8327,-2.838,-2.8109,-2.7589,-2.6897,-2.6689,-2.6057,-2.5182,-2.4681,-2.4348,-2.4147,-2.4768,-2.4989,-2.5067,-2.5775,-2.6189,-2.6314,-0.2547,-0.2564,-0.2897,-0.4905,-0.496,-0.5277,-0.6937,-0.9227,-1.0836,-1.1134,-1.2916,-1.5063,-1.7516,-1.826,-1.9412,-2.1483,-2.3166,-2.4509,-2.5425,-2.6323,-2.6503,-2.5745,-2.6061,-2.6314,-2.6452,-2.8082,-2.9224,-2.9763,-3.1331,-3.2488,-3.3203,-3.3795,-3.4411,-3.4993,-3.5245,-3.5466,-3.5684,-3.5912,-3.5991,-3.5991,-3.5991,-3.5991,-3.5893,-3.5037,-3.4305,-3.361,-3.2691,-3.1913,-3.1326,-3.1338,-3.128,-3.1158,-3.0926,-3.0775,-3.0701,-3.0707,-3.1318,-3.2014,-3.2044,-3.2493,-3.3022,-3.3211,-3.2871,-3.2361,-3.1899,-3.1418,-3.1001,-3.0817,-3.0784,-3.081,-3.0808,-3.0728,-3.0554,-3.0157,-3.0029,-2.9844,-2.945,-2.9407,-2.9409,-2.9451,-2.9512,-2.9532,-2.9493,-2.957,-2.9474,-2.9075,-2.8718,-2.8484,-2.851,-2.8406,-2.838,-2.844,-2.8458,-2.8484,-2.8492,-2.8484,-2.8484,-2.8536,-2.851,-2.851,-2.8536,-2.8353,-2.789,-2.7222,-2.6438,-2.5938,-2.5631,-2.4941,-2.4839,-2.5173,-2.5363,-2.5363,-2.5379,-2.6071,-2.6229,-2.6035,-0.4348,-0.4502,-0.491,-0.6861,-0.7161,-0.7864,-1.0036,-1.1724,-1.3209,-1.4675,-1.5568,-1.7155,-2.0211,-2.0152,-2.0852,-2.3144,-2.4195,-2.5204,-2.6404,-2.7115,-2.748,-2.7466,-2.7981,-2.7917,-2.7189,-2.8653,-2.9799,-3.0612,-3.2125,-3.3133,-3.3676,-3.427,-3.4632,-3.4775,-3.5094,-3.5345,-3.556,-3.5761,-3.5892,-3.5991,-3.5991,-3.5991,-3.5874,-3.4647,-3.3866,-3.3244,-3.1971,-3.1143,-3.0638,-3.0637,-3.0568,-3.0474,-3.0474,-3.0423,-3.0366,-3.0405,-3.0789,-3.1208,-3.1247,-3.1663,-3.2085,-3.2052,-3.1929,-3.1772,-3.1493,-3.1083,-3.0781,-3.0829,-3.0838,-3.082,-3.0735,-3.065,-3.0482,-3.0109,-2.9983,-2.9811,-2.949,-2.945,-2.945,-2.9471,-2.9493,-2.9532,-2.957,-2.9664,-2.9551,-2.9203,-2.8915,-2.8749,-2.8749,-2.8644,-2.8569,-2.8619,-2.8587,-2.8536,-2.8536,-2.8536,-2.8562,-2.8562,-2.8587,-2.8587,-2.8587,-2.8458,-2.8192,-2.7752,-2.6751,-2.632,-2.6235,-2.5443,-2.5325,-2.568,-2.5898,-2.5933,-2.5898,-2.6265,-2.6454,-2.6488,-0.6159,-0.643,-0.6946,-0.8714,-0.9264,-1.0191,-1.2202,-1.3022,-1.4776,-1.874,-1.775,-1.8433,-2.3056,-2.1977,-2.1746,-2.378,-2.4788,-2.5711,-2.6721,-2.7357,-2.8012,-2.8748,-2.9708,-2.9403,-2.7712,-2.8362,-2.9696,-3.1685,-3.2383,-3.3334,-3.4495,-3.4561,-3.4583,-3.4604,-3.4906,-3.5143,-3.5326,-3.553,-3.5772,-3.5991,-3.5991,-3.5991,-3.5815,-3.4061,-3.3398,-3.3163,-3.1426,-3.0759,-3.0698,-3.0697,-3.0657,-3.0594,-3.0594,-3.0589,-3.0589,-3.0594,-3.0594,-3.0618,-3.0604,-3.0654,-3.07,-3.0717,-3.126,-3.1606,-3.0877,-3.0801,-3.0903,-3.0891,-3.0899,-3.0849,-3.0633,-3.0445,-3.0266,-3.0037,-2.9841,-2.9683,-2.9512,-2.9492,-2.9531,-2.9589,-2.9474,-2.9492,-2.9755,-2.9664,-2.953,-2.9412,-2.9332,-2.9209,-2.9016,-2.8892,-2.8815,-2.8773,-2.8662,-2.8587,-2.8587,-2.8587,-2.8562,-2.8492,-2.8562,-2.8587,-2.8587,-2.8458,-2.8406,-2.8353,-2.7417,-2.7012,-2.6946,-2.613,-2.5845,-2.5952,-2.6489,-2.6673,-2.6606,-2.6403,-2.6807,-2.7307,-0.7821,-0.8162,-0.8809,-1.0955,-1.1397,-1.2328,-1.4679,-1.6636,-1.8093,-1.8742,-2.0357,-2.1861,-2.3025,-2.3339,-2.361,-2.3926,-2.4747,-2.5807,-2.7152,-2.8046,-2.8623,-2.8794,-2.962,-3.0227,-3.066,-3.1549,-3.2069,-3.225,-3.3214,-3.3963,-3.4495,-3.4561,-3.4623,-3.4708,-3.5113,-3.5328,-3.54,-3.5749,-3.5942,-3.5991,-3.5991,-3.5991,-3.5815,-3.4061,-3.3398,-3.3163,-3.1426,-3.0759,-3.0697,-3.0648,-3.0603,-3.0594,-3.0594,-3.0604,-3.0599,-3.0609,-3.0641,-3.0684,-3.0689,-3.0723,-3.0772,-3.0774,-3.0911,-3.099,-3.0816,-3.0834,-3.0889,-3.0838,-3.085,-3.0838,-3.0632,-3.0559,-3.0418,-3.0063,-2.996,-2.9832,-2.9531,-2.9492,-2.9491,-2.945,-2.9409,-2.9429,-2.947,-2.9409,-2.9409,-2.9472,-2.9272,-2.9082,-2.9026,-2.8934,-2.8791,-2.8569,-2.8587,-2.8587,-2.8587,-2.8587,-2.8587,-2.8587,-2.8587,-2.8587,-2.8587,-2.851,-2.8484,-2.844,-2.7549,-2.7447,-2.7858,-2.6994,-2.6931,-2.7361,-2.75,-2.722,-2.6787,-2.7269,-2.7238,-2.6967,-0.8548,-0.9564,-1.0672,-1.191,-1.3099,-1.4684,-1.6878,-1.8539,-1.9773,-2.0584,-2.2116,-2.3365,-2.3995,-2.4483,-2.4954,-2.5416,-2.6006,-2.684,-2.8048,-2.8685,-2.9339,-2.9959,-3.0556,-3.1223,-3.2057,-3.2634,-3.3014,-3.3169,-3.3795,-3.4269,-3.4602,-3.4645,-3.4732,-3.4851,-3.5101,-3.5328,-3.5504,-3.5723,-3.5888,-3.5991,-3.5991,-3.5991,-3.5854,-3.453,-3.3768,-3.3222,-3.1895,-3.1124,-3.0742,-3.0667,-3.0667,-3.0697,-3.0697,-3.0696,-3.0694,-3.0697,-3.0721,-3.0742,-3.0741,-3.0774,-3.0801,-3.0801,-3.0801,-3.0801,-3.0841,-3.0864,-3.0888,-3.0845,-3.0807,-3.0721,-3.061,-3.0503,-3.0335,-3.0117,-3.0002,-2.9883,-2.9682,-2.9645,-2.9626,-2.9549,-2.949,-2.945,-2.939,-2.9409,-2.9431,-2.9492,-2.9394,-2.9312,-2.9289,-2.9203,-2.903,-2.8803,-2.8471,-2.8412,-2.8587,-2.8047,-2.8002,-2.8562,-2.8562,-2.8562,-2.8562,-2.8536,-2.8466,-2.8414,-2.7637,-2.7643,-2.8154,-2.7326,-2.7357,-2.7893,-2.7893,-2.7683,-2.7391,-2.7422,-2.7234,-2.7029,-0.9399,-1.1139,-1.2736,-1.3251,-1.504,-1.7046,-1.9233,-2.0041,-2.103,-2.287,-2.3497,-2.4131,-2.5189,-2.5301,-2.5833,-2.7152,-2.749,-2.799,-2.887,-2.9396,-3.0153,-3.124,-3.17,-3.2179,-3.2654,-3.288,-3.3321,-3.3954,-3.4074,-3.4316,-3.4687,-3.4687,-3.4793,-3.5002,-3.5037,-3.5271,-3.5604,-3.5645,-3.5802,-3.5991,-3.5991,-3.5991,-3.5893,-3.5037,-3.4159,-3.33,-3.2402,-3.1543,-3.0786,-3.0742,-3.076,-3.0801,-3.0801,-3.0801,-3.0801,-3.0801,-3.0801,-3.0801,-3.0801,-3.0801,-3.0801,-3.0801,-3.0801,-3.0801,-3.088,-3.0899,-3.0901,-3.0891,-3.0774,-3.0625,-3.0576,-3.0386,-3.0217,-3.0155,-3.0011,-2.9891,-2.9808,-2.9808,-2.9773,-2.972,-2.9589,-2.9472,-2.9433,-2.9453,-2.9472,-2.9472,-2.955,-2.9569,-2.955,-2.9433,-2.9291,-2.906,-2.8381,-2.8139,-2.844,-2.7339,-2.7261,-2.8201,-2.8299,-2.837,-2.8466,-2.8466,-2.8432,-2.8353,-2.7787,-2.7794,-2.8154,-2.7542,-2.7589,-2.8042,-2.794,-2.7968,-2.7968,-2.7452,-2.7234,-2.7203,-1.1607,-1.3392,-1.562,-1.7736,-1.8343,-1.9481,-2.2128,-2.2937,-2.3436,-2.4047,-2.4624,-2.5189,-2.5715,-2.5745,-2.6199,-2.7414,-2.7578,-2.7997,-2.8917,-3.0319,-3.1185,-3.1278,-3.2057,-3.2654,-3.3024,-3.3273,-3.3514,-3.3742,-3.3823,-3.4124,-3.4623,-3.4623,-3.4754,-3.5007,-3.5177,-3.5394,-3.5624,-3.5856,-3.5965,-3.5991,-3.5991,-3.5991,-3.5893,-3.5037,-3.4159,-3.33,-3.2402,-3.1543,-3.0801,-3.0786,-3.0784,-3.0801,-3.0801,-3.0801,-3.0801,-3.0801,-3.0801,-3.0801,-3.0801,-3.0801,-3.0801,-3.0801,-3.0801,-3.0801,-3.0801,-3.086,-3.0899,-3.0901,-3.0872,-3.0765,-3.0482,-3.039,-3.0279,-2.9984,-2.9921,-2.9891,-2.9808,-2.9808,-2.9773,-2.972,-2.9589,-2.9492,-2.9492,-2.9453,-2.9412,-2.9412,-2.9472,-2.9472,-2.9353,-2.9314,-2.9166,-2.8845,-2.8296,-2.7913,-2.7747,-2.7106,-2.6884,-2.7043,-2.7447,-2.7926,-2.8406,-2.8353,-2.8327,-2.83,-2.8164,-2.8136,-2.8182,-2.8081,-2.8081,-2.8126,-2.7654,-2.776,-2.8154,-2.8081,-2.7742,-2.7378,-1.4264,-1.601,-1.7871,-1.9084,-2.0373,-2.1643,-2.2786,-2.3767,-2.4337,-2.4394,-2.5063,-2.5742,-2.619,-2.6578,-2.703,-2.7545,-2.8171,-2.8719,-2.913,-3.0294,-3.1108,-3.1428,-3.1951,-3.25,-3.322,-3.3397,-3.3689,-3.4037,-3.413,-3.4316,-3.4602,-3.4602,-3.4734,-3.5009,-3.5205,-3.5396,-3.5631,-3.5888,-3.5991,-3.5991,-3.5991,-3.5991,-3.5952,-3.5564,-3.4588,-3.3222,-3.1856,-3.1133,-3.0801,-3.0801,-3.0801,-3.0801,-3.0801,-3.0801,-3.0801,-3.0801,-3.0801,-3.0801,-3.0801,-3.0801,-3.0801,-3.0801,-3.0669,-3.058,-3.0752,-3.0495,-3.0335,-3.0658,-3.0661,-3.0586,-3.0434,-3.0241,-3.0118,-3.0066,-2.9965,-2.9888,-2.9857,-2.9857,-2.9823,-2.9755,-2.9701,-2.9645,-2.9626,-2.9531,-2.9453,-2.9453,-2.9453,-2.9433,-2.9353,-2.9433,-2.931,-2.8934,-2.8058,-2.76,-2.7584,-2.6706,-2.6556,-2.7186,-2.706,-2.7296,-2.7897,-2.8174,-2.8273,-2.8237,-2.8246,-2.8237,-2.8182,-2.7893,-2.7922,-2.8126,-2.7269,-2.7095,-2.7299,-2.7299,-2.7158,-2.695]}]]